<?xml version='1.0' encoding='UTF-8'?>
<gpx version="1.1" creator="https://www.komoot.de" xmlns="http://www.topografix.com/GPX/1/1" xmlns:xsi="http://www.w3.org/2001/XMLSchema-instance" xsi:schemaLocation="http://www.topografix.com/GPX/1/1 http://www.topografix.com/GPX/1/1/gpx.xsd">
  <metadata>
    <name>DVV Holzbunge - Rund um den Bistensee</name>
    <author>
      <link href="https://www.komoot.de">
        <text>komoot</text>
        <type>text/html</type>
      </link>
    </author>
  </metadata>
  <trk>
    <name>DVV Holzbunge - Rund um den Bistensee</name>
    <trkseg>
      <trkpt lat="54.379696" lon="9.707208">
        <ele>23.719179</ele>
        <time>2021-08-29T05:55:18.000Z</time>
      </trkpt>
      <trkpt lat="54.379697" lon="9.707227">
        <ele>23.719179</ele>
        <time>2021-08-29T05:55:19.000Z</time>
      </trkpt>
      <trkpt lat="54.379634" lon="9.707345">
        <ele>23.719179</ele>
        <time>2021-08-29T05:55:26.000Z</time>
      </trkpt>
      <trkpt lat="54.379562" lon="9.707429">
        <ele>23.719179</ele>
        <time>2021-08-29T05:55:32.000Z</time>
      </trkpt>
      <trkpt lat="54.379536" lon="9.707443">
        <ele>23.719179</ele>
        <time>2021-08-29T05:55:34.000Z</time>
      </trkpt>
      <trkpt lat="54.379497" lon="9.707405">
        <ele>23.719179</ele>
        <time>2021-08-29T05:55:37.000Z</time>
      </trkpt>
      <trkpt lat="54.379427" lon="9.707325">
        <ele>23.719179</ele>
        <time>2021-08-29T05:55:43.000Z</time>
      </trkpt>
      <trkpt lat="54.379364" lon="9.707265">
        <ele>23.719179</ele>
        <time>2021-08-29T05:55:48.000Z</time>
      </trkpt>
      <trkpt lat="54.379338" lon="9.707236">
        <ele>23.719179</ele>
        <time>2021-08-29T05:55:50.000Z</time>
      </trkpt>
      <trkpt lat="54.379325" lon="9.707223">
        <ele>23.719179</ele>
        <time>2021-08-29T05:55:51.000Z</time>
      </trkpt>
      <trkpt lat="54.379293" lon="9.707182">
        <ele>23.719179</ele>
        <time>2021-08-29T05:55:54.000Z</time>
      </trkpt>
      <trkpt lat="54.379230" lon="9.707106">
        <ele>23.719179</ele>
        <time>2021-08-29T05:55:59.000Z</time>
      </trkpt>
      <trkpt lat="54.379126" lon="9.706989">
        <ele>23.719179</ele>
        <time>2021-08-29T05:56:07.000Z</time>
      </trkpt>
      <trkpt lat="54.379037" lon="9.706889">
        <ele>23.719179</ele>
        <time>2021-08-29T05:56:14.000Z</time>
      </trkpt>
      <trkpt lat="54.379021" lon="9.706876">
        <ele>23.719179</ele>
        <time>2021-08-29T05:56:15.000Z</time>
      </trkpt>
      <trkpt lat="54.378958" lon="9.706811">
        <ele>23.730988</ele>
        <time>2021-08-29T05:56:20.000Z</time>
      </trkpt>
      <trkpt lat="54.378865" lon="9.706742">
        <ele>23.962745</ele>
        <time>2021-08-29T05:56:27.000Z</time>
      </trkpt>
      <trkpt lat="54.378770" lon="9.706623">
        <ele>24.231753</ele>
        <time>2021-08-29T05:56:36.000Z</time>
      </trkpt>
      <trkpt lat="54.378680" lon="9.706532">
        <ele>24.470682</ele>
        <time>2021-08-29T05:56:43.000Z</time>
      </trkpt>
      <trkpt lat="54.378667" lon="9.706518">
        <ele>24.505786</ele>
        <time>2021-08-29T05:56:44.000Z</time>
      </trkpt>
      <trkpt lat="54.378586" lon="9.706431">
        <ele>24.724349</ele>
        <time>2021-08-29T05:56:51.000Z</time>
      </trkpt>
      <trkpt lat="54.378499" lon="9.706321">
        <ele>24.971508</ele>
        <time>2021-08-29T05:56:58.000Z</time>
      </trkpt>
      <trkpt lat="54.378379" lon="9.706203">
        <ele>25.287850</ele>
        <time>2021-08-29T05:57:06.000Z</time>
      </trkpt>
      <trkpt lat="54.378348" lon="9.706172">
        <ele>25.369916</ele>
        <time>2021-08-29T05:57:08.000Z</time>
      </trkpt>
      <trkpt lat="54.378267" lon="9.706093">
        <ele>25.583018</ele>
        <time>2021-08-29T05:57:14.000Z</time>
      </trkpt>
      <trkpt lat="54.378215" lon="9.706046">
        <ele>25.717448</ele>
        <time>2021-08-29T05:57:18.000Z</time>
      </trkpt>
      <trkpt lat="54.378130" lon="9.705962">
        <ele>25.941800</ele>
        <time>2021-08-29T05:57:24.000Z</time>
      </trkpt>
      <trkpt lat="54.378016" lon="9.705805">
        <ele>26.276112</ele>
        <time>2021-08-29T05:57:33.000Z</time>
      </trkpt>
      <trkpt lat="54.377990" lon="9.705772">
        <ele>26.350076</ele>
        <time>2021-08-29T05:57:35.000Z</time>
      </trkpt>
      <trkpt lat="54.377883" lon="9.705634">
        <ele>26.656212</ele>
        <time>2021-08-29T05:57:44.000Z</time>
      </trkpt>
      <trkpt lat="54.377832" lon="9.705540">
        <ele>26.827375</ele>
        <time>2021-08-29T05:57:50.000Z</time>
      </trkpt>
      <trkpt lat="54.377828" lon="9.705501">
        <ele>26.880137</ele>
        <time>2021-08-29T05:57:52.000Z</time>
      </trkpt>
      <trkpt lat="54.377833" lon="9.705386">
        <ele>27.033785</ele>
        <time>2021-08-29T05:57:56.000Z</time>
      </trkpt>
      <trkpt lat="54.377836" lon="9.705349">
        <ele>27.083558</ele>
        <time>2021-08-29T05:57:57.000Z</time>
      </trkpt>
      <trkpt lat="54.377878" lon="9.705170">
        <ele>27.340678</ele>
        <time>2021-08-29T05:58:02.000Z</time>
      </trkpt>
      <trkpt lat="54.377934" lon="9.704993">
        <ele>27.609054</ele>
        <time>2021-08-29T05:58:09.000Z</time>
      </trkpt>
      <trkpt lat="54.378013" lon="9.704858">
        <ele>27.862981</ele>
        <time>2021-08-29T05:58:16.000Z</time>
      </trkpt>
      <trkpt lat="54.378049" lon="9.704755">
        <ele>28.017499</ele>
        <time>2021-08-29T05:58:20.000Z</time>
      </trkpt>
      <trkpt lat="54.378049" lon="9.704694">
        <ele>28.095965</ele>
        <time>2021-08-29T05:58:22.000Z</time>
      </trkpt>
      <trkpt lat="54.378061" lon="9.704615">
        <ele>28.200985</ele>
        <time>2021-08-29T05:58:25.000Z</time>
      </trkpt>
      <trkpt lat="54.378065" lon="9.704589">
        <ele>28.235576</ele>
        <time>2021-08-29T05:58:26.000Z</time>
      </trkpt>
      <trkpt lat="54.378079" lon="9.704477">
        <ele>28.382926</ele>
        <time>2021-08-29T05:58:30.000Z</time>
      </trkpt>
      <trkpt lat="54.378075" lon="9.704441">
        <ele>28.430070</ele>
        <time>2021-08-29T05:58:31.000Z</time>
      </trkpt>
      <trkpt lat="54.378073" lon="9.704317">
        <ele>28.589636</ele>
        <time>2021-08-29T05:58:35.000Z</time>
      </trkpt>
      <trkpt lat="54.378081" lon="9.704299">
        <ele>28.618761</ele>
        <time>2021-08-29T05:58:36.000Z</time>
      </trkpt>
      <trkpt lat="54.378086" lon="9.704276">
        <ele>28.650341</ele>
        <time>2021-08-29T05:58:37.000Z</time>
      </trkpt>
      <trkpt lat="54.378123" lon="9.704171">
        <ele>28.808202</ele>
        <time>2021-08-29T05:58:42.000Z</time>
      </trkpt>
      <trkpt lat="54.378188" lon="9.704070">
        <ele>29.001818</ele>
        <time>2021-08-29T05:58:48.000Z</time>
      </trkpt>
      <trkpt lat="54.378237" lon="9.704004">
        <ele>29.139364</ele>
        <time>2021-08-29T05:58:52.000Z</time>
      </trkpt>
      <trkpt lat="54.378260" lon="9.703971">
        <ele>29.205562</ele>
        <time>2021-08-29T05:58:54.000Z</time>
      </trkpt>
      <trkpt lat="54.378323" lon="9.703889">
        <ele>29.380163</ele>
        <time>2021-08-29T05:59:00.000Z</time>
      </trkpt>
      <trkpt lat="54.378335" lon="9.703881">
        <ele>29.408593</ele>
        <time>2021-08-29T05:59:01.000Z</time>
      </trkpt>
      <trkpt lat="54.378348" lon="9.703871">
        <ele>29.440054</ele>
        <time>2021-08-29T05:59:02.000Z</time>
      </trkpt>
      <trkpt lat="54.378380" lon="9.703852">
        <ele>29.514834</ele>
        <time>2021-08-29T05:59:04.000Z</time>
      </trkpt>
      <trkpt lat="54.378438" lon="9.703806">
        <ele>29.655936</ele>
        <time>2021-08-29T05:59:08.000Z</time>
      </trkpt>
      <trkpt lat="54.378474" lon="9.703776">
        <ele>29.744314</ele>
        <time>2021-08-29T05:59:11.000Z</time>
      </trkpt>
      <trkpt lat="54.378512" lon="9.703713">
        <ele>29.860978</ele>
        <time>2021-08-29T05:59:15.000Z</time>
      </trkpt>
      <trkpt lat="54.378619" lon="9.703601">
        <ele>30.137745</ele>
        <time>2021-08-29T05:59:23.000Z</time>
      </trkpt>
      <trkpt lat="54.378785" lon="9.703417">
        <ele>30.574126</ele>
        <time>2021-08-29T05:59:33.000Z</time>
      </trkpt>
      <trkpt lat="54.378826" lon="9.703361">
        <ele>30.689833</ele>
        <time>2021-08-29T05:59:37.000Z</time>
      </trkpt>
      <trkpt lat="54.378843" lon="9.703344">
        <ele>30.733282</ele>
        <time>2021-08-29T05:59:39.000Z</time>
      </trkpt>
      <trkpt lat="54.378940" lon="9.703228">
        <ele>30.994354</ele>
        <time>2021-08-29T05:59:46.000Z</time>
      </trkpt>
      <trkpt lat="54.378982" lon="9.703178">
        <ele>31.107228</ele>
        <time>2021-08-29T05:59:49.000Z</time>
      </trkpt>
      <trkpt lat="54.379030" lon="9.703099">
        <ele>31.254077</ele>
        <time>2021-08-29T05:59:53.000Z</time>
      </trkpt>
      <trkpt lat="54.379089" lon="9.702975">
        <ele>31.460038</ele>
        <time>2021-08-29T05:59:59.000Z</time>
      </trkpt>
      <trkpt lat="54.379099" lon="9.702955">
        <ele>31.493943</ele>
        <time>2021-08-29T06:00:00.000Z</time>
      </trkpt>
      <trkpt lat="54.379113" lon="9.702938">
        <ele>31.531814</ele>
        <time>2021-08-29T06:00:01.000Z</time>
      </trkpt>
      <trkpt lat="54.379202" lon="9.702834">
        <ele>31.769579</ele>
        <time>2021-08-29T06:00:07.000Z</time>
      </trkpt>
      <trkpt lat="54.379231" lon="9.702777">
        <ele>31.834544</ele>
        <time>2021-08-29T06:00:10.000Z</time>
      </trkpt>
      <trkpt lat="54.379293" lon="9.702734">
        <ele>31.903600</ele>
        <time>2021-08-29T06:00:14.000Z</time>
      </trkpt>
      <trkpt lat="54.379373" lon="9.702696">
        <ele>31.989322</ele>
        <time>2021-08-29T06:00:19.000Z</time>
      </trkpt>
      <trkpt lat="54.379395" lon="9.702635">
        <ele>32.032477</ele>
        <time>2021-08-29T06:00:22.000Z</time>
      </trkpt>
      <trkpt lat="54.379496" lon="9.702487">
        <ele>32.169606</ele>
        <time>2021-08-29T06:00:30.000Z</time>
      </trkpt>
      <trkpt lat="54.379539" lon="9.702360">
        <ele>32.257964</ele>
        <time>2021-08-29T06:00:35.000Z</time>
      </trkpt>
      <trkpt lat="54.379579" lon="9.702271">
        <ele>32.325581</ele>
        <time>2021-08-29T06:00:39.000Z</time>
      </trkpt>
      <trkpt lat="54.379650" lon="9.702155">
        <ele>32.426796</ele>
        <time>2021-08-29T06:00:45.000Z</time>
      </trkpt>
      <trkpt lat="54.379714" lon="9.702064">
        <ele>32.512613</ele>
        <time>2021-08-29T06:00:51.000Z</time>
      </trkpt>
      <trkpt lat="54.379739" lon="9.702035">
        <ele>32.543771</ele>
        <time>2021-08-29T06:00:53.000Z</time>
      </trkpt>
      <trkpt lat="54.379777" lon="9.701971">
        <ele>32.598743</ele>
        <time>2021-08-29T06:00:57.000Z</time>
      </trkpt>
      <trkpt lat="54.379811" lon="9.701926">
        <ele>32.643077</ele>
        <time>2021-08-29T06:01:00.000Z</time>
      </trkpt>
      <trkpt lat="54.379902" lon="9.701817">
        <ele>32.757664</ele>
        <time>2021-08-29T06:01:07.000Z</time>
      </trkpt>
      <trkpt lat="54.379978" lon="9.701679">
        <ele>32.871900</ele>
        <time>2021-08-29T06:01:15.000Z</time>
      </trkpt>
      <trkpt lat="54.380017" lon="9.701538">
        <ele>32.965786</ele>
        <time>2021-08-29T06:01:21.000Z</time>
      </trkpt>
      <trkpt lat="54.379964" lon="9.701442">
        <ele>33.045347</ele>
        <time>2021-08-29T06:01:26.000Z</time>
      </trkpt>
      <trkpt lat="54.379940" lon="9.701408">
        <ele>33.077481</ele>
        <time>2021-08-29T06:01:28.000Z</time>
      </trkpt>
      <trkpt lat="54.379912" lon="9.701374">
        <ele>33.112898</ele>
        <time>2021-08-29T06:01:30.000Z</time>
      </trkpt>
      <trkpt lat="54.379859" lon="9.701316">
        <ele>33.177805</ele>
        <time>2021-08-29T06:01:34.000Z</time>
      </trkpt>
      <trkpt lat="54.379805" lon="9.701261">
        <ele>33.242646</ele>
        <time>2021-08-29T06:01:39.000Z</time>
      </trkpt>
      <trkpt lat="54.379798" lon="9.701255">
        <ele>33.250726</ele>
        <time>2021-08-29T06:01:40.000Z</time>
      </trkpt>
      <trkpt lat="54.379785" lon="9.701241">
        <ele>33.266574</ele>
        <time>2021-08-29T06:01:41.000Z</time>
      </trkpt>
      <trkpt lat="54.379712" lon="9.701174">
        <ele>33.352058</ele>
        <time>2021-08-29T06:01:46.000Z</time>
      </trkpt>
      <trkpt lat="54.379593" lon="9.701117">
        <ele>33.479647</ele>
        <time>2021-08-29T06:01:54.000Z</time>
      </trkpt>
      <trkpt lat="54.379457" lon="9.701010">
        <ele>33.634142</ele>
        <time>2021-08-29T06:02:03.000Z</time>
      </trkpt>
      <trkpt lat="54.379373" lon="9.700917">
        <ele>33.795784</ele>
        <time>2021-08-29T06:02:09.000Z</time>
      </trkpt>
      <trkpt lat="54.379359" lon="9.700901">
        <ele>33.826912</ele>
        <time>2021-08-29T06:02:10.000Z</time>
      </trkpt>
      <trkpt lat="54.379347" lon="9.700884">
        <ele>33.855707</ele>
        <time>2021-08-29T06:02:11.000Z</time>
      </trkpt>
      <trkpt lat="54.379268" lon="9.700783">
        <ele>34.038012</ele>
        <time>2021-08-29T06:02:18.000Z</time>
      </trkpt>
      <trkpt lat="54.379241" lon="9.700743">
        <ele>34.104018</ele>
        <time>2021-08-29T06:02:20.000Z</time>
      </trkpt>
      <trkpt lat="54.379204" lon="9.700690">
        <ele>34.193204</ele>
        <time>2021-08-29T06:02:23.000Z</time>
      </trkpt>
      <trkpt lat="54.379145" lon="9.700608">
        <ele>34.333700</ele>
        <time>2021-08-29T06:02:28.000Z</time>
      </trkpt>
      <trkpt lat="54.379045" lon="9.700470">
        <ele>34.571164</ele>
        <time>2021-08-29T06:02:36.000Z</time>
      </trkpt>
      <trkpt lat="54.378957" lon="9.700236">
        <ele>34.871433</ele>
        <time>2021-08-29T06:02:46.000Z</time>
      </trkpt>
      <trkpt lat="54.378953" lon="9.700033">
        <ele>35.090393</ele>
        <time>2021-08-29T06:02:54.000Z</time>
      </trkpt>
      <trkpt lat="54.378969" lon="9.699910">
        <ele>35.226254</ele>
        <time>2021-08-29T06:02:59.000Z</time>
      </trkpt>
      <trkpt lat="54.378984" lon="9.699867">
        <ele>35.280287</ele>
        <time>2021-08-29T06:03:01.000Z</time>
      </trkpt>
      <trkpt lat="54.379015" lon="9.699785">
        <ele>35.385672</ele>
        <time>2021-08-29T06:03:05.000Z</time>
      </trkpt>
      <trkpt lat="54.379043" lon="9.699731">
        <ele>35.463611</ele>
        <time>2021-08-29T06:03:08.000Z</time>
      </trkpt>
      <trkpt lat="54.379053" lon="9.699703">
        <ele>35.499018</ele>
        <time>2021-08-29T06:03:09.000Z</time>
      </trkpt>
      <trkpt lat="54.379066" lon="9.699675">
        <ele>35.537620</ele>
        <time>2021-08-29T06:03:10.000Z</time>
      </trkpt>
      <trkpt lat="54.379110" lon="9.699540">
        <ele>35.704387</ele>
        <time>2021-08-29T06:03:15.000Z</time>
      </trkpt>
      <trkpt lat="54.379112" lon="9.699503">
        <ele>35.744445</ele>
        <time>2021-08-29T06:03:16.000Z</time>
      </trkpt>
      <trkpt lat="54.379161" lon="9.699383">
        <ele>35.902430</ele>
        <time>2021-08-29T06:03:21.000Z</time>
      </trkpt>
      <trkpt lat="54.379169" lon="9.699360">
        <ele>35.931309</ele>
        <time>2021-08-29T06:03:22.000Z</time>
      </trkpt>
      <trkpt lat="54.379235" lon="9.699168">
        <ele>36.171646</ele>
        <time>2021-08-29T06:03:30.000Z</time>
      </trkpt>
      <trkpt lat="54.379261" lon="9.699016">
        <ele>36.342422</ele>
        <time>2021-08-29T06:03:35.000Z</time>
      </trkpt>
      <trkpt lat="54.379263" lon="9.698947">
        <ele>36.416896</ele>
        <time>2021-08-29T06:03:37.000Z</time>
      </trkpt>
      <trkpt lat="54.379311" lon="9.698707">
        <ele>36.690444</ele>
        <time>2021-08-29T06:03:46.000Z</time>
      </trkpt>
      <trkpt lat="54.379359" lon="9.698557">
        <ele>36.874943</ele>
        <time>2021-08-29T06:03:53.000Z</time>
      </trkpt>
      <trkpt lat="54.379366" lon="9.698350">
        <ele>37.005055</ele>
        <time>2021-08-29T06:04:01.000Z</time>
      </trkpt>
      <trkpt lat="54.379361" lon="9.698268">
        <ele>37.015415</ele>
        <time>2021-08-29T06:04:04.000Z</time>
      </trkpt>
      <trkpt lat="54.379353" lon="9.698182">
        <ele>37.026359</ele>
        <time>2021-08-29T06:04:07.000Z</time>
      </trkpt>
      <trkpt lat="54.379343" lon="9.698095">
        <ele>37.037502</ele>
        <time>2021-08-29T06:04:10.000Z</time>
      </trkpt>
      <trkpt lat="54.379323" lon="9.697978">
        <ele>37.052824</ele>
        <time>2021-08-29T06:04:15.000Z</time>
      </trkpt>
      <trkpt lat="54.379289" lon="9.697878">
        <ele>37.067374</ele>
        <time>2021-08-29T06:04:21.000Z</time>
      </trkpt>
      <trkpt lat="54.379282" lon="9.697867">
        <ele>37.069422</ele>
        <time>2021-08-29T06:04:22.000Z</time>
      </trkpt>
      <trkpt lat="54.379217" lon="9.697753">
        <ele>37.089469</ele>
        <time>2021-08-29T06:04:29.000Z</time>
      </trkpt>
      <trkpt lat="54.379188" lon="9.697713">
        <ele>37.097495</ele>
        <time>2021-08-29T06:04:31.000Z</time>
      </trkpt>
      <trkpt lat="54.379089" lon="9.697605">
        <ele>37.122801</ele>
        <time>2021-08-29T06:04:37.000Z</time>
      </trkpt>
      <trkpt lat="54.379020" lon="9.697536">
        <ele>37.140029</ele>
        <time>2021-08-29T06:04:41.000Z</time>
      </trkpt>
      <trkpt lat="54.378958" lon="9.697466">
        <ele>37.156039</ele>
        <time>2021-08-29T06:04:45.000Z</time>
      </trkpt>
      <trkpt lat="54.378887" lon="9.697380">
        <ele>37.174785</ele>
        <time>2021-08-29T06:04:50.000Z</time>
      </trkpt>
      <trkpt lat="54.378803" lon="9.697294">
        <ele>37.195886</ele>
        <time>2021-08-29T06:04:55.000Z</time>
      </trkpt>
      <trkpt lat="54.378693" lon="9.697218">
        <ele>37.221469</ele>
        <time>2021-08-29T06:05:01.000Z</time>
      </trkpt>
      <trkpt lat="54.378581" lon="9.697112">
        <ele>37.249061</ele>
        <time>2021-08-29T06:05:09.000Z</time>
      </trkpt>
      <trkpt lat="54.378490" lon="9.697049">
        <ele>37.270231</ele>
        <time>2021-08-29T06:05:14.000Z</time>
      </trkpt>
      <trkpt lat="54.378415" lon="9.696977">
        <ele>37.288770</ele>
        <time>2021-08-29T06:05:19.000Z</time>
      </trkpt>
      <trkpt lat="54.378383" lon="9.696951">
        <ele>37.296408</ele>
        <time>2021-08-29T06:05:21.000Z</time>
      </trkpt>
      <trkpt lat="54.378275" lon="9.696887">
        <ele>37.321058</ele>
        <time>2021-08-29T06:05:28.000Z</time>
      </trkpt>
      <trkpt lat="54.378221" lon="9.696847">
        <ele>37.333747</ele>
        <time>2021-08-29T06:05:32.000Z</time>
      </trkpt>
      <trkpt lat="54.378182" lon="9.696819">
        <ele>37.342868</ele>
        <time>2021-08-29T06:05:35.000Z</time>
      </trkpt>
      <trkpt lat="54.378050" lon="9.696757">
        <ele>37.372394</ele>
        <time>2021-08-29T06:05:43.000Z</time>
      </trkpt>
      <trkpt lat="54.377919" lon="9.696704">
        <ele>37.492790</ele>
        <time>2021-08-29T06:05:51.000Z</time>
      </trkpt>
      <trkpt lat="54.377855" lon="9.696672">
        <ele>37.570838</ele>
        <time>2021-08-29T06:05:55.000Z</time>
      </trkpt>
      <trkpt lat="54.377841" lon="9.696660">
        <ele>37.589160</ele>
        <time>2021-08-29T06:05:56.000Z</time>
      </trkpt>
      <trkpt lat="54.377794" lon="9.696605">
        <ele>37.655758</ele>
        <time>2021-08-29T06:06:00.000Z</time>
      </trkpt>
      <trkpt lat="54.377708" lon="9.696541">
        <ele>37.765505</ele>
        <time>2021-08-29T06:06:06.000Z</time>
      </trkpt>
      <trkpt lat="54.377635" lon="9.696490">
        <ele>37.857784</ele>
        <time>2021-08-29T06:06:12.000Z</time>
      </trkpt>
      <trkpt lat="54.377547" lon="9.696409">
        <ele>37.974694</ele>
        <time>2021-08-29T06:06:19.000Z</time>
      </trkpt>
      <trkpt lat="54.377480" lon="9.696356">
        <ele>38.061069</ele>
        <time>2021-08-29T06:06:24.000Z</time>
      </trkpt>
      <trkpt lat="54.377469" lon="9.696341">
        <ele>38.077517</ele>
        <time>2021-08-29T06:06:25.000Z</time>
      </trkpt>
      <trkpt lat="54.377458" lon="9.696325">
        <ele>38.094397</ele>
        <time>2021-08-29T06:06:26.000Z</time>
      </trkpt>
      <trkpt lat="54.377378" lon="9.696249">
        <ele>38.201450</ele>
        <time>2021-08-29T06:06:32.000Z</time>
      </trkpt>
      <trkpt lat="54.377259" lon="9.696200">
        <ele>38.344735</ele>
        <time>2021-08-29T06:06:40.000Z</time>
      </trkpt>
      <trkpt lat="54.377155" lon="9.696117">
        <ele>38.479019</ele>
        <time>2021-08-29T06:06:48.000Z</time>
      </trkpt>
      <trkpt lat="54.377024" lon="9.696022">
        <ele>38.645525</ele>
        <time>2021-08-29T06:06:57.000Z</time>
      </trkpt>
      <trkpt lat="54.376973" lon="9.695962">
        <ele>38.717914</ele>
        <time>2021-08-29T06:07:01.000Z</time>
      </trkpt>
      <trkpt lat="54.376912" lon="9.695916">
        <ele>38.795923</ele>
        <time>2021-08-29T06:07:06.000Z</time>
      </trkpt>
      <trkpt lat="54.376883" lon="9.695896">
        <ele>38.832516</ele>
        <time>2021-08-29T06:07:08.000Z</time>
      </trkpt>
      <trkpt lat="54.376870" lon="9.695884">
        <ele>38.849798</ele>
        <time>2021-08-29T06:07:09.000Z</time>
      </trkpt>
      <trkpt lat="54.376836" lon="9.695849">
        <ele>38.896215</ele>
        <time>2021-08-29T06:07:12.000Z</time>
      </trkpt>
      <trkpt lat="54.376722" lon="9.695781">
        <ele>39.037521</ele>
        <time>2021-08-29T06:07:20.000Z</time>
      </trkpt>
      <trkpt lat="54.376614" lon="9.695693">
        <ele>39.177494</ele>
        <time>2021-08-29T06:07:28.000Z</time>
      </trkpt>
      <trkpt lat="54.376491" lon="9.695592">
        <ele>39.337136</ele>
        <time>2021-08-29T06:07:36.000Z</time>
      </trkpt>
      <trkpt lat="54.376452" lon="9.695548">
        <ele>39.391777</ele>
        <time>2021-08-29T06:07:39.000Z</time>
      </trkpt>
      <trkpt lat="54.376441" lon="9.695536">
        <ele>39.407037</ele>
        <time>2021-08-29T06:07:40.000Z</time>
      </trkpt>
      <trkpt lat="54.376411" lon="9.695506">
        <ele>39.447687</ele>
        <time>2021-08-29T06:07:42.000Z</time>
      </trkpt>
      <trkpt lat="54.376303" lon="9.695439">
        <ele>39.676760</ele>
        <time>2021-08-29T06:07:49.000Z</time>
      </trkpt>
      <trkpt lat="54.376224" lon="9.695364">
        <ele>39.887331</ele>
        <time>2021-08-29T06:07:55.000Z</time>
      </trkpt>
      <trkpt lat="54.376181" lon="9.695328">
        <ele>39.998921</ele>
        <time>2021-08-29T06:07:58.000Z</time>
      </trkpt>
      <trkpt lat="54.376099" lon="9.695273">
        <ele>40.204271</ele>
        <time>2021-08-29T06:08:04.000Z</time>
      </trkpt>
      <trkpt lat="54.376075" lon="9.695239">
        <ele>40.276851</ele>
        <time>2021-08-29T06:08:06.000Z</time>
      </trkpt>
      <trkpt lat="54.376043" lon="9.695201">
        <ele>40.367609</ele>
        <time>2021-08-29T06:08:09.000Z</time>
      </trkpt>
      <trkpt lat="54.375989" lon="9.695145">
        <ele>40.514764</ele>
        <time>2021-08-29T06:08:14.000Z</time>
      </trkpt>
      <trkpt lat="54.375979" lon="9.695129">
        <ele>40.546649</ele>
        <time>2021-08-29T06:08:15.000Z</time>
      </trkpt>
      <trkpt lat="54.375877" lon="9.695058">
        <ele>40.803383</ele>
        <time>2021-08-29T06:08:22.000Z</time>
      </trkpt>
      <trkpt lat="54.375794" lon="9.694987">
        <ele>41.019688</ele>
        <time>2021-08-29T06:08:28.000Z</time>
      </trkpt>
      <trkpt lat="54.375781" lon="9.694978">
        <ele>41.052384</ele>
        <time>2021-08-29T06:08:29.000Z</time>
      </trkpt>
      <trkpt lat="54.375704" lon="9.694891">
        <ele>41.267398</ele>
        <time>2021-08-29T06:08:35.000Z</time>
      </trkpt>
      <trkpt lat="54.375693" lon="9.694868">
        <ele>41.307831</ele>
        <time>2021-08-29T06:08:36.000Z</time>
      </trkpt>
      <trkpt lat="54.375678" lon="9.694814">
        <ele>41.389115</ele>
        <time>2021-08-29T06:08:38.000Z</time>
      </trkpt>
      <trkpt lat="54.375668" lon="9.694701">
        <ele>41.544404</ele>
        <time>2021-08-29T06:08:42.000Z</time>
      </trkpt>
      <trkpt lat="54.375669" lon="9.694527">
        <ele>41.780821</ele>
        <time>2021-08-29T06:08:49.000Z</time>
      </trkpt>
      <trkpt lat="54.375669" lon="9.694470">
        <ele>41.858264</ele>
        <time>2021-08-29T06:08:51.000Z</time>
      </trkpt>
      <trkpt lat="54.375679" lon="9.694389">
        <ele>41.970760</ele>
        <time>2021-08-29T06:08:54.000Z</time>
      </trkpt>
      <trkpt lat="54.375685" lon="9.694335">
        <ele>42.045450</ele>
        <time>2021-08-29T06:08:56.000Z</time>
      </trkpt>
      <trkpt lat="54.375713" lon="9.694167">
        <ele>42.282864</ele>
        <time>2021-08-29T06:09:03.000Z</time>
      </trkpt>
      <trkpt lat="54.375747" lon="9.694054">
        <ele>42.455666</ele>
        <time>2021-08-29T06:09:08.000Z</time>
      </trkpt>
      <trkpt lat="54.375768" lon="9.694018">
        <ele>42.524888</ele>
        <time>2021-08-29T06:09:10.000Z</time>
      </trkpt>
      <trkpt lat="54.375826" lon="9.693875">
        <ele>42.761638</ele>
        <time>2021-08-29T06:09:17.000Z</time>
      </trkpt>
      <trkpt lat="54.375842" lon="9.693836">
        <ele>42.826450</ele>
        <time>2021-08-29T06:09:19.000Z</time>
      </trkpt>
      <trkpt lat="54.375872" lon="9.693721">
        <ele>42.997649</ele>
        <time>2021-08-29T06:09:25.000Z</time>
      </trkpt>
      <trkpt lat="54.375858" lon="9.693656">
        <ele>43.091805</ele>
        <time>2021-08-29T06:09:27.000Z</time>
      </trkpt>
      <trkpt lat="54.375835" lon="9.693595">
        <ele>43.190532</ele>
        <time>2021-08-29T06:09:29.000Z</time>
      </trkpt>
      <trkpt lat="54.375820" lon="9.693563">
        <ele>43.246339</ele>
        <time>2021-08-29T06:09:31.000Z</time>
      </trkpt>
      <trkpt lat="54.375808" lon="9.693551">
        <ele>43.278732</ele>
        <time>2021-08-29T06:09:33.000Z</time>
      </trkpt>
      <trkpt lat="54.375805" lon="9.693542">
        <ele>43.292821</ele>
        <time>2021-08-29T06:09:39.000Z</time>
      </trkpt>
      <trkpt lat="54.375863" lon="9.693518">
        <ele>43.431984</ele>
        <time>2021-08-29T06:09:45.000Z</time>
      </trkpt>
      <trkpt lat="54.375888" lon="9.693402">
        <ele>43.600030</ele>
        <time>2021-08-29T06:09:50.000Z</time>
      </trkpt>
      <trkpt lat="54.375893" lon="9.693379">
        <ele>43.633384</ele>
        <time>2021-08-29T06:09:51.000Z</time>
      </trkpt>
      <trkpt lat="54.375899" lon="9.693364">
        <ele>43.658107</ele>
        <time>2021-08-29T06:09:52.000Z</time>
      </trkpt>
      <trkpt lat="54.375913" lon="9.693329">
        <ele>43.718154</ele>
        <time>2021-08-29T06:09:54.000Z</time>
      </trkpt>
      <trkpt lat="54.375938" lon="9.693186">
        <ele>43.935287</ele>
        <time>2021-08-29T06:10:00.000Z</time>
      </trkpt>
      <trkpt lat="54.375942" lon="9.693160">
        <ele>43.974396</ele>
        <time>2021-08-29T06:10:01.000Z</time>
      </trkpt>
      <trkpt lat="54.375947" lon="9.693075">
        <ele>44.098641</ele>
        <time>2021-08-29T06:10:04.000Z</time>
      </trkpt>
      <trkpt lat="54.375951" lon="9.692965">
        <ele>44.258927</ele>
        <time>2021-08-29T06:10:08.000Z</time>
      </trkpt>
      <trkpt lat="54.375952" lon="9.692936">
        <ele>44.301176</ele>
        <time>2021-08-29T06:10:09.000Z</time>
      </trkpt>
      <trkpt lat="54.375963" lon="9.692856">
        <ele>44.420719</ele>
        <time>2021-08-29T06:10:13.000Z</time>
      </trkpt>
      <trkpt lat="54.375996" lon="9.692721">
        <ele>44.633640</ele>
        <time>2021-08-29T06:10:19.000Z</time>
      </trkpt>
      <trkpt lat="54.376004" lon="9.692643">
        <ele>44.748822</ele>
        <time>2021-08-29T06:10:23.000Z</time>
      </trkpt>
      <trkpt lat="54.376015" lon="9.692588">
        <ele>44.833393</ele>
        <time>2021-08-29T06:10:26.000Z</time>
      </trkpt>
      <trkpt lat="54.376014" lon="9.692565">
        <ele>44.866935</ele>
        <time>2021-08-29T06:10:27.000Z</time>
      </trkpt>
      <trkpt lat="54.376001" lon="9.692371">
        <ele>45.150933</ele>
        <time>2021-08-29T06:10:34.000Z</time>
      </trkpt>
      <trkpt lat="54.375991" lon="9.692284">
        <ele>45.279898</ele>
        <time>2021-08-29T06:10:37.000Z</time>
      </trkpt>
      <trkpt lat="54.375980" lon="9.692180">
        <ele>45.433620</ele>
        <time>2021-08-29T06:10:41.000Z</time>
      </trkpt>
      <trkpt lat="54.375986" lon="9.692085">
        <ele>45.572590</ele>
        <time>2021-08-29T06:10:45.000Z</time>
      </trkpt>
      <trkpt lat="54.375980" lon="9.691991">
        <ele>45.710114</ele>
        <time>2021-08-29T06:10:49.000Z</time>
      </trkpt>
      <trkpt lat="54.375972" lon="9.691917">
        <ele>45.819571</ele>
        <time>2021-08-29T06:10:52.000Z</time>
      </trkpt>
      <trkpt lat="54.375973" lon="9.691882">
        <ele>45.870533</ele>
        <time>2021-08-29T06:10:54.000Z</time>
      </trkpt>
      <trkpt lat="54.375976" lon="9.691864">
        <ele>45.897761</ele>
        <time>2021-08-29T06:10:55.000Z</time>
      </trkpt>
      <trkpt lat="54.375965" lon="9.691730">
        <ele>46.094565</ele>
        <time>2021-08-29T06:11:02.000Z</time>
      </trkpt>
      <trkpt lat="54.375963" lon="9.691699">
        <ele>46.139925</ele>
        <time>2021-08-29T06:11:04.000Z</time>
      </trkpt>
      <trkpt lat="54.375961" lon="9.691675">
        <ele>46.175184</ele>
        <time>2021-08-29T06:11:06.000Z</time>
      </trkpt>
      <trkpt lat="54.375955" lon="9.691649">
        <ele>46.215855</ele>
        <time>2021-08-29T06:11:07.000Z</time>
      </trkpt>
      <trkpt lat="54.375940" lon="9.691599">
        <ele>46.297649</ele>
        <time>2021-08-29T06:11:10.000Z</time>
      </trkpt>
      <trkpt lat="54.375927" lon="9.691562">
        <ele>46.360491</ele>
        <time>2021-08-29T06:11:12.000Z</time>
      </trkpt>
      <trkpt lat="54.375916" lon="9.691506">
        <ele>46.446439</ele>
        <time>2021-08-29T06:11:15.000Z</time>
      </trkpt>
      <trkpt lat="54.375908" lon="9.691474">
        <ele>46.497083</ele>
        <time>2021-08-29T06:11:16.000Z</time>
      </trkpt>
      <trkpt lat="54.375903" lon="9.691441">
        <ele>46.546672</ele>
        <time>2021-08-29T06:11:17.000Z</time>
      </trkpt>
      <trkpt lat="54.375885" lon="9.691301">
        <ele>46.755178</ele>
        <time>2021-08-29T06:11:22.000Z</time>
      </trkpt>
      <trkpt lat="54.375869" lon="9.691243">
        <ele>46.848510</ele>
        <time>2021-08-29T06:11:24.000Z</time>
      </trkpt>
      <trkpt lat="54.375859" lon="9.691215">
        <ele>46.896277</ele>
        <time>2021-08-29T06:11:25.000Z</time>
      </trkpt>
      <trkpt lat="54.375845" lon="9.691129">
        <ele>47.026141</ele>
        <time>2021-08-29T06:11:29.000Z</time>
      </trkpt>
      <trkpt lat="54.375840" lon="9.691087">
        <ele>47.088485</ele>
        <time>2021-08-29T06:11:31.000Z</time>
      </trkpt>
      <trkpt lat="54.375823" lon="9.690958">
        <ele>47.280834</ele>
        <time>2021-08-29T06:11:36.000Z</time>
      </trkpt>
      <trkpt lat="54.375819" lon="9.690904">
        <ele>47.360000</ele>
        <time>2021-08-29T06:11:38.000Z</time>
      </trkpt>
      <trkpt lat="54.375812" lon="9.690877">
        <ele>47.402980</ele>
        <time>2021-08-29T06:11:39.000Z</time>
      </trkpt>
      <trkpt lat="54.375787" lon="9.690775">
        <ele>47.563919</ele>
        <time>2021-08-29T06:11:43.000Z</time>
      </trkpt>
      <trkpt lat="54.375780" lon="9.690729">
        <ele>47.633063</ele>
        <time>2021-08-29T06:11:45.000Z</time>
      </trkpt>
      <trkpt lat="54.375733" lon="9.690628">
        <ele>47.821071</ele>
        <time>2021-08-29T06:11:50.000Z</time>
      </trkpt>
      <trkpt lat="54.375728" lon="9.690615">
        <ele>47.843727</ele>
        <time>2021-08-29T06:11:51.000Z</time>
      </trkpt>
      <trkpt lat="54.375714" lon="9.690572">
        <ele>47.915369</ele>
        <time>2021-08-29T06:11:53.000Z</time>
      </trkpt>
      <trkpt lat="54.375695" lon="9.690523">
        <ele>48.000978</ele>
        <time>2021-08-29T06:11:55.000Z</time>
      </trkpt>
      <trkpt lat="54.375676" lon="9.690482">
        <ele>48.077174</ele>
        <time>2021-08-29T06:11:57.000Z</time>
      </trkpt>
      <trkpt lat="54.375657" lon="9.690449">
        <ele>48.144657</ele>
        <time>2021-08-29T06:11:59.000Z</time>
      </trkpt>
      <trkpt lat="54.375620" lon="9.690358">
        <ele>48.103240</ele>
        <time>2021-08-29T06:12:04.000Z</time>
      </trkpt>
      <trkpt lat="54.375550" lon="9.690246">
        <ele>47.977529</ele>
        <time>2021-08-29T06:12:10.000Z</time>
      </trkpt>
      <trkpt lat="54.375488" lon="9.690185">
        <ele>47.883648</ele>
        <time>2021-08-29T06:12:16.000Z</time>
      </trkpt>
      <trkpt lat="54.375475" lon="9.690165">
        <ele>47.860714</ele>
        <time>2021-08-29T06:12:18.000Z</time>
      </trkpt>
      <trkpt lat="54.375436" lon="9.690083">
        <ele>47.779703</ele>
        <time>2021-08-29T06:12:22.000Z</time>
      </trkpt>
      <trkpt lat="54.375466" lon="9.689721">
        <ele>47.499897</ele>
        <time>2021-08-29T06:16:51.000Z</time>
      </trkpt>
      <trkpt lat="54.375456" lon="9.689681">
        <ele>47.466587</ele>
        <time>2021-08-29T06:16:56.000Z</time>
      </trkpt>
      <trkpt lat="54.375453" lon="9.689601">
        <ele>47.405241</ele>
        <time>2021-08-29T06:17:00.000Z</time>
      </trkpt>
      <trkpt lat="54.375450" lon="9.689557">
        <ele>47.371341</ele>
        <time>2021-08-29T06:17:02.000Z</time>
      </trkpt>
      <trkpt lat="54.375442" lon="9.689469">
        <ele>47.303185</ele>
        <time>2021-08-29T06:17:06.000Z</time>
      </trkpt>
      <trkpt lat="54.375440" lon="9.689421">
        <ele>47.266359</ele>
        <time>2021-08-29T06:17:08.000Z</time>
      </trkpt>
      <trkpt lat="54.375420" lon="9.689320">
        <ele>47.184726</ele>
        <time>2021-08-29T06:17:12.000Z</time>
      </trkpt>
      <trkpt lat="54.375425" lon="9.689238">
        <ele>47.121633</ele>
        <time>2021-08-29T06:17:15.000Z</time>
      </trkpt>
      <trkpt lat="54.375420" lon="9.689196">
        <ele>47.088829</ele>
        <time>2021-08-29T06:17:17.000Z</time>
      </trkpt>
      <trkpt lat="54.375434" lon="9.689130">
        <ele>47.035078</ele>
        <time>2021-08-29T06:17:21.000Z</time>
      </trkpt>
      <trkpt lat="54.375444" lon="9.689110">
        <ele>47.014908</ele>
        <time>2021-08-29T06:17:23.000Z</time>
      </trkpt>
      <trkpt lat="54.375441" lon="9.689075">
        <ele>46.987836</ele>
        <time>2021-08-29T06:17:25.000Z</time>
      </trkpt>
      <trkpt lat="54.375451" lon="9.689044">
        <ele>46.960719</ele>
        <time>2021-08-29T06:17:27.000Z</time>
      </trkpt>
      <trkpt lat="54.375458" lon="9.689014">
        <ele>46.935988</ele>
        <time>2021-08-29T06:17:29.000Z</time>
      </trkpt>
      <trkpt lat="54.375470" lon="9.688976">
        <ele>46.902910</ele>
        <time>2021-08-29T06:17:31.000Z</time>
      </trkpt>
      <trkpt lat="54.375478" lon="9.688939">
        <ele>46.872708</ele>
        <time>2021-08-29T06:17:33.000Z</time>
      </trkpt>
      <trkpt lat="54.375478" lon="9.688912">
        <ele>46.852047</ele>
        <time>2021-08-29T06:17:34.000Z</time>
      </trkpt>
      <trkpt lat="54.375518" lon="9.688751">
        <ele>46.718104</ele>
        <time>2021-08-29T06:17:41.000Z</time>
      </trkpt>
      <trkpt lat="54.375524" lon="9.688726">
        <ele>46.697413</ele>
        <time>2021-08-29T06:17:42.000Z</time>
      </trkpt>
      <trkpt lat="54.375548" lon="9.688585">
        <ele>46.585002</ele>
        <time>2021-08-29T06:17:48.000Z</time>
      </trkpt>
      <trkpt lat="54.375547" lon="9.688554">
        <ele>46.561243</ele>
        <time>2021-08-29T06:17:49.000Z</time>
      </trkpt>
      <trkpt lat="54.375556" lon="9.688439">
        <ele>46.472450</ele>
        <time>2021-08-29T06:17:54.000Z</time>
      </trkpt>
      <trkpt lat="54.375546" lon="9.688333">
        <ele>46.390278</ele>
        <time>2021-08-29T06:17:59.000Z</time>
      </trkpt>
      <trkpt lat="54.375532" lon="9.688287">
        <ele>46.350561</ele>
        <time>2021-08-29T06:18:01.000Z</time>
      </trkpt>
      <trkpt lat="54.375534" lon="9.688263">
        <ele>46.332008</ele>
        <time>2021-08-29T06:18:03.000Z</time>
      </trkpt>
      <trkpt lat="54.375532" lon="9.688142">
        <ele>46.239377</ele>
        <time>2021-08-29T06:18:07.000Z</time>
      </trkpt>
      <trkpt lat="54.375539" lon="9.687940">
        <ele>46.084526</ele>
        <time>2021-08-29T06:18:14.000Z</time>
      </trkpt>
      <trkpt lat="54.375545" lon="9.687890">
        <ele>46.045461</ele>
        <time>2021-08-29T06:18:16.000Z</time>
      </trkpt>
      <trkpt lat="54.375555" lon="9.687831">
        <ele>45.998439</ele>
        <time>2021-08-29T06:18:18.000Z</time>
      </trkpt>
      <trkpt lat="54.375560" lon="9.687764">
        <ele>45.946749</ele>
        <time>2021-08-29T06:18:20.000Z</time>
      </trkpt>
      <trkpt lat="54.375556" lon="9.687673">
        <ele>45.876914</ele>
        <time>2021-08-29T06:18:23.000Z</time>
      </trkpt>
      <trkpt lat="54.375549" lon="9.687634">
        <ele>45.845685</ele>
        <time>2021-08-29T06:18:24.000Z</time>
      </trkpt>
      <trkpt lat="54.375552" lon="9.687560">
        <ele>45.762599</ele>
        <time>2021-08-29T06:18:27.000Z</time>
      </trkpt>
      <trkpt lat="54.375562" lon="9.687464">
        <ele>45.595408</ele>
        <time>2021-08-29T06:18:31.000Z</time>
      </trkpt>
      <trkpt lat="54.375559" lon="9.687437">
        <ele>45.548285</ele>
        <time>2021-08-29T06:18:32.000Z</time>
      </trkpt>
      <trkpt lat="54.375558" lon="9.687425">
        <ele>45.527503</ele>
        <time>2021-08-29T06:18:33.000Z</time>
      </trkpt>
      <trkpt lat="54.375557" lon="9.687414">
        <ele>45.508417</ele>
        <time>2021-08-29T06:18:34.000Z</time>
      </trkpt>
      <trkpt lat="54.375543" lon="9.687355">
        <ele>45.399198</ele>
        <time>2021-08-29T06:18:37.000Z</time>
      </trkpt>
      <trkpt lat="54.375544" lon="9.687316">
        <ele>45.332272</ele>
        <time>2021-08-29T06:18:39.000Z</time>
      </trkpt>
      <trkpt lat="54.375541" lon="9.687174">
        <ele>45.088671</ele>
        <time>2021-08-29T06:18:46.000Z</time>
      </trkpt>
      <trkpt lat="54.375546" lon="9.687137">
        <ele>45.023554</ele>
        <time>2021-08-29T06:18:48.000Z</time>
      </trkpt>
      <trkpt lat="54.375556" lon="9.687075">
        <ele>44.913263</ele>
        <time>2021-08-29T06:18:52.000Z</time>
      </trkpt>
      <trkpt lat="54.375556" lon="9.687063">
        <ele>44.892691</ele>
        <time>2021-08-29T06:18:53.000Z</time>
      </trkpt>
      <trkpt lat="54.375531" lon="9.686972">
        <ele>44.720201</ele>
        <time>2021-08-29T06:18:55.000Z</time>
      </trkpt>
      <trkpt lat="54.375504" lon="9.686904">
        <ele>44.579113</ele>
        <time>2021-08-29T06:18:58.000Z</time>
      </trkpt>
      <trkpt lat="54.375499" lon="9.686891">
        <ele>44.552406</ele>
        <time>2021-08-29T06:18:59.000Z</time>
      </trkpt>
      <trkpt lat="54.375483" lon="9.686853">
        <ele>44.472021</ele>
        <time>2021-08-29T06:19:01.000Z</time>
      </trkpt>
      <trkpt lat="54.375464" lon="9.686799">
        <ele>44.363865</ele>
        <time>2021-08-29T06:19:03.000Z</time>
      </trkpt>
      <trkpt lat="54.375457" lon="9.686770">
        <ele>44.310048</ele>
        <time>2021-08-29T06:19:04.000Z</time>
      </trkpt>
      <trkpt lat="54.375442" lon="9.686730">
        <ele>44.228490</ele>
        <time>2021-08-29T06:19:06.000Z</time>
      </trkpt>
      <trkpt lat="54.375435" lon="9.686714">
        <ele>44.194184</ele>
        <time>2021-08-29T06:19:07.000Z</time>
      </trkpt>
      <trkpt lat="54.375429" lon="9.686700">
        <ele>44.164386</ele>
        <time>2021-08-29T06:19:08.000Z</time>
      </trkpt>
      <trkpt lat="54.375416" lon="9.686666">
        <ele>44.094661</ele>
        <time>2021-08-29T06:19:10.000Z</time>
      </trkpt>
      <trkpt lat="54.375408" lon="9.686615">
        <ele>44.004112</ele>
        <time>2021-08-29T06:19:13.000Z</time>
      </trkpt>
      <trkpt lat="54.375401" lon="9.686587">
        <ele>43.951875</ele>
        <time>2021-08-29T06:19:15.000Z</time>
      </trkpt>
      <trkpt lat="54.375397" lon="9.686571">
        <ele>43.922025</ele>
        <time>2021-08-29T06:19:17.000Z</time>
      </trkpt>
      <trkpt lat="54.375393" lon="9.686556">
        <ele>43.893743</ele>
        <time>2021-08-29T06:19:18.000Z</time>
      </trkpt>
      <trkpt lat="54.375397" lon="9.686512">
        <ele>43.817397</ele>
        <time>2021-08-29T06:19:20.000Z</time>
      </trkpt>
      <trkpt lat="54.375398" lon="9.686497">
        <ele>43.791513</ele>
        <time>2021-08-29T06:19:21.000Z</time>
      </trkpt>
      <trkpt lat="54.375399" lon="9.686476">
        <ele>43.755391</ele>
        <time>2021-08-29T06:19:24.000Z</time>
      </trkpt>
      <trkpt lat="54.375411" lon="9.686467">
        <ele>43.716848</ele>
        <time>2021-08-29T06:19:27.000Z</time>
      </trkpt>
      <trkpt lat="54.375429" lon="9.686471">
        <ele>43.663427</ele>
        <time>2021-08-29T06:19:28.000Z</time>
      </trkpt>
      <trkpt lat="54.375451" lon="9.686460">
        <ele>43.595985</ele>
        <time>2021-08-29T06:19:30.000Z</time>
      </trkpt>
      <trkpt lat="54.375448" lon="9.686454">
        <ele>43.582429</ele>
        <time>2021-08-29T06:19:31.000Z</time>
      </trkpt>
      <trkpt lat="54.375428" lon="9.686432">
        <ele>43.512517</ele>
        <time>2021-08-29T06:19:34.000Z</time>
      </trkpt>
      <trkpt lat="54.375414" lon="9.686413">
        <ele>43.459991</ele>
        <time>2021-08-29T06:19:36.000Z</time>
      </trkpt>
      <trkpt lat="54.375361" lon="9.686363">
        <ele>43.281997</ele>
        <time>2021-08-29T06:19:43.000Z</time>
      </trkpt>
      <trkpt lat="54.375342" lon="9.686329">
        <ele>43.201220</ele>
        <time>2021-08-29T06:19:45.000Z</time>
      </trkpt>
      <trkpt lat="54.375301" lon="9.686243">
        <ele>43.010694</ele>
        <time>2021-08-29T06:19:50.000Z</time>
      </trkpt>
      <trkpt lat="54.375268" lon="9.686190">
        <ele>42.877691</ele>
        <time>2021-08-29T06:19:55.000Z</time>
      </trkpt>
      <trkpt lat="54.375280" lon="9.686172">
        <ele>42.830789</ele>
        <time>2021-08-29T06:19:58.000Z</time>
      </trkpt>
      <trkpt lat="54.375282" lon="9.686131">
        <ele>42.760253</ele>
        <time>2021-08-29T06:20:02.000Z</time>
      </trkpt>
      <trkpt lat="54.375286" lon="9.686117">
        <ele>42.733520</ele>
        <time>2021-08-29T06:20:03.000Z</time>
      </trkpt>
      <trkpt lat="54.375300" lon="9.686092">
        <ele>42.674065</ele>
        <time>2021-08-29T06:20:05.000Z</time>
      </trkpt>
      <trkpt lat="54.375330" lon="9.686020">
        <ele>42.522299</ele>
        <time>2021-08-29T06:20:11.000Z</time>
      </trkpt>
      <trkpt lat="54.375340" lon="9.685999">
        <ele>42.475797</ele>
        <time>2021-08-29T06:20:12.000Z</time>
      </trkpt>
      <trkpt lat="54.375393" lon="9.685848">
        <ele>42.173557</ele>
        <time>2021-08-29T06:20:19.000Z</time>
      </trkpt>
      <trkpt lat="54.375402" lon="9.685827">
        <ele>42.128860</ele>
        <time>2021-08-29T06:20:20.000Z</time>
      </trkpt>
      <trkpt lat="54.375412" lon="9.685806">
        <ele>42.082358</ele>
        <time>2021-08-29T06:20:21.000Z</time>
      </trkpt>
      <trkpt lat="54.375430" lon="9.685748">
        <ele>41.969691</ele>
        <time>2021-08-29T06:20:24.000Z</time>
      </trkpt>
      <trkpt lat="54.375434" lon="9.685733">
        <ele>41.941408</ele>
        <time>2021-08-29T06:20:25.000Z</time>
      </trkpt>
      <trkpt lat="54.375506" lon="9.685641">
        <ele>41.677240</ele>
        <time>2021-08-29T06:20:30.000Z</time>
      </trkpt>
      <trkpt lat="54.375570" lon="9.685569">
        <ele>41.452030</ele>
        <time>2021-08-29T06:20:34.000Z</time>
      </trkpt>
      <trkpt lat="54.375624" lon="9.685495">
        <ele>41.248670</ele>
        <time>2021-08-29T06:20:38.000Z</time>
      </trkpt>
      <trkpt lat="54.375648" lon="9.685457">
        <ele>41.152577</ele>
        <time>2021-08-29T06:20:40.000Z</time>
      </trkpt>
      <trkpt lat="54.375678" lon="9.685429">
        <ele>41.052074</ele>
        <time>2021-08-29T06:20:42.000Z</time>
      </trkpt>
      <trkpt lat="54.375685" lon="9.685418">
        <ele>41.024143</ele>
        <time>2021-08-29T06:20:43.000Z</time>
      </trkpt>
      <trkpt lat="54.375702" lon="9.685399">
        <ele>40.964439</ele>
        <time>2021-08-29T06:20:44.000Z</time>
      </trkpt>
      <trkpt lat="54.375754" lon="9.685307">
        <ele>40.744665</ele>
        <time>2021-08-29T06:20:49.000Z</time>
      </trkpt>
      <trkpt lat="54.375818" lon="9.685227">
        <ele>40.515122</ele>
        <time>2021-08-29T06:20:54.000Z</time>
      </trkpt>
      <trkpt lat="54.375824" lon="9.685215">
        <ele>40.508578</ele>
        <time>2021-08-29T06:20:55.000Z</time>
      </trkpt>
      <trkpt lat="54.375875" lon="9.685170">
        <ele>40.467843</ele>
        <time>2021-08-29T06:20:59.000Z</time>
      </trkpt>
      <trkpt lat="54.375900" lon="9.685147">
        <ele>40.447693</ele>
        <time>2021-08-29T06:21:01.000Z</time>
      </trkpt>
      <trkpt lat="54.375916" lon="9.685139">
        <ele>40.435855</ele>
        <time>2021-08-29T06:21:02.000Z</time>
      </trkpt>
      <trkpt lat="54.375943" lon="9.685118">
        <ele>40.414797</ele>
        <time>2021-08-29T06:21:04.000Z</time>
      </trkpt>
      <trkpt lat="54.375999" lon="9.685056">
        <ele>40.367460</ele>
        <time>2021-08-29T06:21:10.000Z</time>
      </trkpt>
      <trkpt lat="54.376007" lon="9.685014">
        <ele>40.349176</ele>
        <time>2021-08-29T06:21:13.000Z</time>
      </trkpt>
      <trkpt lat="54.376012" lon="9.684978">
        <ele>40.333862</ele>
        <time>2021-08-29T06:21:15.000Z</time>
      </trkpt>
      <trkpt lat="54.376022" lon="9.684965">
        <ele>40.324951</ele>
        <time>2021-08-29T06:21:16.000Z</time>
      </trkpt>
      <trkpt lat="54.376028" lon="9.684949">
        <ele>40.317077</ele>
        <time>2021-08-29T06:21:17.000Z</time>
      </trkpt>
      <trkpt lat="54.376125" lon="9.684875">
        <ele>40.241671</ele>
        <time>2021-08-29T06:21:23.000Z</time>
      </trkpt>
      <trkpt lat="54.376268" lon="9.684748">
        <ele>40.127297</ele>
        <time>2021-08-29T06:21:29.000Z</time>
      </trkpt>
      <trkpt lat="54.376379" lon="9.684638">
        <ele>40.036248</ele>
        <time>2021-08-29T06:21:36.000Z</time>
      </trkpt>
      <trkpt lat="54.376494" lon="9.684508">
        <ele>39.938433</ele>
        <time>2021-08-29T06:21:45.000Z</time>
      </trkpt>
      <trkpt lat="54.376580" lon="9.684454">
        <ele>39.873381</ele>
        <time>2021-08-29T06:21:52.000Z</time>
      </trkpt>
      <trkpt lat="54.376644" lon="9.684379">
        <ele>39.818334</ele>
        <time>2021-08-29T06:21:59.000Z</time>
      </trkpt>
      <trkpt lat="54.376656" lon="9.684329">
        <ele>39.795958</ele>
        <time>2021-08-29T06:22:01.000Z</time>
      </trkpt>
      <trkpt lat="54.376687" lon="9.684235">
        <ele>39.751261</ele>
        <time>2021-08-29T06:22:05.000Z</time>
      </trkpt>
      <trkpt lat="54.376693" lon="9.684216">
        <ele>39.742318</ele>
        <time>2021-08-29T06:22:06.000Z</time>
      </trkpt>
      <trkpt lat="54.376738" lon="9.684132">
        <ele>39.695095</ele>
        <time>2021-08-29T06:22:11.000Z</time>
      </trkpt>
      <trkpt lat="54.376745" lon="9.684116">
        <ele>39.686815</ele>
        <time>2021-08-29T06:22:12.000Z</time>
      </trkpt>
      <trkpt lat="54.376767" lon="9.684102">
        <ele>39.670147</ele>
        <time>2021-08-29T06:22:13.000Z</time>
      </trkpt>
      <trkpt lat="54.376797" lon="9.684061">
        <ele>39.642907</ele>
        <time>2021-08-29T06:22:16.000Z</time>
      </trkpt>
      <trkpt lat="54.376838" lon="9.684040">
        <ele>39.612512</ele>
        <time>2021-08-29T06:22:18.000Z</time>
      </trkpt>
      <trkpt lat="54.376867" lon="9.684021">
        <ele>39.590461</ele>
        <time>2021-08-29T06:22:20.000Z</time>
      </trkpt>
      <trkpt lat="54.376894" lon="9.683990">
        <ele>39.567387</ele>
        <time>2021-08-29T06:22:22.000Z</time>
      </trkpt>
      <trkpt lat="54.376906" lon="9.683976">
        <ele>39.557080</ele>
        <time>2021-08-29T06:22:23.000Z</time>
      </trkpt>
      <trkpt lat="54.376953" lon="9.683951">
        <ele>39.522125</ele>
        <time>2021-08-29T06:22:26.000Z</time>
      </trkpt>
      <trkpt lat="54.376990" lon="9.683892">
        <ele>39.486252</ele>
        <time>2021-08-29T06:22:30.000Z</time>
      </trkpt>
      <trkpt lat="54.376995" lon="9.683872">
        <ele>39.477247</ele>
        <time>2021-08-29T06:22:31.000Z</time>
      </trkpt>
      <trkpt lat="54.377004" lon="9.683830">
        <ele>39.458729</ele>
        <time>2021-08-29T06:22:33.000Z</time>
      </trkpt>
      <trkpt lat="54.377018" lon="9.683813">
        <ele>39.446548</ele>
        <time>2021-08-29T06:22:34.000Z</time>
      </trkpt>
      <trkpt lat="54.377048" lon="9.683745">
        <ele>39.411251</ele>
        <time>2021-08-29T06:22:38.000Z</time>
      </trkpt>
      <trkpt lat="54.377079" lon="9.683698">
        <ele>39.381871</ele>
        <time>2021-08-29T06:22:42.000Z</time>
      </trkpt>
      <trkpt lat="54.377105" lon="9.683682">
        <ele>39.362250</ele>
        <time>2021-08-29T06:22:45.000Z</time>
      </trkpt>
      <trkpt lat="54.377135" lon="9.683658">
        <ele>39.338737</ele>
        <time>2021-08-29T06:22:48.000Z</time>
      </trkpt>
      <trkpt lat="54.377156" lon="9.683636">
        <ele>39.321261</ele>
        <time>2021-08-29T06:22:50.000Z</time>
      </trkpt>
      <trkpt lat="54.377193" lon="9.683595">
        <ele>39.289977</ele>
        <time>2021-08-29T06:22:53.000Z</time>
      </trkpt>
      <trkpt lat="54.377312" lon="9.683474">
        <ele>39.007189</ele>
        <time>2021-08-29T06:23:00.000Z</time>
      </trkpt>
      <trkpt lat="54.377344" lon="9.683454">
        <ele>38.887479</ele>
        <time>2021-08-29T06:23:02.000Z</time>
      </trkpt>
      <trkpt lat="54.377369" lon="9.683419">
        <ele>38.774084</ele>
        <time>2021-08-29T06:23:04.000Z</time>
      </trkpt>
      <trkpt lat="54.377381" lon="9.683395">
        <ele>38.709323</ele>
        <time>2021-08-29T06:23:05.000Z</time>
      </trkpt>
      <trkpt lat="54.377386" lon="9.683367">
        <ele>38.649361</ele>
        <time>2021-08-29T06:23:06.000Z</time>
      </trkpt>
      <trkpt lat="54.377394" lon="9.683324">
        <ele>38.556938</ele>
        <time>2021-08-29T06:23:08.000Z</time>
      </trkpt>
      <trkpt lat="54.377395" lon="9.683313">
        <ele>38.534144</ele>
        <time>2021-08-29T06:23:09.000Z</time>
      </trkpt>
      <trkpt lat="54.377409" lon="9.683269">
        <ele>38.431490</ele>
        <time>2021-08-29T06:23:13.000Z</time>
      </trkpt>
      <trkpt lat="54.377437" lon="9.683224">
        <ele>38.296669</ele>
        <time>2021-08-29T06:23:17.000Z</time>
      </trkpt>
      <trkpt lat="54.377483" lon="9.683201">
        <ele>38.128249</ele>
        <time>2021-08-29T06:23:21.000Z</time>
      </trkpt>
      <trkpt lat="54.377517" lon="9.683185">
        <ele>38.004322</ele>
        <time>2021-08-29T06:23:24.000Z</time>
      </trkpt>
      <trkpt lat="54.377585" lon="9.683131">
        <ele>37.740953</ele>
        <time>2021-08-29T06:23:28.000Z</time>
      </trkpt>
      <trkpt lat="54.377613" lon="9.683130">
        <ele>37.642505</ele>
        <time>2021-08-29T06:23:29.000Z</time>
      </trkpt>
      <trkpt lat="54.377715" lon="9.683057">
        <ele>37.254044</ele>
        <time>2021-08-29T06:23:36.000Z</time>
      </trkpt>
      <trkpt lat="54.377738" lon="9.683048">
        <ele>37.171119</ele>
        <time>2021-08-29T06:23:37.000Z</time>
      </trkpt>
      <trkpt lat="54.377751" lon="9.683030">
        <ele>37.112412</ele>
        <time>2021-08-29T06:23:38.000Z</time>
      </trkpt>
      <trkpt lat="54.377795" lon="9.682970">
        <ele>36.914892</ele>
        <time>2021-08-29T06:23:42.000Z</time>
      </trkpt>
      <trkpt lat="54.377934" lon="9.682888">
        <ele>36.398232</ele>
        <time>2021-08-29T06:23:49.000Z</time>
      </trkpt>
      <trkpt lat="54.378025" lon="9.682860">
        <ele>36.073246</ele>
        <time>2021-08-29T06:23:55.000Z</time>
      </trkpt>
      <trkpt lat="54.378084" lon="9.682832">
        <ele>35.858069</ele>
        <time>2021-08-29T06:24:01.000Z</time>
      </trkpt>
      <trkpt lat="54.378094" lon="9.682826">
        <ele>35.820831</ele>
        <time>2021-08-29T06:24:02.000Z</time>
      </trkpt>
      <trkpt lat="54.378129" lon="9.682807">
        <ele>35.691794</ele>
        <time>2021-08-29T06:24:06.000Z</time>
      </trkpt>
      <trkpt lat="54.378142" lon="9.682793">
        <ele>35.637850</ele>
        <time>2021-08-29T06:24:08.000Z</time>
      </trkpt>
      <trkpt lat="54.378177" lon="9.682778">
        <ele>35.511040</ele>
        <time>2021-08-29T06:24:12.000Z</time>
      </trkpt>
      <trkpt lat="54.378207" lon="9.682764">
        <ele>35.401756</ele>
        <time>2021-08-29T06:24:15.000Z</time>
      </trkpt>
      <trkpt lat="54.378239" lon="9.682739">
        <ele>35.278170</ele>
        <time>2021-08-29T06:24:17.000Z</time>
      </trkpt>
      <trkpt lat="54.378286" lon="9.682702">
        <ele>35.096414</ele>
        <time>2021-08-29T06:24:20.000Z</time>
      </trkpt>
      <trkpt lat="54.378301" lon="9.682683">
        <ele>35.030888</ele>
        <time>2021-08-29T06:24:22.000Z</time>
      </trkpt>
      <trkpt lat="54.378311" lon="9.682675">
        <ele>34.992107</ele>
        <time>2021-08-29T06:24:23.000Z</time>
      </trkpt>
      <trkpt lat="54.378337" lon="9.682632">
        <ele>34.865205</ele>
        <time>2021-08-29T06:24:26.000Z</time>
      </trkpt>
      <trkpt lat="54.378345" lon="9.682620">
        <ele>34.827862</ele>
        <time>2021-08-29T06:24:27.000Z</time>
      </trkpt>
      <trkpt lat="54.378352" lon="9.682582">
        <ele>34.746263</ele>
        <time>2021-08-29T06:24:29.000Z</time>
      </trkpt>
      <trkpt lat="54.378356" lon="9.682561">
        <ele>34.701027</ele>
        <time>2021-08-29T06:24:30.000Z</time>
      </trkpt>
      <trkpt lat="54.378365" lon="9.682429">
        <ele>34.428925</ele>
        <time>2021-08-29T06:24:35.000Z</time>
      </trkpt>
      <trkpt lat="54.378364" lon="9.682405">
        <ele>34.379662</ele>
        <time>2021-08-29T06:24:36.000Z</time>
      </trkpt>
      <trkpt lat="54.378355" lon="9.682306">
        <ele>34.174515</ele>
        <time>2021-08-29T06:24:41.000Z</time>
      </trkpt>
      <trkpt lat="54.378359" lon="9.682289">
        <ele>34.136977</ele>
        <time>2021-08-29T06:24:42.000Z</time>
      </trkpt>
      <trkpt lat="54.378361" lon="9.682262">
        <ele>34.081252</ele>
        <time>2021-08-29T06:24:43.000Z</time>
      </trkpt>
      <trkpt lat="54.378358" lon="9.682231">
        <ele>34.016912</ele>
        <time>2021-08-29T06:24:44.000Z</time>
      </trkpt>
      <trkpt lat="54.378365" lon="9.682162">
        <ele>33.873515</ele>
        <time>2021-08-29T06:24:47.000Z</time>
      </trkpt>
      <trkpt lat="54.378364" lon="9.682015">
        <ele>33.572528</ele>
        <time>2021-08-29T06:24:51.000Z</time>
      </trkpt>
      <trkpt lat="54.378354" lon="9.681808">
        <ele>33.147261</ele>
        <time>2021-08-29T06:24:58.000Z</time>
      </trkpt>
      <trkpt lat="54.378357" lon="9.681772">
        <ele>33.072804</ele>
        <time>2021-08-29T06:24:59.000Z</time>
      </trkpt>
      <trkpt lat="54.378364" lon="9.681700">
        <ele>32.923352</ele>
        <time>2021-08-29T06:25:02.000Z</time>
      </trkpt>
      <trkpt lat="54.378366" lon="9.681572">
        <ele>32.395254</ele>
        <time>2021-08-29T06:25:07.000Z</time>
      </trkpt>
      <trkpt lat="54.378366" lon="9.681418">
        <ele>31.750573</ele>
        <time>2021-08-29T06:25:14.000Z</time>
      </trkpt>
      <trkpt lat="54.378368" lon="9.681400">
        <ele>31.673861</ele>
        <time>2021-08-29T06:25:15.000Z</time>
      </trkpt>
      <trkpt lat="54.378364" lon="9.681311">
        <ele>31.300178</ele>
        <time>2021-08-29T06:25:18.000Z</time>
      </trkpt>
      <trkpt lat="54.378364" lon="9.681295">
        <ele>31.233198</ele>
        <time>2021-08-29T06:25:20.000Z</time>
      </trkpt>
      <trkpt lat="54.378367" lon="9.681290">
        <ele>31.203147</ele>
        <time>2021-08-29T06:25:21.000Z</time>
      </trkpt>
      <trkpt lat="54.378374" lon="9.681287">
        <ele>31.151291</ele>
        <time>2021-08-29T06:25:25.000Z</time>
      </trkpt>
      <trkpt lat="54.378380" lon="9.681273">
        <ele>31.078527</ele>
        <time>2021-08-29T06:25:27.000Z</time>
      </trkpt>
      <trkpt lat="54.378388" lon="9.681199">
        <ele>30.763454</ele>
        <time>2021-08-29T06:25:31.000Z</time>
      </trkpt>
      <trkpt lat="54.378395" lon="9.681156">
        <ele>30.576547</ele>
        <time>2021-08-29T06:25:33.000Z</time>
      </trkpt>
      <trkpt lat="54.378432" lon="9.681026">
        <ele>29.970833</ele>
        <time>2021-08-29T06:25:38.000Z</time>
      </trkpt>
      <trkpt lat="54.378456" lon="9.680902">
        <ele>29.423828</ele>
        <time>2021-08-29T06:25:44.000Z</time>
      </trkpt>
      <trkpt lat="54.378451" lon="9.680867">
        <ele>29.272967</ele>
        <time>2021-08-29T06:25:45.000Z</time>
      </trkpt>
      <trkpt lat="54.378455" lon="9.680817">
        <ele>29.061690</ele>
        <time>2021-08-29T06:25:47.000Z</time>
      </trkpt>
      <trkpt lat="54.378466" lon="9.680771">
        <ele>28.853525</ele>
        <time>2021-08-29T06:25:49.000Z</time>
      </trkpt>
      <trkpt lat="54.378472" lon="9.680748">
        <ele>28.748025</ele>
        <time>2021-08-29T06:25:50.000Z</time>
      </trkpt>
      <trkpt lat="54.378502" lon="9.680659">
        <ele>28.317553</ele>
        <time>2021-08-29T06:25:54.000Z</time>
      </trkpt>
      <trkpt lat="54.378512" lon="9.680643">
        <ele>28.219306</ele>
        <time>2021-08-29T06:25:55.000Z</time>
      </trkpt>
      <trkpt lat="54.378571" lon="9.680607">
        <ele>27.769259</ele>
        <time>2021-08-29T06:25:59.000Z</time>
      </trkpt>
      <trkpt lat="54.378646" lon="9.680559">
        <ele>27.193960</ele>
        <time>2021-08-29T06:26:04.000Z</time>
      </trkpt>
      <trkpt lat="54.378689" lon="9.680543">
        <ele>26.877722</ele>
        <time>2021-08-29T06:26:07.000Z</time>
      </trkpt>
      <trkpt lat="54.378723" lon="9.680542">
        <ele>26.633309</ele>
        <time>2021-08-29T06:26:10.000Z</time>
      </trkpt>
      <trkpt lat="54.378772" lon="9.680564">
        <ele>26.269277</ele>
        <time>2021-08-29T06:26:15.000Z</time>
      </trkpt>
      <trkpt lat="54.378777" lon="9.680569">
        <ele>26.227688</ele>
        <time>2021-08-29T06:26:16.000Z</time>
      </trkpt>
      <trkpt lat="54.378783" lon="9.680581">
        <ele>26.161482</ele>
        <time>2021-08-29T06:26:17.000Z</time>
      </trkpt>
      <trkpt lat="54.378822" lon="9.680620">
        <ele>25.837090</ele>
        <time>2021-08-29T06:26:22.000Z</time>
      </trkpt>
      <trkpt lat="54.378841" lon="9.680648">
        <ele>25.657122</ele>
        <time>2021-08-29T06:26:25.000Z</time>
      </trkpt>
      <trkpt lat="54.378850" lon="9.680702">
        <ele>25.421994</ele>
        <time>2021-08-29T06:26:27.000Z</time>
      </trkpt>
      <trkpt lat="54.378851" lon="9.680714">
        <ele>25.371248</ele>
        <time>2021-08-29T06:26:28.000Z</time>
      </trkpt>
      <trkpt lat="54.378861" lon="9.680724">
        <ele>25.288070</ele>
        <time>2021-08-29T06:26:29.000Z</time>
      </trkpt>
      <trkpt lat="54.378882" lon="9.680748">
        <ele>25.106752</ele>
        <time>2021-08-29T06:26:32.000Z</time>
      </trkpt>
      <trkpt lat="54.378894" lon="9.680758">
        <ele>25.010879</ele>
        <time>2021-08-29T06:26:33.000Z</time>
      </trkpt>
      <trkpt lat="54.378913" lon="9.680783">
        <ele>24.838827</ele>
        <time>2021-08-29T06:26:35.000Z</time>
      </trkpt>
      <trkpt lat="54.378934" lon="9.680828">
        <ele>24.597437</ele>
        <time>2021-08-29T06:26:38.000Z</time>
      </trkpt>
      <trkpt lat="54.378983" lon="9.680922">
        <ele>24.069346</ele>
        <time>2021-08-29T06:26:44.000Z</time>
      </trkpt>
      <trkpt lat="54.378991" lon="9.680944">
        <ele>23.960774</ele>
        <time>2021-08-29T06:26:45.000Z</time>
      </trkpt>
      <trkpt lat="54.379030" lon="9.680994">
        <ele>23.610936</ele>
        <time>2021-08-29T06:26:48.000Z</time>
      </trkpt>
      <trkpt lat="54.379046" lon="9.681006">
        <ele>23.485443</ele>
        <time>2021-08-29T06:26:49.000Z</time>
      </trkpt>
      <trkpt lat="54.379093" lon="9.681038">
        <ele>23.122038</ele>
        <time>2021-08-29T06:26:52.000Z</time>
      </trkpt>
      <trkpt lat="54.379110" lon="9.681044">
        <ele>22.997295</ele>
        <time>2021-08-29T06:26:53.000Z</time>
      </trkpt>
      <trkpt lat="54.379142" lon="9.681062">
        <ele>22.755265</ele>
        <time>2021-08-29T06:26:55.000Z</time>
      </trkpt>
      <trkpt lat="54.379268" lon="9.681100">
        <ele>21.835770</ele>
        <time>2021-08-29T06:27:01.000Z</time>
      </trkpt>
      <trkpt lat="54.379297" lon="9.681103">
        <ele>21.626953</ele>
        <time>2021-08-29T06:27:03.000Z</time>
      </trkpt>
      <trkpt lat="54.379337" lon="9.681112">
        <ele>21.336993</ele>
        <time>2021-08-29T06:27:06.000Z</time>
      </trkpt>
      <trkpt lat="54.379363" lon="9.681118">
        <ele>21.148437</ele>
        <time>2021-08-29T06:27:08.000Z</time>
      </trkpt>
      <trkpt lat="54.379408" lon="9.681118">
        <ele>20.824997</ele>
        <time>2021-08-29T06:27:11.000Z</time>
      </trkpt>
      <trkpt lat="54.379462" lon="9.681119">
        <ele>20.436847</ele>
        <time>2021-08-29T06:27:16.000Z</time>
      </trkpt>
      <trkpt lat="54.379476" lon="9.681096">
        <ele>20.297579</ele>
        <time>2021-08-29T06:27:18.000Z</time>
      </trkpt>
      <trkpt lat="54.379502" lon="9.681082">
        <ele>20.101729</ele>
        <time>2021-08-29T06:27:21.000Z</time>
      </trkpt>
      <trkpt lat="54.379510" lon="9.681071">
        <ele>20.028063</ele>
        <time>2021-08-29T06:27:22.000Z</time>
      </trkpt>
      <trkpt lat="54.379518" lon="9.681055">
        <ele>19.963027</ele>
        <time>2021-08-29T06:27:23.000Z</time>
      </trkpt>
      <trkpt lat="54.379535" lon="9.681035">
        <ele>19.886403</ele>
        <time>2021-08-29T06:27:25.000Z</time>
      </trkpt>
      <trkpt lat="54.379542" lon="9.681022">
        <ele>19.848064</ele>
        <time>2021-08-29T06:27:26.000Z</time>
      </trkpt>
      <trkpt lat="54.379548" lon="9.680991">
        <ele>19.777323</ele>
        <time>2021-08-29T06:27:28.000Z</time>
      </trkpt>
      <trkpt lat="54.379552" lon="9.680978">
        <ele>19.745484</ele>
        <time>2021-08-29T06:27:30.000Z</time>
      </trkpt>
      <trkpt lat="54.379589" lon="9.680967">
        <ele>19.605864</ele>
        <time>2021-08-29T06:27:34.000Z</time>
      </trkpt>
      <trkpt lat="54.379602" lon="9.680966">
        <ele>19.557479</ele>
        <time>2021-08-29T06:27:35.000Z</time>
      </trkpt>
      <trkpt lat="54.379616" lon="9.680965">
        <ele>19.505379</ele>
        <time>2021-08-29T06:27:36.000Z</time>
      </trkpt>
      <trkpt lat="54.379672" lon="9.681012">
        <ele>19.273616</ele>
        <time>2021-08-29T06:27:40.000Z</time>
      </trkpt>
      <trkpt lat="54.379689" lon="9.681024">
        <ele>19.205274</ele>
        <time>2021-08-29T06:27:41.000Z</time>
      </trkpt>
      <trkpt lat="54.379712" lon="9.681026">
        <ele>19.119646</ele>
        <time>2021-08-29T06:27:42.000Z</time>
      </trkpt>
      <trkpt lat="54.379742" lon="9.681029">
        <ele>19.007911</ele>
        <time>2021-08-29T06:27:44.000Z</time>
      </trkpt>
      <trkpt lat="54.379751" lon="9.681031">
        <ele>18.974169</ele>
        <time>2021-08-29T06:27:46.000Z</time>
      </trkpt>
      <trkpt lat="54.379829" lon="9.681019">
        <ele>18.682988</ele>
        <time>2021-08-29T06:27:49.000Z</time>
      </trkpt>
      <trkpt lat="54.379885" lon="9.681029">
        <ele>18.473647</ele>
        <time>2021-08-29T06:27:52.000Z</time>
      </trkpt>
      <trkpt lat="54.379943" lon="9.681048">
        <ele>18.254102</ele>
        <time>2021-08-29T06:27:56.000Z</time>
      </trkpt>
      <trkpt lat="54.379986" lon="9.681023">
        <ele>18.085303</ele>
        <time>2021-08-29T06:28:00.000Z</time>
      </trkpt>
      <trkpt lat="54.379994" lon="9.680974">
        <ele>17.975103</ele>
        <time>2021-08-29T06:28:02.000Z</time>
      </trkpt>
      <trkpt lat="54.380034" lon="9.680909">
        <ele>17.770329</ele>
        <time>2021-08-29T06:28:06.000Z</time>
      </trkpt>
      <trkpt lat="54.380031" lon="9.680897">
        <ele>17.742050</ele>
        <time>2021-08-29T06:28:07.000Z</time>
      </trkpt>
      <trkpt lat="54.380016" lon="9.680877">
        <ele>17.671436</ele>
        <time>2021-08-29T06:28:09.000Z</time>
      </trkpt>
      <trkpt lat="54.380012" lon="9.680867">
        <ele>17.645165</ele>
        <time>2021-08-29T06:28:10.000Z</time>
      </trkpt>
      <trkpt lat="54.380011" lon="9.680851">
        <ele>17.610318</ele>
        <time>2021-08-29T06:28:11.000Z</time>
      </trkpt>
      <trkpt lat="54.379960" lon="9.680767">
        <ele>17.347551</ele>
        <time>2021-08-29T06:28:17.000Z</time>
      </trkpt>
      <trkpt lat="54.379929" lon="9.680738">
        <ele>17.216289</ele>
        <time>2021-08-29T06:28:20.000Z</time>
      </trkpt>
      <trkpt lat="54.379913" lon="9.680702">
        <ele>17.118225</ele>
        <time>2021-08-29T06:28:22.000Z</time>
      </trkpt>
      <trkpt lat="54.379902" lon="9.680684">
        <ele>17.061726</ele>
        <time>2021-08-29T06:28:23.000Z</time>
      </trkpt>
      <trkpt lat="54.379878" lon="9.680639">
        <ele>16.929592</ele>
        <time>2021-08-29T06:28:25.000Z</time>
      </trkpt>
      <trkpt lat="54.379856" lon="9.680596">
        <ele>16.805649</ele>
        <time>2021-08-29T06:28:28.000Z</time>
      </trkpt>
      <trkpt lat="54.379850" lon="9.680580">
        <ele>16.764440</ele>
        <time>2021-08-29T06:28:29.000Z</time>
      </trkpt>
      <trkpt lat="54.379845" lon="9.680557">
        <ele>16.711277</ele>
        <time>2021-08-29T06:28:30.000Z</time>
      </trkpt>
      <trkpt lat="54.379838" lon="9.680504">
        <ele>16.593591</ele>
        <time>2021-08-29T06:28:34.000Z</time>
      </trkpt>
      <trkpt lat="54.379839" lon="9.680495">
        <ele>16.573750</ele>
        <time>2021-08-29T06:28:36.000Z</time>
      </trkpt>
      <trkpt lat="54.379799" lon="9.680458">
        <ele>16.404813</ele>
        <time>2021-08-29T06:28:42.000Z</time>
      </trkpt>
      <trkpt lat="54.379753" lon="9.680407">
        <ele>16.201218</ele>
        <time>2021-08-29T06:28:48.000Z</time>
      </trkpt>
      <trkpt lat="54.379740" lon="9.680375">
        <ele>16.116729</ele>
        <time>2021-08-29T06:28:50.000Z</time>
      </trkpt>
      <trkpt lat="54.379727" lon="9.680344">
        <ele>16.034007</ele>
        <time>2021-08-29T06:28:52.000Z</time>
      </trkpt>
      <trkpt lat="54.379712" lon="9.680279">
        <ele>15.882602</ele>
        <time>2021-08-29T06:28:55.000Z</time>
      </trkpt>
      <trkpt lat="54.379708" lon="9.680253">
        <ele>15.824367</ele>
        <time>2021-08-29T06:28:57.000Z</time>
      </trkpt>
      <trkpt lat="54.379710" lon="9.680194">
        <ele>15.696386</ele>
        <time>2021-08-29T06:29:01.000Z</time>
      </trkpt>
      <trkpt lat="54.379706" lon="9.680153">
        <ele>15.606363</ele>
        <time>2021-08-29T06:29:03.000Z</time>
      </trkpt>
      <trkpt lat="54.379701" lon="9.680128">
        <ele>15.549122</ele>
        <time>2021-08-29T06:29:04.000Z</time>
      </trkpt>
      <trkpt lat="54.379681" lon="9.680034">
        <ele>15.332405</ele>
        <time>2021-08-29T06:29:08.000Z</time>
      </trkpt>
      <trkpt lat="54.379677" lon="9.679993">
        <ele>15.242382</ele>
        <time>2021-08-29T06:29:10.000Z</time>
      </trkpt>
      <trkpt lat="54.379675" lon="9.679970">
        <ele>15.192023</ele>
        <time>2021-08-29T06:29:11.000Z</time>
      </trkpt>
      <trkpt lat="54.379676" lon="9.679925">
        <ele>15.094504</ele>
        <time>2021-08-29T06:29:13.000Z</time>
      </trkpt>
      <trkpt lat="54.379678" lon="9.679881">
        <ele>14.998932</ele>
        <time>2021-08-29T06:29:15.000Z</time>
      </trkpt>
      <trkpt lat="54.379679" lon="9.679850">
        <ele>14.931698</ele>
        <time>2021-08-29T06:29:17.000Z</time>
      </trkpt>
      <trkpt lat="54.379670" lon="9.679727">
        <ele>14.663246</ele>
        <time>2021-08-29T06:29:21.000Z</time>
      </trkpt>
      <trkpt lat="54.379666" lon="9.679688">
        <ele>14.577491</ele>
        <time>2021-08-29T06:29:22.000Z</time>
      </trkpt>
      <trkpt lat="54.379669" lon="9.679521">
        <ele>14.215678</ele>
        <time>2021-08-29T06:29:28.000Z</time>
      </trkpt>
      <trkpt lat="54.379682" lon="9.679471">
        <ele>14.097103</ele>
        <time>2021-08-29T06:29:31.000Z</time>
      </trkpt>
      <trkpt lat="54.379682" lon="9.679387">
        <ele>13.915200</ele>
        <time>2021-08-29T06:29:34.000Z</time>
      </trkpt>
      <trkpt lat="54.379680" lon="9.679333">
        <ele>13.798026</ele>
        <time>2021-08-29T06:29:37.000Z</time>
      </trkpt>
      <trkpt lat="54.379682" lon="9.679322">
        <ele>13.773072</ele>
        <time>2021-08-29T06:29:38.000Z</time>
      </trkpt>
      <trkpt lat="54.379661" lon="9.679194">
        <ele>13.485098</ele>
        <time>2021-08-29T06:29:42.000Z</time>
      </trkpt>
      <trkpt lat="54.379653" lon="9.679141">
        <ele>13.366534</ele>
        <time>2021-08-29T06:29:44.000Z</time>
      </trkpt>
      <trkpt lat="54.379654" lon="9.679090">
        <ele>13.294558</ele>
        <time>2021-08-29T06:29:46.000Z</time>
      </trkpt>
      <trkpt lat="54.379651" lon="9.679022">
        <ele>13.275580</ele>
        <time>2021-08-29T06:29:48.000Z</time>
      </trkpt>
      <trkpt lat="54.379656" lon="9.678981">
        <ele>13.263922</ele>
        <time>2021-08-29T06:29:50.000Z</time>
      </trkpt>
      <trkpt lat="54.379652" lon="9.678804">
        <ele>13.214627</ele>
        <time>2021-08-29T06:29:56.000Z</time>
      </trkpt>
      <trkpt lat="54.379652" lon="9.678791">
        <ele>13.211009</ele>
        <time>2021-08-29T06:29:57.000Z</time>
      </trkpt>
      <trkpt lat="54.379656" lon="9.678721">
        <ele>13.191435</ele>
        <time>2021-08-29T06:30:01.000Z</time>
      </trkpt>
      <trkpt lat="54.379658" lon="9.678699">
        <ele>13.185239</ele>
        <time>2021-08-29T06:30:02.000Z</time>
      </trkpt>
      <trkpt lat="54.379727" lon="9.678538">
        <ele>13.129610</ele>
        <time>2021-08-29T06:30:09.000Z</time>
      </trkpt>
      <trkpt lat="54.379771" lon="9.678369">
        <ele>13.078093</ele>
        <time>2021-08-29T06:30:15.000Z</time>
      </trkpt>
      <trkpt lat="54.379760" lon="9.678311">
        <ele>13.061118</ele>
        <time>2021-08-29T06:30:16.000Z</time>
      </trkpt>
      <trkpt lat="54.379759" lon="9.678250">
        <ele>13.044135</ele>
        <time>2021-08-29T06:30:18.000Z</time>
      </trkpt>
      <trkpt lat="54.379762" lon="9.678167">
        <ele>13.020992</ele>
        <time>2021-08-29T06:30:21.000Z</time>
      </trkpt>
      <trkpt lat="54.379767" lon="9.678113">
        <ele>13.005776</ele>
        <time>2021-08-29T06:30:23.000Z</time>
      </trkpt>
      <trkpt lat="54.379780" lon="9.677994">
        <ele>12.972081</ele>
        <time>2021-08-29T06:30:27.000Z</time>
      </trkpt>
      <trkpt lat="54.379761" lon="9.677885">
        <ele>12.940418</ele>
        <time>2021-08-29T06:30:29.000Z</time>
      </trkpt>
      <trkpt lat="54.379768" lon="9.677809">
        <ele>12.919005</ele>
        <time>2021-08-29T06:30:33.000Z</time>
      </trkpt>
      <trkpt lat="54.379724" lon="9.677637">
        <ele>12.866724</ele>
        <time>2021-08-29T06:30:40.000Z</time>
      </trkpt>
      <trkpt lat="54.379706" lon="9.677571">
        <ele>12.846443</ele>
        <time>2021-08-29T06:30:43.000Z</time>
      </trkpt>
      <trkpt lat="54.379688" lon="9.677517">
        <ele>12.829128</ele>
        <time>2021-08-29T06:30:45.000Z</time>
      </trkpt>
      <trkpt lat="54.379665" lon="9.677462">
        <ele>12.810285</ele>
        <time>2021-08-29T06:30:47.000Z</time>
      </trkpt>
      <trkpt lat="54.379650" lon="9.677441">
        <ele>12.801037</ele>
        <time>2021-08-29T06:30:48.000Z</time>
      </trkpt>
      <trkpt lat="54.379592" lon="9.677344">
        <ele>12.762349</ele>
        <time>2021-08-29T06:30:51.000Z</time>
      </trkpt>
      <trkpt lat="54.379542" lon="9.677252">
        <ele>12.727330</ele>
        <time>2021-08-29T06:30:55.000Z</time>
      </trkpt>
      <trkpt lat="54.379522" lon="9.677229">
        <ele>12.715828</ele>
        <time>2021-08-29T06:30:57.000Z</time>
      </trkpt>
      <trkpt lat="54.379422" lon="9.677081">
        <ele>12.652743</ele>
        <time>2021-08-29T06:31:05.000Z</time>
      </trkpt>
      <trkpt lat="54.379400" lon="9.677044">
        <ele>12.638028</ele>
        <time>2021-08-29T06:31:07.000Z</time>
      </trkpt>
      <trkpt lat="54.379364" lon="9.677012">
        <ele>12.618658</ele>
        <time>2021-08-29T06:31:10.000Z</time>
      </trkpt>
      <trkpt lat="54.379306" lon="9.676964">
        <ele>12.587892</ele>
        <time>2021-08-29T06:31:13.000Z</time>
      </trkpt>
      <trkpt lat="54.379277" lon="9.676934">
        <ele>12.571714</ele>
        <time>2021-08-29T06:31:15.000Z</time>
      </trkpt>
      <trkpt lat="54.379245" lon="9.676888">
        <ele>12.551772</ele>
        <time>2021-08-29T06:31:18.000Z</time>
      </trkpt>
      <trkpt lat="54.379229" lon="9.676857">
        <ele>12.540245</ele>
        <time>2021-08-29T06:31:20.000Z</time>
      </trkpt>
      <trkpt lat="54.379222" lon="9.676832">
        <ele>12.532525</ele>
        <time>2021-08-29T06:31:21.000Z</time>
      </trkpt>
      <trkpt lat="54.379188" lon="9.676805">
        <ele>12.514625</ele>
        <time>2021-08-29T06:31:24.000Z</time>
      </trkpt>
      <trkpt lat="54.379180" lon="9.676799">
        <ele>12.510454</ele>
        <time>2021-08-29T06:31:25.000Z</time>
      </trkpt>
      <trkpt lat="54.379168" lon="9.676759">
        <ele>12.497932</ele>
        <time>2021-08-29T06:31:27.000Z</time>
      </trkpt>
      <trkpt lat="54.379160" lon="9.676738">
        <ele>12.490949</ele>
        <time>2021-08-29T06:31:28.000Z</time>
      </trkpt>
      <trkpt lat="54.379151" lon="9.676709">
        <ele>12.481804</ele>
        <time>2021-08-29T06:31:30.000Z</time>
      </trkpt>
      <trkpt lat="54.379102" lon="9.676648">
        <ele>12.452883</ele>
        <time>2021-08-29T06:31:35.000Z</time>
      </trkpt>
      <trkpt lat="54.379089" lon="9.676626">
        <ele>12.444162</ele>
        <time>2021-08-29T06:31:37.000Z</time>
      </trkpt>
      <trkpt lat="54.379015" lon="9.676562">
        <ele>12.288219</ele>
        <time>2021-08-29T06:31:41.000Z</time>
      </trkpt>
      <trkpt lat="54.378933" lon="9.676475">
        <ele>12.094218</ele>
        <time>2021-08-29T06:31:45.000Z</time>
      </trkpt>
      <trkpt lat="54.378852" lon="9.676363">
        <ele>11.884904</ele>
        <time>2021-08-29T06:31:51.000Z</time>
      </trkpt>
      <trkpt lat="54.378828" lon="9.676338">
        <ele>11.828406</ele>
        <time>2021-08-29T06:31:52.000Z</time>
      </trkpt>
      <trkpt lat="54.378749" lon="9.676245">
        <ele>11.635626</ele>
        <time>2021-08-29T06:31:56.000Z</time>
      </trkpt>
      <trkpt lat="54.378731" lon="9.676224">
        <ele>11.591827</ele>
        <time>2021-08-29T06:31:57.000Z</time>
      </trkpt>
      <trkpt lat="54.378701" lon="9.676194">
        <ele>11.521954</ele>
        <time>2021-08-29T06:31:59.000Z</time>
      </trkpt>
      <trkpt lat="54.378648" lon="9.676142">
        <ele>11.399097</ele>
        <time>2021-08-29T06:32:04.000Z</time>
      </trkpt>
      <trkpt lat="54.378633" lon="9.676123">
        <ele>11.361582</ele>
        <time>2021-08-29T06:32:05.000Z</time>
      </trkpt>
      <trkpt lat="54.378562" lon="9.676034">
        <ele>11.184654</ele>
        <time>2021-08-29T06:32:09.000Z</time>
      </trkpt>
      <trkpt lat="54.378525" lon="9.675984">
        <ele>11.089889</ele>
        <time>2021-08-29T06:32:11.000Z</time>
      </trkpt>
      <trkpt lat="54.378503" lon="9.675947">
        <ele>11.027908</ele>
        <time>2021-08-29T06:32:13.000Z</time>
      </trkpt>
      <trkpt lat="54.378431" lon="9.675861">
        <ele>10.851382</ele>
        <time>2021-08-29T06:32:19.000Z</time>
      </trkpt>
      <trkpt lat="54.378376" lon="9.675790">
        <ele>10.712891</ele>
        <time>2021-08-29T06:32:23.000Z</time>
      </trkpt>
      <trkpt lat="54.378356" lon="9.675761">
        <ele>10.660204</ele>
        <time>2021-08-29T06:32:25.000Z</time>
      </trkpt>
      <trkpt lat="54.378283" lon="9.675659">
        <ele>10.470779</ele>
        <time>2021-08-29T06:32:31.000Z</time>
      </trkpt>
      <trkpt lat="54.378268" lon="9.675644">
        <ele>10.435843</ele>
        <time>2021-08-29T06:32:32.000Z</time>
      </trkpt>
      <trkpt lat="54.378252" lon="9.675629">
        <ele>10.399153</ele>
        <time>2021-08-29T06:32:33.000Z</time>
      </trkpt>
      <trkpt lat="54.378210" lon="9.675585">
        <ele>10.300130</ele>
        <time>2021-08-29T06:32:37.000Z</time>
      </trkpt>
      <trkpt lat="54.378139" lon="9.675534">
        <ele>10.145232</ele>
        <time>2021-08-29T06:32:43.000Z</time>
      </trkpt>
      <trkpt lat="54.378109" lon="9.675514">
        <ele>10.080461</ele>
        <time>2021-08-29T06:32:45.000Z</time>
      </trkpt>
      <trkpt lat="54.378010" lon="9.675365">
        <ele>9.815496</ele>
        <time>2021-08-29T06:32:49.000Z</time>
      </trkpt>
      <trkpt lat="54.377999" lon="9.675314">
        <ele>9.751745</ele>
        <time>2021-08-29T06:32:52.000Z</time>
      </trkpt>
      <trkpt lat="54.377977" lon="9.675265">
        <ele>9.679221</ele>
        <time>2021-08-29T06:32:54.000Z</time>
      </trkpt>
      <trkpt lat="54.377955" lon="9.675198">
        <ele>9.589060</ele>
        <time>2021-08-29T06:32:57.000Z</time>
      </trkpt>
      <trkpt lat="54.377901" lon="9.675141">
        <ele>9.461482</ele>
        <time>2021-08-29T06:33:01.000Z</time>
      </trkpt>
      <trkpt lat="54.377834" lon="9.675020">
        <ele>9.265774</ele>
        <time>2021-08-29T06:33:07.000Z</time>
      </trkpt>
      <trkpt lat="54.377817" lon="9.674994">
        <ele>9.219953</ele>
        <time>2021-08-29T06:33:08.000Z</time>
      </trkpt>
      <trkpt lat="54.377802" lon="9.674968">
        <ele>9.177055</ele>
        <time>2021-08-29T06:33:09.000Z</time>
      </trkpt>
      <trkpt lat="54.377782" lon="9.674804">
        <ele>8.980640</ele>
        <time>2021-08-29T06:33:14.000Z</time>
      </trkpt>
      <trkpt lat="54.377741" lon="9.674569">
        <ele>8.778442</ele>
        <time>2021-08-29T06:33:22.000Z</time>
      </trkpt>
      <trkpt lat="54.377742" lon="9.674433">
        <ele>8.725566</ele>
        <time>2021-08-29T06:33:28.000Z</time>
      </trkpt>
      <trkpt lat="54.377823" lon="9.674400">
        <ele>8.669998</ele>
        <time>2021-08-29T06:33:33.000Z</time>
      </trkpt>
      <trkpt lat="54.377840" lon="9.674407">
        <ele>8.658330</ele>
        <time>2021-08-29T06:33:34.000Z</time>
      </trkpt>
      <trkpt lat="54.377857" lon="9.674414">
        <ele>8.646661</ele>
        <time>2021-08-29T06:33:35.000Z</time>
      </trkpt>
      <trkpt lat="54.377918" lon="9.674460">
        <ele>8.602190</ele>
        <time>2021-08-29T06:33:38.000Z</time>
      </trkpt>
      <trkpt lat="54.377941" lon="9.674477">
        <ele>8.585476</ele>
        <time>2021-08-29T06:33:39.000Z</time>
      </trkpt>
      <trkpt lat="54.377986" lon="9.674506">
        <ele>8.553393</ele>
        <time>2021-08-29T06:33:41.000Z</time>
      </trkpt>
      <trkpt lat="54.378028" lon="9.674493">
        <ele>8.524907</ele>
        <time>2021-08-29T06:33:44.000Z</time>
      </trkpt>
      <trkpt lat="54.378044" lon="9.674461">
        <ele>8.508512</ele>
        <time>2021-08-29T06:33:46.000Z</time>
      </trkpt>
      <trkpt lat="54.378090" lon="9.674425">
        <ele>8.474768</ele>
        <time>2021-08-29T06:33:50.000Z</time>
      </trkpt>
      <trkpt lat="54.378106" lon="9.674420">
        <ele>8.463913</ele>
        <time>2021-08-29T06:33:51.000Z</time>
      </trkpt>
      <trkpt lat="54.378198" lon="9.674356">
        <ele>8.397656</ele>
        <time>2021-08-29T06:33:56.000Z</time>
      </trkpt>
      <trkpt lat="54.378215" lon="9.674349">
        <ele>8.385987</ele>
        <time>2021-08-29T06:33:57.000Z</time>
      </trkpt>
      <trkpt lat="54.378244" lon="9.674360">
        <ele>8.366163</ele>
        <time>2021-08-29T06:33:58.000Z</time>
      </trkpt>
      <trkpt lat="54.378324" lon="9.674388">
        <ele>8.311667</ele>
        <time>2021-08-29T06:34:02.000Z</time>
      </trkpt>
      <trkpt lat="54.378353" lon="9.674382">
        <ele>8.292170</ele>
        <time>2021-08-29T06:34:04.000Z</time>
      </trkpt>
      <trkpt lat="54.378426" lon="9.674377">
        <ele>8.243405</ele>
        <time>2021-08-29T06:34:08.000Z</time>
      </trkpt>
      <trkpt lat="54.378474" lon="9.674358">
        <ele>8.210526</ele>
        <time>2021-08-29T06:34:11.000Z</time>
      </trkpt>
      <trkpt lat="54.378583" lon="9.674399">
        <ele>8.136045</ele>
        <time>2021-08-29T06:34:16.000Z</time>
      </trkpt>
      <trkpt lat="54.378676" lon="9.674443">
        <ele>8.071656</ele>
        <time>2021-08-29T06:34:21.000Z</time>
      </trkpt>
      <trkpt lat="54.378709" lon="9.674429">
        <ele>8.048966</ele>
        <time>2021-08-29T06:34:23.000Z</time>
      </trkpt>
      <trkpt lat="54.378801" lon="9.674448">
        <ele>7.987116</ele>
        <time>2021-08-29T06:34:27.000Z</time>
      </trkpt>
      <trkpt lat="54.378906" lon="9.674371">
        <ele>7.910905</ele>
        <time>2021-08-29T06:34:34.000Z</time>
      </trkpt>
      <trkpt lat="54.378960" lon="9.674232">
        <ele>7.845950</ele>
        <time>2021-08-29T06:34:40.000Z</time>
      </trkpt>
      <trkpt lat="54.378998" lon="9.674212">
        <ele>7.819421</ele>
        <time>2021-08-29T06:34:42.000Z</time>
      </trkpt>
      <trkpt lat="54.379013" lon="9.674195">
        <ele>7.807424</ele>
        <time>2021-08-29T06:34:43.000Z</time>
      </trkpt>
      <trkpt lat="54.379039" lon="9.674155">
        <ele>7.784122</ele>
        <time>2021-08-29T06:34:45.000Z</time>
      </trkpt>
      <trkpt lat="54.379062" lon="9.674118">
        <ele>7.763085</ele>
        <time>2021-08-29T06:34:47.000Z</time>
      </trkpt>
      <trkpt lat="54.379080" lon="9.674110">
        <ele>7.750674</ele>
        <time>2021-08-29T06:34:48.000Z</time>
      </trkpt>
      <trkpt lat="54.379135" lon="9.674092">
        <ele>7.713302</ele>
        <time>2021-08-29T06:34:51.000Z</time>
      </trkpt>
      <trkpt lat="54.379144" lon="9.674072">
        <ele>7.703476</ele>
        <time>2021-08-29T06:34:52.000Z</time>
      </trkpt>
      <trkpt lat="54.379177" lon="9.673984">
        <ele>7.662788</ele>
        <time>2021-08-29T06:34:55.000Z</time>
      </trkpt>
      <trkpt lat="54.379299" lon="9.673913">
        <ele>7.618855</ele>
        <time>2021-08-29T06:35:02.000Z</time>
      </trkpt>
      <trkpt lat="54.379368" lon="9.673809">
        <ele>7.616892</ele>
        <time>2021-08-29T06:35:07.000Z</time>
      </trkpt>
      <trkpt lat="54.379382" lon="9.673794">
        <ele>7.616539</ele>
        <time>2021-08-29T06:35:08.000Z</time>
      </trkpt>
      <trkpt lat="54.379437" lon="9.673784">
        <ele>7.615357</ele>
        <time>2021-08-29T06:35:11.000Z</time>
      </trkpt>
      <trkpt lat="54.379488" lon="9.673770">
        <ele>7.614253</ele>
        <time>2021-08-29T06:35:14.000Z</time>
      </trkpt>
      <trkpt lat="54.379545" lon="9.673743">
        <ele>7.612989</ele>
        <time>2021-08-29T06:35:18.000Z</time>
      </trkpt>
      <trkpt lat="54.379601" lon="9.673703">
        <ele>7.611692</ele>
        <time>2021-08-29T06:35:22.000Z</time>
      </trkpt>
      <trkpt lat="54.379615" lon="9.673700">
        <ele>7.611391</ele>
        <time>2021-08-29T06:35:23.000Z</time>
      </trkpt>
      <trkpt lat="54.379645" lon="9.673683">
        <ele>7.610716</ele>
        <time>2021-08-29T06:35:25.000Z</time>
      </trkpt>
      <trkpt lat="54.379727" lon="9.673637">
        <ele>7.608871</ele>
        <time>2021-08-29T06:35:30.000Z</time>
      </trkpt>
      <trkpt lat="54.379741" lon="9.673626">
        <ele>7.608542</ele>
        <time>2021-08-29T06:35:31.000Z</time>
      </trkpt>
      <trkpt lat="54.379882" lon="9.673534">
        <ele>7.605318</ele>
        <time>2021-08-29T06:35:40.000Z</time>
      </trkpt>
      <trkpt lat="54.380020" lon="9.673442">
        <ele>7.602154</ele>
        <time>2021-08-29T06:35:49.000Z</time>
      </trkpt>
      <trkpt lat="54.380102" lon="9.673385">
        <ele>7.600263</ele>
        <time>2021-08-29T06:35:54.000Z</time>
      </trkpt>
      <trkpt lat="54.380149" lon="9.673372">
        <ele>7.599245</ele>
        <time>2021-08-29T06:35:57.000Z</time>
      </trkpt>
      <trkpt lat="54.380181" lon="9.673368">
        <ele>7.598559</ele>
        <time>2021-08-29T06:35:59.000Z</time>
      </trkpt>
      <trkpt lat="54.380267" lon="9.673328">
        <ele>7.596654</ele>
        <time>2021-08-29T06:36:05.000Z</time>
      </trkpt>
      <trkpt lat="54.380390" lon="9.673262">
        <ele>7.593900</ele>
        <time>2021-08-29T06:36:13.000Z</time>
      </trkpt>
      <trkpt lat="54.380499" lon="9.673199">
        <ele>7.591441</ele>
        <time>2021-08-29T06:36:20.000Z</time>
      </trkpt>
      <trkpt lat="54.380515" lon="9.673191">
        <ele>7.591085</ele>
        <time>2021-08-29T06:36:21.000Z</time>
      </trkpt>
      <trkpt lat="54.380631" lon="9.673152">
        <ele>7.588558</ele>
        <time>2021-08-29T06:36:28.000Z</time>
      </trkpt>
      <trkpt lat="54.380757" lon="9.673077">
        <ele>7.585708</ele>
        <time>2021-08-29T06:36:36.000Z</time>
      </trkpt>
      <trkpt lat="54.380791" lon="9.673049">
        <ele>7.584902</ele>
        <time>2021-08-29T06:36:38.000Z</time>
      </trkpt>
      <trkpt lat="54.380822" lon="9.673028">
        <ele>7.584189</ele>
        <time>2021-08-29T06:36:40.000Z</time>
      </trkpt>
      <trkpt lat="54.380861" lon="9.672999">
        <ele>7.583281</ele>
        <time>2021-08-29T06:36:43.000Z</time>
      </trkpt>
      <trkpt lat="54.380925" lon="9.672915">
        <ele>7.578821</ele>
        <time>2021-08-29T06:36:49.000Z</time>
      </trkpt>
      <trkpt lat="54.380942" lon="9.672905">
        <ele>7.574033</ele>
        <time>2021-08-29T06:36:50.000Z</time>
      </trkpt>
      <trkpt lat="54.381074" lon="9.672844">
        <ele>7.537613</ele>
        <time>2021-08-29T06:36:58.000Z</time>
      </trkpt>
      <trkpt lat="54.381200" lon="9.672765">
        <ele>7.501876</ele>
        <time>2021-08-29T06:37:05.000Z</time>
      </trkpt>
      <trkpt lat="54.381341" lon="9.672684">
        <ele>7.462263</ele>
        <time>2021-08-29T06:37:13.000Z</time>
      </trkpt>
      <trkpt lat="54.381407" lon="9.672654">
        <ele>7.444073</ele>
        <time>2021-08-29T06:37:17.000Z</time>
      </trkpt>
      <trkpt lat="54.381454" lon="9.672634">
        <ele>7.431172</ele>
        <time>2021-08-29T06:37:20.000Z</time>
      </trkpt>
      <trkpt lat="54.381566" lon="9.672608">
        <ele>7.401061</ele>
        <time>2021-08-29T06:37:27.000Z</time>
      </trkpt>
      <trkpt lat="54.381594" lon="9.672595">
        <ele>7.393333</ele>
        <time>2021-08-29T06:37:29.000Z</time>
      </trkpt>
      <trkpt lat="54.381695" lon="9.672549">
        <ele>7.365493</ele>
        <time>2021-08-29T06:37:36.000Z</time>
      </trkpt>
      <trkpt lat="54.381729" lon="9.672531">
        <ele>7.356014</ele>
        <time>2021-08-29T06:37:38.000Z</time>
      </trkpt>
      <trkpt lat="54.381803" lon="9.672502">
        <ele>7.335791</ele>
        <time>2021-08-29T06:37:43.000Z</time>
      </trkpt>
      <trkpt lat="54.381913" lon="9.672426">
        <ele>7.304201</ele>
        <time>2021-08-29T06:37:51.000Z</time>
      </trkpt>
      <trkpt lat="54.381967" lon="9.672392">
        <ele>7.288877</ele>
        <time>2021-08-29T06:37:54.000Z</time>
      </trkpt>
      <trkpt lat="54.382073" lon="9.672333">
        <ele>7.259189</ele>
        <time>2021-08-29T06:38:00.000Z</time>
      </trkpt>
      <trkpt lat="54.382133" lon="9.672308">
        <ele>7.242740</ele>
        <time>2021-08-29T06:38:04.000Z</time>
      </trkpt>
      <trkpt lat="54.382159" lon="9.672293">
        <ele>7.235432</ele>
        <time>2021-08-29T06:38:06.000Z</time>
      </trkpt>
      <trkpt lat="54.382218" lon="9.672250">
        <ele>7.218356</ele>
        <time>2021-08-29T06:38:10.000Z</time>
      </trkpt>
      <trkpt lat="54.382261" lon="9.672226">
        <ele>7.206309</ele>
        <time>2021-08-29T06:38:13.000Z</time>
      </trkpt>
      <trkpt lat="54.382375" lon="9.672173">
        <ele>7.174843</ele>
        <time>2021-08-29T06:38:20.000Z</time>
      </trkpt>
      <trkpt lat="54.382453" lon="9.672118">
        <ele>7.152378</ele>
        <time>2021-08-29T06:38:25.000Z</time>
      </trkpt>
      <trkpt lat="54.382577" lon="9.672108">
        <ele>7.119304</ele>
        <time>2021-08-29T06:38:32.000Z</time>
      </trkpt>
      <trkpt lat="54.382595" lon="9.672107">
        <ele>7.114506</ele>
        <time>2021-08-29T06:38:33.000Z</time>
      </trkpt>
      <trkpt lat="54.382673" lon="9.672069">
        <ele>7.124608</ele>
        <time>2021-08-29T06:38:38.000Z</time>
      </trkpt>
      <trkpt lat="54.382684" lon="9.672076">
        <ele>7.131713</ele>
        <time>2021-08-29T06:38:39.000Z</time>
      </trkpt>
      <trkpt lat="54.382702" lon="9.672102">
        <ele>7.145958</ele>
        <time>2021-08-29T06:38:41.000Z</time>
      </trkpt>
      <trkpt lat="54.382711" lon="9.672153">
        <ele>7.164753</ele>
        <time>2021-08-29T06:38:44.000Z</time>
      </trkpt>
      <trkpt lat="54.382715" lon="9.672170">
        <ele>7.171219</ele>
        <time>2021-08-29T06:38:45.000Z</time>
      </trkpt>
      <trkpt lat="54.382712" lon="9.672268">
        <ele>7.205831</ele>
        <time>2021-08-29T06:38:51.000Z</time>
      </trkpt>
      <trkpt lat="54.382711" lon="9.672281">
        <ele>7.210455</ele>
        <time>2021-08-29T06:38:52.000Z</time>
      </trkpt>
      <trkpt lat="54.382709" lon="9.672385">
        <ele>7.247155</ele>
        <time>2021-08-29T06:38:58.000Z</time>
      </trkpt>
      <trkpt lat="54.382709" lon="9.672480">
        <ele>7.280661</ele>
        <time>2021-08-29T06:39:02.000Z</time>
      </trkpt>
      <trkpt lat="54.382709" lon="9.672573">
        <ele>7.313461</ele>
        <time>2021-08-29T06:39:06.000Z</time>
      </trkpt>
      <trkpt lat="54.382704" lon="9.672682">
        <ele>7.352023</ele>
        <time>2021-08-29T06:39:11.000Z</time>
      </trkpt>
      <trkpt lat="54.382690" lon="9.672737">
        <ele>7.373193</ele>
        <time>2021-08-29T06:39:14.000Z</time>
      </trkpt>
      <trkpt lat="54.382697" lon="9.672953">
        <ele>7.449492</ele>
        <time>2021-08-29T06:39:22.000Z</time>
      </trkpt>
      <trkpt lat="54.382700" lon="9.673083">
        <ele>7.495378</ele>
        <time>2021-08-29T06:39:27.000Z</time>
      </trkpt>
      <trkpt lat="54.382702" lon="9.673114">
        <ele>7.506378</ele>
        <time>2021-08-29T06:39:28.000Z</time>
      </trkpt>
      <trkpt lat="54.382731" lon="9.673209">
        <ele>7.544208</ele>
        <time>2021-08-29T06:39:31.000Z</time>
      </trkpt>
      <trkpt lat="54.382758" lon="9.673278">
        <ele>7.573527</ele>
        <time>2021-08-29T06:39:33.000Z</time>
      </trkpt>
      <trkpt lat="54.382772" lon="9.673301">
        <ele>7.585261</ele>
        <time>2021-08-29T06:39:34.000Z</time>
      </trkpt>
      <trkpt lat="54.382866" lon="9.673301">
        <ele>7.642189</ele>
        <time>2021-08-29T06:39:40.000Z</time>
      </trkpt>
      <trkpt lat="54.382884" lon="9.673295">
        <ele>7.653293</ele>
        <time>2021-08-29T06:39:41.000Z</time>
      </trkpt>
      <trkpt lat="54.382963" lon="9.673290">
        <ele>7.701169</ele>
        <time>2021-08-29T06:39:45.000Z</time>
      </trkpt>
      <trkpt lat="54.383047" lon="9.673279">
        <ele>7.752188</ele>
        <time>2021-08-29T06:39:51.000Z</time>
      </trkpt>
      <trkpt lat="54.383128" lon="9.673284">
        <ele>7.801275</ele>
        <time>2021-08-29T06:39:57.000Z</time>
      </trkpt>
      <trkpt lat="54.383150" lon="9.673292">
        <ele>7.814894</ele>
        <time>2021-08-29T06:39:58.000Z</time>
      </trkpt>
      <trkpt lat="54.383239" lon="9.673305">
        <ele>7.868988</ele>
        <time>2021-08-29T06:40:03.000Z</time>
      </trkpt>
      <trkpt lat="54.383309" lon="9.673244">
        <ele>7.916528</ele>
        <time>2021-08-29T06:40:08.000Z</time>
      </trkpt>
      <trkpt lat="54.383379" lon="9.673178">
        <ele>7.964891</ele>
        <time>2021-08-29T06:40:13.000Z</time>
      </trkpt>
      <trkpt lat="54.383421" lon="9.673131">
        <ele>7.995251</ele>
        <time>2021-08-29T06:40:16.000Z</time>
      </trkpt>
      <trkpt lat="54.383437" lon="9.673128">
        <ele>8.004999</ele>
        <time>2021-08-29T06:40:18.000Z</time>
      </trkpt>
      <trkpt lat="54.383439" lon="9.673126">
        <ele>8.006400</ele>
        <time>2021-08-29T06:40:19.000Z</time>
      </trkpt>
      <trkpt lat="54.383435" lon="9.673112">
        <ele>8.011900</ele>
        <time>2021-08-29T06:40:21.000Z</time>
      </trkpt>
      <trkpt lat="54.383451" lon="9.673107">
        <ele>8.021749</ele>
        <time>2021-08-29T06:40:24.000Z</time>
      </trkpt>
      <trkpt lat="54.383466" lon="9.673117">
        <ele>8.031494</ele>
        <time>2021-08-29T06:40:26.000Z</time>
      </trkpt>
      <trkpt lat="54.383508" lon="9.673107">
        <ele>8.057173</ele>
        <time>2021-08-29T06:40:33.000Z</time>
      </trkpt>
      <trkpt lat="54.383563" lon="9.673101">
        <ele>8.090549</ele>
        <time>2021-08-29T06:40:37.000Z</time>
      </trkpt>
      <trkpt lat="54.383592" lon="9.673080">
        <ele>8.109609</ele>
        <time>2021-08-29T06:40:40.000Z</time>
      </trkpt>
      <trkpt lat="54.383600" lon="9.673079">
        <ele>8.114467</ele>
        <time>2021-08-29T06:40:43.000Z</time>
      </trkpt>
      <trkpt lat="54.383623" lon="9.673070">
        <ele>8.128753</ele>
        <time>2021-08-29T06:40:46.000Z</time>
      </trkpt>
      <trkpt lat="54.383706" lon="9.673118">
        <ele>8.181793</ele>
        <time>2021-08-29T06:40:51.000Z</time>
      </trkpt>
      <trkpt lat="54.383819" lon="9.673113">
        <ele>8.216796</ele>
        <time>2021-08-29T06:40:59.000Z</time>
      </trkpt>
      <trkpt lat="54.383900" lon="9.673137">
        <ele>8.238049</ele>
        <time>2021-08-29T06:41:06.000Z</time>
      </trkpt>
      <trkpt lat="54.383961" lon="9.673106">
        <ele>8.254496</ele>
        <time>2021-08-29T06:41:11.000Z</time>
      </trkpt>
      <trkpt lat="54.384068" lon="9.673042">
        <ele>8.283792</ele>
        <time>2021-08-29T06:41:18.000Z</time>
      </trkpt>
      <trkpt lat="54.384086" lon="9.673045">
        <ele>8.288467</ele>
        <time>2021-08-29T06:41:19.000Z</time>
      </trkpt>
      <trkpt lat="54.384108" lon="9.673038">
        <ele>8.294252</ele>
        <time>2021-08-29T06:41:21.000Z</time>
      </trkpt>
      <trkpt lat="54.384124" lon="9.673019">
        <ele>8.299282</ele>
        <time>2021-08-29T06:41:22.000Z</time>
      </trkpt>
      <trkpt lat="54.384141" lon="9.673011">
        <ele>8.303840</ele>
        <time>2021-08-29T06:41:23.000Z</time>
      </trkpt>
      <trkpt lat="54.384223" lon="9.672978">
        <ele>8.325615</ele>
        <time>2021-08-29T06:41:28.000Z</time>
      </trkpt>
      <trkpt lat="54.384244" lon="9.672959">
        <ele>8.331752</ele>
        <time>2021-08-29T06:41:30.000Z</time>
      </trkpt>
      <trkpt lat="54.384266" lon="9.672917">
        <ele>8.340258</ele>
        <time>2021-08-29T06:41:32.000Z</time>
      </trkpt>
      <trkpt lat="54.384327" lon="9.672893">
        <ele>8.356438</ele>
        <time>2021-08-29T06:41:35.000Z</time>
      </trkpt>
      <trkpt lat="54.384350" lon="9.672895">
        <ele>8.362393</ele>
        <time>2021-08-29T06:41:36.000Z</time>
      </trkpt>
      <trkpt lat="54.384485" lon="9.672891">
        <ele>8.397302</ele>
        <time>2021-08-29T06:41:43.000Z</time>
      </trkpt>
      <trkpt lat="54.384531" lon="9.672819">
        <ele>8.413395</ele>
        <time>2021-08-29T06:41:47.000Z</time>
      </trkpt>
      <trkpt lat="54.384548" lon="9.672812">
        <ele>8.417915</ele>
        <time>2021-08-29T06:41:48.000Z</time>
      </trkpt>
      <trkpt lat="54.384557" lon="9.672795">
        <ele>8.421374</ele>
        <time>2021-08-29T06:41:49.000Z</time>
      </trkpt>
      <trkpt lat="54.384660" lon="9.672735">
        <ele>8.449496</ele>
        <time>2021-08-29T06:41:57.000Z</time>
      </trkpt>
      <trkpt lat="54.384778" lon="9.672662">
        <ele>8.481924</ele>
        <time>2021-08-29T06:42:06.000Z</time>
      </trkpt>
      <trkpt lat="54.384886" lon="9.672545">
        <ele>8.514940</ele>
        <time>2021-08-29T06:42:13.000Z</time>
      </trkpt>
      <trkpt lat="54.384994" lon="9.672477">
        <ele>8.544681</ele>
        <time>2021-08-29T06:42:20.000Z</time>
      </trkpt>
      <trkpt lat="54.385004" lon="9.672369">
        <ele>8.561147</ele>
        <time>2021-08-29T06:42:23.000Z</time>
      </trkpt>
      <trkpt lat="54.385055" lon="9.672298">
        <ele>8.578122</ele>
        <time>2021-08-29T06:42:27.000Z</time>
      </trkpt>
      <trkpt lat="54.385071" lon="9.672278">
        <ele>8.583238</ele>
        <time>2021-08-29T06:42:28.000Z</time>
      </trkpt>
      <trkpt lat="54.385140" lon="9.672262">
        <ele>8.601240</ele>
        <time>2021-08-29T06:42:32.000Z</time>
      </trkpt>
      <trkpt lat="54.385251" lon="9.672221">
        <ele>8.630596</ele>
        <time>2021-08-29T06:42:39.000Z</time>
      </trkpt>
      <trkpt lat="54.385336" lon="9.672234">
        <ele>8.652660</ele>
        <time>2021-08-29T06:42:44.000Z</time>
      </trkpt>
      <trkpt lat="54.385427" lon="9.672219">
        <ele>8.665782</ele>
        <time>2021-08-29T06:42:49.000Z</time>
      </trkpt>
      <trkpt lat="54.385454" lon="9.672219">
        <ele>8.668976</ele>
        <time>2021-08-29T06:42:51.000Z</time>
      </trkpt>
      <trkpt lat="54.385549" lon="9.672243">
        <ele>8.680334</ele>
        <time>2021-08-29T06:42:58.000Z</time>
      </trkpt>
      <trkpt lat="54.385607" lon="9.672232">
        <ele>8.687236</ele>
        <time>2021-08-29T06:43:02.000Z</time>
      </trkpt>
      <trkpt lat="54.385638" lon="9.672230">
        <ele>8.690905</ele>
        <time>2021-08-29T06:43:04.000Z</time>
      </trkpt>
      <trkpt lat="54.385717" lon="9.672235">
        <ele>8.700256</ele>
        <time>2021-08-29T06:43:10.000Z</time>
      </trkpt>
      <trkpt lat="54.385771" lon="9.672190">
        <ele>8.707355</ele>
        <time>2021-08-29T06:43:15.000Z</time>
      </trkpt>
      <trkpt lat="54.385780" lon="9.672176">
        <ele>8.708792</ele>
        <time>2021-08-29T06:43:16.000Z</time>
      </trkpt>
      <trkpt lat="54.385802" lon="9.672141">
        <ele>8.712339</ele>
        <time>2021-08-29T06:43:18.000Z</time>
      </trkpt>
      <trkpt lat="54.385879" lon="9.672102">
        <ele>8.721834</ele>
        <time>2021-08-29T06:43:24.000Z</time>
      </trkpt>
      <trkpt lat="54.385997" lon="9.672084">
        <ele>8.735847</ele>
        <time>2021-08-29T06:43:30.000Z</time>
      </trkpt>
      <trkpt lat="54.386075" lon="9.672076">
        <ele>8.745089</ele>
        <time>2021-08-29T06:43:34.000Z</time>
      </trkpt>
      <trkpt lat="54.386123" lon="9.672063">
        <ele>8.750837</ele>
        <time>2021-08-29T06:43:37.000Z</time>
      </trkpt>
      <trkpt lat="54.386156" lon="9.672050">
        <ele>8.754842</ele>
        <time>2021-08-29T06:43:39.000Z</time>
      </trkpt>
      <trkpt lat="54.386253" lon="9.672030">
        <ele>8.766397</ele>
        <time>2021-08-29T06:43:45.000Z</time>
      </trkpt>
      <trkpt lat="54.386348" lon="9.671991">
        <ele>8.777951</ele>
        <time>2021-08-29T06:43:51.000Z</time>
      </trkpt>
      <trkpt lat="54.386434" lon="9.671988">
        <ele>8.788125</ele>
        <time>2021-08-29T06:43:58.000Z</time>
      </trkpt>
      <trkpt lat="54.386525" lon="9.671971">
        <ele>8.798953</ele>
        <time>2021-08-29T06:44:04.000Z</time>
      </trkpt>
      <trkpt lat="54.386553" lon="9.671969">
        <ele>8.802267</ele>
        <time>2021-08-29T06:44:06.000Z</time>
      </trkpt>
      <trkpt lat="54.386627" lon="9.672014">
        <ele>8.811553</ele>
        <time>2021-08-29T06:44:12.000Z</time>
      </trkpt>
      <trkpt lat="54.386718" lon="9.672061">
        <ele>8.822793</ele>
        <time>2021-08-29T06:44:19.000Z</time>
      </trkpt>
      <trkpt lat="54.386818" lon="9.672000">
        <ele>8.835345</ele>
        <time>2021-08-29T06:44:26.000Z</time>
      </trkpt>
      <trkpt lat="54.386882" lon="9.671936">
        <ele>8.844105</ele>
        <time>2021-08-29T06:44:31.000Z</time>
      </trkpt>
      <trkpt lat="54.386896" lon="9.671925">
        <ele>8.845926</ele>
        <time>2021-08-29T06:44:32.000Z</time>
      </trkpt>
      <trkpt lat="54.386944" lon="9.671901">
        <ele>8.851839</ele>
        <time>2021-08-29T06:44:35.000Z</time>
      </trkpt>
      <trkpt lat="54.386990" lon="9.671909">
        <ele>8.857308</ele>
        <time>2021-08-29T06:44:38.000Z</time>
      </trkpt>
      <trkpt lat="54.387013" lon="9.671928">
        <ele>8.860327</ele>
        <time>2021-08-29T06:44:41.000Z</time>
      </trkpt>
      <trkpt lat="54.387015" lon="9.671930">
        <ele>8.860601</ele>
        <time>2021-08-29T06:44:42.000Z</time>
      </trkpt>
      <trkpt lat="54.387017" lon="9.671935">
        <ele>8.861019</ele>
        <time>2021-08-29T06:44:43.000Z</time>
      </trkpt>
      <trkpt lat="54.387020" lon="9.671936">
        <ele>8.861380</ele>
        <time>2021-08-29T06:44:44.000Z</time>
      </trkpt>
      <trkpt lat="54.387024" lon="9.671944">
        <ele>8.862106</ele>
        <time>2021-08-29T06:44:45.000Z</time>
      </trkpt>
      <trkpt lat="54.387047" lon="9.671971">
        <ele>8.865402</ele>
        <time>2021-08-29T06:44:47.000Z</time>
      </trkpt>
      <trkpt lat="54.387099" lon="9.672032">
        <ele>8.874525</ele>
        <time>2021-08-29T06:44:50.000Z</time>
      </trkpt>
      <trkpt lat="54.387133" lon="9.672058">
        <ele>8.881240</ele>
        <time>2021-08-29T06:44:51.000Z</time>
      </trkpt>
      <trkpt lat="54.387180" lon="9.672110">
        <ele>8.891328</ele>
        <time>2021-08-29T06:44:54.000Z</time>
      </trkpt>
      <trkpt lat="54.387167" lon="9.672070">
        <ele>8.896141</ele>
        <time>2021-08-29T06:44:55.000Z</time>
      </trkpt>
      <trkpt lat="54.387166" lon="9.672065">
        <ele>8.896696</ele>
        <time>2021-08-29T06:44:57.000Z</time>
      </trkpt>
      <trkpt lat="54.387180" lon="9.672072">
        <ele>8.899327</ele>
        <time>2021-08-29T06:44:59.000Z</time>
      </trkpt>
      <trkpt lat="54.387191" lon="9.672070">
        <ele>8.901323</ele>
        <time>2021-08-29T06:45:01.000Z</time>
      </trkpt>
      <trkpt lat="54.387238" lon="9.672082">
        <ele>8.909896</ele>
        <time>2021-08-29T06:45:07.000Z</time>
      </trkpt>
      <trkpt lat="54.387288" lon="9.672091">
        <ele>8.918967</ele>
        <time>2021-08-29T06:45:10.000Z</time>
      </trkpt>
      <trkpt lat="54.387315" lon="9.672096">
        <ele>8.923867</ele>
        <time>2021-08-29T06:45:12.000Z</time>
      </trkpt>
      <trkpt lat="54.387373" lon="9.672111">
        <ele>8.934450</ele>
        <time>2021-08-29T06:45:18.000Z</time>
      </trkpt>
      <trkpt lat="54.387395" lon="9.672118">
        <ele>8.938487</ele>
        <time>2021-08-29T06:45:20.000Z</time>
      </trkpt>
      <trkpt lat="54.387414" lon="9.672124">
        <ele>8.941973</ele>
        <time>2021-08-29T06:45:22.000Z</time>
      </trkpt>
      <trkpt lat="54.387430" lon="9.672134">
        <ele>8.945045</ele>
        <time>2021-08-29T06:45:24.000Z</time>
      </trkpt>
      <trkpt lat="54.387479" lon="9.672156">
        <ele>8.954183</ele>
        <time>2021-08-29T06:45:28.000Z</time>
      </trkpt>
      <trkpt lat="54.387504" lon="9.672169">
        <ele>8.958896</ele>
        <time>2021-08-29T06:45:31.000Z</time>
      </trkpt>
      <trkpt lat="54.387514" lon="9.672171">
        <ele>8.960713</ele>
        <time>2021-08-29T06:45:32.000Z</time>
      </trkpt>
      <trkpt lat="54.387525" lon="9.672175">
        <ele>8.962742</ele>
        <time>2021-08-29T06:45:33.000Z</time>
      </trkpt>
      <trkpt lat="54.387597" lon="9.672193">
        <ele>8.975870</ele>
        <time>2021-08-29T06:45:37.000Z</time>
      </trkpt>
      <trkpt lat="54.387703" lon="9.672227">
        <ele>8.995326</ele>
        <time>2021-08-29T06:45:42.000Z</time>
      </trkpt>
      <trkpt lat="54.387714" lon="9.672221">
        <ele>8.997409</ele>
        <time>2021-08-29T06:45:43.000Z</time>
      </trkpt>
      <trkpt lat="54.387781" lon="9.672225">
        <ele>9.009505</ele>
        <time>2021-08-29T06:45:50.000Z</time>
      </trkpt>
      <trkpt lat="54.387789" lon="9.672221">
        <ele>9.011008</ele>
        <time>2021-08-29T06:45:51.000Z</time>
      </trkpt>
      <trkpt lat="54.387800" lon="9.672213">
        <ele>9.013163</ele>
        <time>2021-08-29T06:45:53.000Z</time>
      </trkpt>
      <trkpt lat="54.387846" lon="9.672229">
        <ele>9.021632</ele>
        <time>2021-08-29T06:45:56.000Z</time>
      </trkpt>
      <trkpt lat="54.387860" lon="9.672231">
        <ele>9.024167</ele>
        <time>2021-08-29T06:45:57.000Z</time>
      </trkpt>
      <trkpt lat="54.387932" lon="9.672247">
        <ele>9.037266</ele>
        <time>2021-08-29T06:46:01.000Z</time>
      </trkpt>
      <trkpt lat="54.387957" lon="9.672254">
        <ele>9.041836</ele>
        <time>2021-08-29T06:46:03.000Z</time>
      </trkpt>
      <trkpt lat="54.388000" lon="9.672256">
        <ele>9.049598</ele>
        <time>2021-08-29T06:46:06.000Z</time>
      </trkpt>
      <trkpt lat="54.388073" lon="9.672267">
        <ele>9.062820</ele>
        <time>2021-08-29T06:46:10.000Z</time>
      </trkpt>
      <trkpt lat="54.388130" lon="9.672258">
        <ele>9.073148</ele>
        <time>2021-08-29T06:46:14.000Z</time>
      </trkpt>
      <trkpt lat="54.388155" lon="9.672262">
        <ele>9.077678</ele>
        <time>2021-08-29T06:46:16.000Z</time>
      </trkpt>
      <trkpt lat="54.388185" lon="9.672284">
        <ele>9.083564</ele>
        <time>2021-08-29T06:46:18.000Z</time>
      </trkpt>
      <trkpt lat="54.388241" lon="9.672313">
        <ele>9.094117</ele>
        <time>2021-08-29T06:46:22.000Z</time>
      </trkpt>
      <trkpt lat="54.388265" lon="9.672311">
        <ele>9.098453</ele>
        <time>2021-08-29T06:46:24.000Z</time>
      </trkpt>
      <trkpt lat="54.388303" lon="9.672323">
        <ele>9.105424</ele>
        <time>2021-08-29T06:46:28.000Z</time>
      </trkpt>
      <trkpt lat="54.388315" lon="9.672329">
        <ele>9.107679</ele>
        <time>2021-08-29T06:46:29.000Z</time>
      </trkpt>
      <trkpt lat="54.388376" lon="9.672341">
        <ele>9.118757</ele>
        <time>2021-08-29T06:46:35.000Z</time>
      </trkpt>
      <trkpt lat="54.388389" lon="9.672336">
        <ele>9.121161</ele>
        <time>2021-08-29T06:46:36.000Z</time>
      </trkpt>
      <trkpt lat="54.388425" lon="9.672344">
        <ele>9.127711</ele>
        <time>2021-08-29T06:46:38.000Z</time>
      </trkpt>
      <trkpt lat="54.388541" lon="9.672375">
        <ele>9.148893</ele>
        <time>2021-08-29T06:46:44.000Z</time>
      </trkpt>
      <trkpt lat="54.388657" lon="9.672350">
        <ele>9.169987</ele>
        <time>2021-08-29T06:46:50.000Z</time>
      </trkpt>
      <trkpt lat="54.388765" lon="9.672367">
        <ele>9.189555</ele>
        <time>2021-08-29T06:46:55.000Z</time>
      </trkpt>
      <trkpt lat="54.388781" lon="9.672368">
        <ele>9.192444</ele>
        <time>2021-08-29T06:46:56.000Z</time>
      </trkpt>
      <trkpt lat="54.388881" lon="9.672409">
        <ele>9.097766</ele>
        <time>2021-08-29T06:47:03.000Z</time>
      </trkpt>
      <trkpt lat="54.388896" lon="9.672473">
        <ele>9.056160</ele>
        <time>2021-08-29T06:47:07.000Z</time>
      </trkpt>
      <trkpt lat="54.388898" lon="9.672480">
        <ele>9.051458</ele>
        <time>2021-08-29T06:47:08.000Z</time>
      </trkpt>
      <trkpt lat="54.388882" lon="9.672534">
        <ele>9.014919</ele>
        <time>2021-08-29T06:47:12.000Z</time>
      </trkpt>
      <trkpt lat="54.388880" lon="9.672657">
        <ele>8.940712</ele>
        <time>2021-08-29T06:47:18.000Z</time>
      </trkpt>
      <trkpt lat="54.388885" lon="9.672779">
        <ele>8.866955</ele>
        <time>2021-08-29T06:47:24.000Z</time>
      </trkpt>
      <trkpt lat="54.388888" lon="9.672819">
        <ele>8.842633</ele>
        <time>2021-08-29T06:47:26.000Z</time>
      </trkpt>
      <trkpt lat="54.388892" lon="9.672886">
        <ele>8.802015</ele>
        <time>2021-08-29T06:47:29.000Z</time>
      </trkpt>
      <trkpt lat="54.388889" lon="9.672929">
        <ele>8.775898</ele>
        <time>2021-08-29T06:47:31.000Z</time>
      </trkpt>
      <trkpt lat="54.388891" lon="9.672955">
        <ele>8.760082</ele>
        <time>2021-08-29T06:47:32.000Z</time>
      </trkpt>
      <trkpt lat="54.388893" lon="9.672977">
        <ele>8.746653</ele>
        <time>2021-08-29T06:47:33.000Z</time>
      </trkpt>
      <trkpt lat="54.388900" lon="9.673054">
        <ele>8.699654</ele>
        <time>2021-08-29T06:47:36.000Z</time>
      </trkpt>
      <trkpt lat="54.388887" lon="9.673184">
        <ele>8.620107</ele>
        <time>2021-08-29T06:47:41.000Z</time>
      </trkpt>
      <trkpt lat="54.388877" lon="9.673220">
        <ele>8.596053</ele>
        <time>2021-08-29T06:47:42.000Z</time>
      </trkpt>
      <trkpt lat="54.388869" lon="9.673252">
        <ele>8.575051</ele>
        <time>2021-08-29T06:47:43.000Z</time>
      </trkpt>
      <trkpt lat="54.388867" lon="9.673342">
        <ele>8.520735</ele>
        <time>2021-08-29T06:47:45.000Z</time>
      </trkpt>
      <trkpt lat="54.388849" lon="9.673535">
        <ele>8.402859</ele>
        <time>2021-08-29T06:47:52.000Z</time>
      </trkpt>
      <trkpt lat="54.388858" lon="9.673588">
        <ele>8.369564</ele>
        <time>2021-08-29T06:47:56.000Z</time>
      </trkpt>
      <trkpt lat="54.388862" lon="9.673598">
        <ele>8.362248</ele>
        <time>2021-08-29T06:47:57.000Z</time>
      </trkpt>
      <trkpt lat="54.388865" lon="9.673604">
        <ele>8.357478</ele>
        <time>2021-08-29T06:47:58.000Z</time>
      </trkpt>
      <trkpt lat="54.388867" lon="9.673611">
        <ele>8.352776</ele>
        <time>2021-08-29T06:47:59.000Z</time>
      </trkpt>
      <trkpt lat="54.388871" lon="9.673669">
        <ele>8.317553</ele>
        <time>2021-08-29T06:48:02.000Z</time>
      </trkpt>
      <trkpt lat="54.388897" lon="9.673693">
        <ele>8.286982</ele>
        <time>2021-08-29T06:48:06.000Z</time>
      </trkpt>
      <trkpt lat="54.388914" lon="9.673719">
        <ele>8.263405</ele>
        <time>2021-08-29T06:48:08.000Z</time>
      </trkpt>
      <trkpt lat="54.388953" lon="9.673800">
        <ele>8.200019</ele>
        <time>2021-08-29T06:48:13.000Z</time>
      </trkpt>
      <trkpt lat="54.388993" lon="9.673909">
        <ele>8.122319</ele>
        <time>2021-08-29T06:48:17.000Z</time>
      </trkpt>
      <trkpt lat="54.389014" lon="9.673964">
        <ele>8.082655</ele>
        <time>2021-08-29T06:48:19.000Z</time>
      </trkpt>
      <trkpt lat="54.389024" lon="9.674000">
        <ele>8.058600</ele>
        <time>2021-08-29T06:48:20.000Z</time>
      </trkpt>
      <trkpt lat="54.389058" lon="9.674058">
        <ele>8.008967</ele>
        <time>2021-08-29T06:48:23.000Z</time>
      </trkpt>
      <trkpt lat="54.389093" lon="9.674125">
        <ele>7.954684</ele>
        <time>2021-08-29T06:48:26.000Z</time>
      </trkpt>
      <trkpt lat="54.389146" lon="9.674228">
        <ele>7.871789</ele>
        <time>2021-08-29T06:48:31.000Z</time>
      </trkpt>
      <trkpt lat="54.389151" lon="9.674245">
        <ele>7.860303</ele>
        <time>2021-08-29T06:48:32.000Z</time>
      </trkpt>
      <trkpt lat="54.389183" lon="9.674401">
        <ele>7.760557</ele>
        <time>2021-08-29T06:48:39.000Z</time>
      </trkpt>
      <trkpt lat="54.389195" lon="9.674413">
        <ele>7.746175</ele>
        <time>2021-08-29T06:48:40.000Z</time>
      </trkpt>
      <trkpt lat="54.389208" lon="9.674536">
        <ele>7.670786</ele>
        <time>2021-08-29T06:48:44.000Z</time>
      </trkpt>
      <trkpt lat="54.389215" lon="9.674553">
        <ele>7.658230</ele>
        <time>2021-08-29T06:48:45.000Z</time>
      </trkpt>
      <trkpt lat="54.389240" lon="9.674635">
        <ele>7.602410</ele>
        <time>2021-08-29T06:48:49.000Z</time>
      </trkpt>
      <trkpt lat="54.389248" lon="9.674686">
        <ele>7.570557</ele>
        <time>2021-08-29T06:48:52.000Z</time>
      </trkpt>
      <trkpt lat="54.389298" lon="9.674753">
        <ele>7.504873</ele>
        <time>2021-08-29T06:48:57.000Z</time>
      </trkpt>
      <trkpt lat="54.389315" lon="9.674764">
        <ele>7.486058</ele>
        <time>2021-08-29T06:48:59.000Z</time>
      </trkpt>
      <trkpt lat="54.389329" lon="9.674761">
        <ele>7.471446</ele>
        <time>2021-08-29T06:49:00.000Z</time>
      </trkpt>
      <trkpt lat="54.389347" lon="9.674775">
        <ele>7.450980</ele>
        <time>2021-08-29T06:49:05.000Z</time>
      </trkpt>
      <trkpt lat="54.389372" lon="9.674783">
        <ele>7.424642</ele>
        <time>2021-08-29T06:49:07.000Z</time>
      </trkpt>
      <trkpt lat="54.389417" lon="9.674775">
        <ele>7.377786</ele>
        <time>2021-08-29T06:49:11.000Z</time>
      </trkpt>
      <trkpt lat="54.389433" lon="9.674775">
        <ele>7.361215</ele>
        <time>2021-08-29T06:49:12.000Z</time>
      </trkpt>
      <trkpt lat="54.389512" lon="9.674781">
        <ele>7.354141</ele>
        <time>2021-08-29T06:49:16.000Z</time>
      </trkpt>
      <trkpt lat="54.389565" lon="9.674791">
        <ele>7.378359</ele>
        <time>2021-08-29T06:49:20.000Z</time>
      </trkpt>
      <trkpt lat="54.389575" lon="9.674790">
        <ele>7.382908</ele>
        <time>2021-08-29T06:49:21.000Z</time>
      </trkpt>
      <trkpt lat="54.389585" lon="9.674788">
        <ele>7.387481</ele>
        <time>2021-08-29T06:49:22.000Z</time>
      </trkpt>
      <trkpt lat="54.389594" lon="9.674778">
        <ele>7.392350</ele>
        <time>2021-08-29T06:49:23.000Z</time>
      </trkpt>
      <trkpt lat="54.389602" lon="9.674765">
        <ele>7.397352</ele>
        <time>2021-08-29T06:49:24.000Z</time>
      </trkpt>
      <trkpt lat="54.389614" lon="9.674756">
        <ele>7.403300</ele>
        <time>2021-08-29T06:49:26.000Z</time>
      </trkpt>
      <trkpt lat="54.389643" lon="9.674751">
        <ele>7.416538</ele>
        <time>2021-08-29T06:49:28.000Z</time>
      </trkpt>
      <trkpt lat="54.389667" lon="9.674725">
        <ele>7.429426</ele>
        <time>2021-08-29T06:49:31.000Z</time>
      </trkpt>
      <trkpt lat="54.389688" lon="9.674725">
        <ele>7.438965</ele>
        <time>2021-08-29T06:49:33.000Z</time>
      </trkpt>
      <trkpt lat="54.389714" lon="9.674715">
        <ele>7.451067</ele>
        <time>2021-08-29T06:49:35.000Z</time>
      </trkpt>
      <trkpt lat="54.389725" lon="9.674715">
        <ele>7.456063</ele>
        <time>2021-08-29T06:49:36.000Z</time>
      </trkpt>
      <trkpt lat="54.389775" lon="9.674697">
        <ele>7.479267</ele>
        <time>2021-08-29T06:49:40.000Z</time>
      </trkpt>
      <trkpt lat="54.389787" lon="9.674691">
        <ele>7.484943</ele>
        <time>2021-08-29T06:49:41.000Z</time>
      </trkpt>
      <trkpt lat="54.389811" lon="9.674685">
        <ele>7.495959</ele>
        <time>2021-08-29T06:49:43.000Z</time>
      </trkpt>
      <trkpt lat="54.389847" lon="9.674682">
        <ele>7.512330</ele>
        <time>2021-08-29T06:49:45.000Z</time>
      </trkpt>
      <trkpt lat="54.389889" lon="9.674655">
        <ele>7.532699</ele>
        <time>2021-08-29T06:49:49.000Z</time>
      </trkpt>
      <trkpt lat="54.389892" lon="9.674651">
        <ele>7.534424</ele>
        <time>2021-08-29T06:49:50.000Z</time>
      </trkpt>
      <trkpt lat="54.389934" lon="9.674674">
        <ele>7.554447</ele>
        <time>2021-08-29T06:49:53.000Z</time>
      </trkpt>
      <trkpt lat="54.389949" lon="9.674679">
        <ele>7.561387</ele>
        <time>2021-08-29T06:49:54.000Z</time>
      </trkpt>
      <trkpt lat="54.389973" lon="9.674696">
        <ele>7.573179</ele>
        <time>2021-08-29T06:49:56.000Z</time>
      </trkpt>
      <trkpt lat="54.389984" lon="9.674704">
        <ele>7.578605</ele>
        <time>2021-08-29T06:49:57.000Z</time>
      </trkpt>
      <trkpt lat="54.390002" lon="9.674729">
        <ele>7.589119</ele>
        <time>2021-08-29T06:49:59.000Z</time>
      </trkpt>
      <trkpt lat="54.390029" lon="9.674744">
        <ele>7.602009</ele>
        <time>2021-08-29T06:50:01.000Z</time>
      </trkpt>
      <trkpt lat="54.390105" lon="9.674760">
        <ele>7.636787</ele>
        <time>2021-08-29T06:50:04.000Z</time>
      </trkpt>
      <trkpt lat="54.390166" lon="9.674767">
        <ele>7.664555</ele>
        <time>2021-08-29T06:50:07.000Z</time>
      </trkpt>
      <trkpt lat="54.390193" lon="9.674778">
        <ele>7.677159</ele>
        <time>2021-08-29T06:50:09.000Z</time>
      </trkpt>
      <trkpt lat="54.390219" lon="9.674776">
        <ele>7.688980</ele>
        <time>2021-08-29T06:50:10.000Z</time>
      </trkpt>
      <trkpt lat="54.390289" lon="9.674790">
        <ele>7.720989</ele>
        <time>2021-08-29T06:50:15.000Z</time>
      </trkpt>
      <trkpt lat="54.390307" lon="9.674789">
        <ele>7.729169</ele>
        <time>2021-08-29T06:50:17.000Z</time>
      </trkpt>
      <trkpt lat="54.390353" lon="9.674805">
        <ele>7.750487</ele>
        <time>2021-08-29T06:50:21.000Z</time>
      </trkpt>
      <trkpt lat="54.390386" lon="9.674809">
        <ele>7.765513</ele>
        <time>2021-08-29T06:50:24.000Z</time>
      </trkpt>
      <trkpt lat="54.390414" lon="9.674814">
        <ele>7.778299</ele>
        <time>2021-08-29T06:50:26.000Z</time>
      </trkpt>
      <trkpt lat="54.390506" lon="9.674805">
        <ele>7.820154</ele>
        <time>2021-08-29T06:50:32.000Z</time>
      </trkpt>
      <trkpt lat="54.390528" lon="9.674800">
        <ele>7.830234</ele>
        <time>2021-08-29T06:50:34.000Z</time>
      </trkpt>
      <trkpt lat="54.390569" lon="9.674787">
        <ele>7.849171</ele>
        <time>2021-08-29T06:50:37.000Z</time>
      </trkpt>
      <trkpt lat="54.390615" lon="9.674770">
        <ele>7.870542</ele>
        <time>2021-08-29T06:50:40.000Z</time>
      </trkpt>
      <trkpt lat="54.390652" lon="9.674750">
        <ele>7.888161</ele>
        <time>2021-08-29T06:50:42.000Z</time>
      </trkpt>
      <trkpt lat="54.390713" lon="9.674706">
        <ele>7.918212</ele>
        <time>2021-08-29T06:50:46.000Z</time>
      </trkpt>
      <trkpt lat="54.390718" lon="9.674700">
        <ele>7.920982</ele>
        <time>2021-08-29T06:50:47.000Z</time>
      </trkpt>
      <trkpt lat="54.390765" lon="9.674674">
        <ele>7.943410</ele>
        <time>2021-08-29T06:50:51.000Z</time>
      </trkpt>
      <trkpt lat="54.390793" lon="9.674673">
        <ele>7.956130</ele>
        <time>2021-08-29T06:50:52.000Z</time>
      </trkpt>
      <trkpt lat="54.390826" lon="9.674656">
        <ele>7.971779</ele>
        <time>2021-08-29T06:50:54.000Z</time>
      </trkpt>
      <trkpt lat="54.390895" lon="9.674646">
        <ele>8.003230</ele>
        <time>2021-08-29T06:50:58.000Z</time>
      </trkpt>
      <trkpt lat="54.390988" lon="9.674637">
        <ele>8.045539</ele>
        <time>2021-08-29T06:51:04.000Z</time>
      </trkpt>
      <trkpt lat="54.391111" lon="9.674621">
        <ele>8.101566</ele>
        <time>2021-08-29T06:51:12.000Z</time>
      </trkpt>
      <trkpt lat="54.391187" lon="9.674695">
        <ele>8.141247</ele>
        <time>2021-08-29T06:51:17.000Z</time>
      </trkpt>
      <trkpt lat="54.391198" lon="9.674697">
        <ele>8.146271</ele>
        <time>2021-08-29T06:51:18.000Z</time>
      </trkpt>
      <trkpt lat="54.391217" lon="9.674719">
        <ele>8.169276</ele>
        <time>2021-08-29T06:51:19.000Z</time>
      </trkpt>
      <trkpt lat="54.391273" lon="9.674779">
        <ele>8.244236</ele>
        <time>2021-08-29T06:51:23.000Z</time>
      </trkpt>
      <trkpt lat="54.391280" lon="9.674808">
        <ele>8.264994</ele>
        <time>2021-08-29T06:51:24.000Z</time>
      </trkpt>
      <trkpt lat="54.391326" lon="9.674868">
        <ele>8.330594</ele>
        <time>2021-08-29T06:51:27.000Z</time>
      </trkpt>
      <trkpt lat="54.391336" lon="9.674887">
        <ele>8.347530</ele>
        <time>2021-08-29T06:51:28.000Z</time>
      </trkpt>
      <trkpt lat="54.391374" lon="9.674946">
        <ele>8.405707</ele>
        <time>2021-08-29T06:51:31.000Z</time>
      </trkpt>
      <trkpt lat="54.391385" lon="9.674961">
        <ele>8.421659</ele>
        <time>2021-08-29T06:51:32.000Z</time>
      </trkpt>
      <trkpt lat="54.391433" lon="9.675028">
        <ele>8.491905</ele>
        <time>2021-08-29T06:51:37.000Z</time>
      </trkpt>
      <trkpt lat="54.391492" lon="9.675060">
        <ele>8.562172</ele>
        <time>2021-08-29T06:51:42.000Z</time>
      </trkpt>
      <trkpt lat="54.391513" lon="9.675082">
        <ele>8.590108</ele>
        <time>2021-08-29T06:51:44.000Z</time>
      </trkpt>
      <trkpt lat="54.391542" lon="9.675125">
        <ele>8.633619</ele>
        <time>2021-08-29T06:51:47.000Z</time>
      </trkpt>
      <trkpt lat="54.391565" lon="9.675130">
        <ele>8.659949</ele>
        <time>2021-08-29T06:51:48.000Z</time>
      </trkpt>
      <trkpt lat="54.391603" lon="9.675139">
        <ele>8.703513</ele>
        <time>2021-08-29T06:51:50.000Z</time>
      </trkpt>
      <trkpt lat="54.391630" lon="9.675152">
        <ele>8.735359</ele>
        <time>2021-08-29T06:51:52.000Z</time>
      </trkpt>
      <trkpt lat="54.391747" lon="9.675197">
        <ele>8.871526</ele>
        <time>2021-08-29T06:52:00.000Z</time>
      </trkpt>
      <trkpt lat="54.391838" lon="9.675208">
        <ele>8.975130</ele>
        <time>2021-08-29T06:52:07.000Z</time>
      </trkpt>
      <trkpt lat="54.391859" lon="9.675189">
        <ele>9.002086</ele>
        <time>2021-08-29T06:52:10.000Z</time>
      </trkpt>
      <trkpt lat="54.391883" lon="9.675192">
        <ele>9.029415</ele>
        <time>2021-08-29T06:52:12.000Z</time>
      </trkpt>
      <trkpt lat="54.391899" lon="9.675188">
        <ele>9.047778</ele>
        <time>2021-08-29T06:52:13.000Z</time>
      </trkpt>
      <trkpt lat="54.391925" lon="9.675178">
        <ele>9.078037</ele>
        <time>2021-08-29T06:52:15.000Z</time>
      </trkpt>
      <trkpt lat="54.391943" lon="9.675162">
        <ele>9.101055</ele>
        <time>2021-08-29T06:52:17.000Z</time>
      </trkpt>
      <trkpt lat="54.391950" lon="9.675155">
        <ele>9.110254</ele>
        <time>2021-08-29T06:52:18.000Z</time>
      </trkpt>
      <trkpt lat="54.391972" lon="9.675138">
        <ele>9.137652</ele>
        <time>2021-08-29T06:52:20.000Z</time>
      </trkpt>
      <trkpt lat="54.391979" lon="9.675136">
        <ele>9.145711</ele>
        <time>2021-08-29T06:52:21.000Z</time>
      </trkpt>
      <trkpt lat="54.392006" lon="9.675118">
        <ele>9.178603</ele>
        <time>2021-08-29T06:52:24.000Z</time>
      </trkpt>
      <trkpt lat="54.392044" lon="9.675089">
        <ele>9.225828</ele>
        <time>2021-08-29T06:52:27.000Z</time>
      </trkpt>
      <trkpt lat="54.392132" lon="9.675008">
        <ele>9.339216</ele>
        <time>2021-08-29T06:52:33.000Z</time>
      </trkpt>
      <trkpt lat="54.392168" lon="9.674858">
        <ele>9.446498</ele>
        <time>2021-08-29T06:52:39.000Z</time>
      </trkpt>
      <trkpt lat="54.392238" lon="9.674709">
        <ele>9.573097</ele>
        <time>2021-08-29T06:52:48.000Z</time>
      </trkpt>
      <trkpt lat="54.392247" lon="9.674694">
        <ele>9.587339</ele>
        <time>2021-08-29T06:52:49.000Z</time>
      </trkpt>
      <trkpt lat="54.392265" lon="9.674637">
        <ele>9.630217</ele>
        <time>2021-08-29T06:52:52.000Z</time>
      </trkpt>
      <trkpt lat="54.392275" lon="9.674603">
        <ele>9.655404</ele>
        <time>2021-08-29T06:52:54.000Z</time>
      </trkpt>
      <trkpt lat="54.392292" lon="9.674567">
        <ele>9.686054</ele>
        <time>2021-08-29T06:52:56.000Z</time>
      </trkpt>
      <trkpt lat="54.392311" lon="9.674540">
        <ele>9.714060</ele>
        <time>2021-08-29T06:52:58.000Z</time>
      </trkpt>
      <trkpt lat="54.392351" lon="9.674511">
        <ele>9.763370</ele>
        <time>2021-08-29T06:53:01.000Z</time>
      </trkpt>
      <trkpt lat="54.392447" lon="9.674463">
        <ele>9.876922</ele>
        <time>2021-08-29T06:53:06.000Z</time>
      </trkpt>
      <trkpt lat="54.392465" lon="9.674463">
        <ele>9.897364</ele>
        <time>2021-08-29T06:53:07.000Z</time>
      </trkpt>
      <trkpt lat="54.392552" lon="9.674405">
        <ele>10.003352</ele>
        <time>2021-08-29T06:53:13.000Z</time>
      </trkpt>
      <trkpt lat="54.392560" lon="9.674399">
        <ele>10.013266</ele>
        <time>2021-08-29T06:53:14.000Z</time>
      </trkpt>
      <trkpt lat="54.392596" lon="9.674397">
        <ele>10.054172</ele>
        <time>2021-08-29T06:53:17.000Z</time>
      </trkpt>
      <trkpt lat="54.392636" lon="9.674400">
        <ele>10.099643</ele>
        <time>2021-08-29T06:53:20.000Z</time>
      </trkpt>
      <trkpt lat="54.392651" lon="9.674398">
        <ele>10.116730</ele>
        <time>2021-08-29T06:53:21.000Z</time>
      </trkpt>
      <trkpt lat="54.392669" lon="9.674390">
        <ele>10.137846</ele>
        <time>2021-08-29T06:53:22.000Z</time>
      </trkpt>
      <trkpt lat="54.392698" lon="9.674369">
        <ele>10.173588</ele>
        <time>2021-08-29T06:53:25.000Z</time>
      </trkpt>
      <trkpt lat="54.392717" lon="9.674369">
        <ele>10.191112</ele>
        <time>2021-08-29T06:53:27.000Z</time>
      </trkpt>
      <trkpt lat="54.392777" lon="9.674371">
        <ele>10.193119</ele>
        <time>2021-08-29T06:53:30.000Z</time>
      </trkpt>
      <trkpt lat="54.392807" lon="9.674355">
        <ele>10.194170</ele>
        <time>2021-08-29T06:53:31.000Z</time>
      </trkpt>
      <trkpt lat="54.392826" lon="9.674346">
        <ele>10.194829</ele>
        <time>2021-08-29T06:53:32.000Z</time>
      </trkpt>
      <trkpt lat="54.392891" lon="9.674304">
        <ele>10.197152</ele>
        <time>2021-08-29T06:53:36.000Z</time>
      </trkpt>
      <trkpt lat="54.392914" lon="9.674280">
        <ele>10.198052</ele>
        <time>2021-08-29T06:53:38.000Z</time>
      </trkpt>
      <trkpt lat="54.392916" lon="9.674262">
        <ele>10.198409</ele>
        <time>2021-08-29T06:53:39.000Z</time>
      </trkpt>
      <trkpt lat="54.392929" lon="9.674242">
        <ele>10.198993</ele>
        <time>2021-08-29T06:53:41.000Z</time>
      </trkpt>
      <trkpt lat="54.392954" lon="9.674223">
        <ele>10.199907</ele>
        <time>2021-08-29T06:53:43.000Z</time>
      </trkpt>
      <trkpt lat="54.392972" lon="9.674186">
        <ele>10.200846</ele>
        <time>2021-08-29T06:53:45.000Z</time>
      </trkpt>
      <trkpt lat="54.393015" lon="9.674154">
        <ele>10.202414</ele>
        <time>2021-08-29T06:53:49.000Z</time>
      </trkpt>
      <trkpt lat="54.393046" lon="9.674055">
        <ele>10.204603</ele>
        <time>2021-08-29T06:53:54.000Z</time>
      </trkpt>
      <trkpt lat="54.393068" lon="9.674008">
        <ele>10.205777</ele>
        <time>2021-08-29T06:53:56.000Z</time>
      </trkpt>
      <trkpt lat="54.393098" lon="9.673959">
        <ele>10.207162</ele>
        <time>2021-08-29T06:53:59.000Z</time>
      </trkpt>
      <trkpt lat="54.393098" lon="9.673929">
        <ele>10.207746</ele>
        <time>2021-08-29T06:54:00.000Z</time>
      </trkpt>
      <trkpt lat="54.393114" lon="9.673907">
        <ele>10.208432</ele>
        <time>2021-08-29T06:54:03.000Z</time>
      </trkpt>
      <trkpt lat="54.393123" lon="9.673900">
        <ele>10.208762</ele>
        <time>2021-08-29T06:54:04.000Z</time>
      </trkpt>
      <trkpt lat="54.393154" lon="9.673890">
        <ele>10.209817</ele>
        <time>2021-08-29T06:54:07.000Z</time>
      </trkpt>
      <trkpt lat="54.393185" lon="9.673837">
        <ele>10.211280</ele>
        <time>2021-08-29T06:54:11.000Z</time>
      </trkpt>
      <trkpt lat="54.393203" lon="9.673817">
        <ele>10.211997</ele>
        <time>2021-08-29T06:54:13.000Z</time>
      </trkpt>
      <trkpt lat="54.393232" lon="9.673793">
        <ele>10.213074</ele>
        <time>2021-08-29T06:54:16.000Z</time>
      </trkpt>
      <trkpt lat="54.393242" lon="9.673777">
        <ele>10.213531</ele>
        <time>2021-08-29T06:54:17.000Z</time>
      </trkpt>
      <trkpt lat="54.393243" lon="9.673751">
        <ele>10.214039</ele>
        <time>2021-08-29T06:54:18.000Z</time>
      </trkpt>
      <trkpt lat="54.393248" lon="9.673707">
        <ele>10.214912</ele>
        <time>2021-08-29T06:54:20.000Z</time>
      </trkpt>
      <trkpt lat="54.393277" lon="9.673677">
        <ele>10.216044</ele>
        <time>2021-08-29T06:54:22.000Z</time>
      </trkpt>
      <trkpt lat="54.393348" lon="9.673566">
        <ele>10.219256</ele>
        <time>2021-08-29T06:54:29.000Z</time>
      </trkpt>
      <trkpt lat="54.393407" lon="9.673485">
        <ele>10.221782</ele>
        <time>2021-08-29T06:54:36.000Z</time>
      </trkpt>
      <trkpt lat="54.393393" lon="9.673432">
        <ele>10.222915</ele>
        <time>2021-08-29T06:54:37.000Z</time>
      </trkpt>
      <trkpt lat="54.393403" lon="9.673397">
        <ele>10.223675</ele>
        <time>2021-08-29T06:54:41.000Z</time>
      </trkpt>
      <trkpt lat="54.393448" lon="9.673362">
        <ele>10.225327</ele>
        <time>2021-08-29T06:54:45.000Z</time>
      </trkpt>
      <trkpt lat="54.393452" lon="9.673339">
        <ele>10.225794</ele>
        <time>2021-08-29T06:54:46.000Z</time>
      </trkpt>
      <trkpt lat="54.393470" lon="9.673274">
        <ele>10.227196</ele>
        <time>2021-08-29T06:54:49.000Z</time>
      </trkpt>
      <trkpt lat="54.393510" lon="9.673214">
        <ele>10.228973</ele>
        <time>2021-08-29T06:54:53.000Z</time>
      </trkpt>
      <trkpt lat="54.393542" lon="9.673146">
        <ele>10.230675</ele>
        <time>2021-08-29T06:54:57.000Z</time>
      </trkpt>
      <trkpt lat="54.393560" lon="9.673087">
        <ele>10.231972</ele>
        <time>2021-08-29T06:55:00.000Z</time>
      </trkpt>
      <trkpt lat="54.393640" lon="9.673034">
        <ele>10.234840</ele>
        <time>2021-08-29T06:55:06.000Z</time>
      </trkpt>
      <trkpt lat="54.393664" lon="9.672982">
        <ele>10.236133</ele>
        <time>2021-08-29T06:55:09.000Z</time>
      </trkpt>
      <trkpt lat="54.393696" lon="9.672904">
        <ele>10.237991</ele>
        <time>2021-08-29T06:55:13.000Z</time>
      </trkpt>
      <trkpt lat="54.393717" lon="9.672839">
        <ele>10.239439</ele>
        <time>2021-08-29T06:55:16.000Z</time>
      </trkpt>
      <trkpt lat="54.393777" lon="9.672826">
        <ele>10.241461</ele>
        <time>2021-08-29T06:55:20.000Z</time>
      </trkpt>
      <trkpt lat="54.393774" lon="9.672794">
        <ele>10.242093</ele>
        <time>2021-08-29T06:55:21.000Z</time>
      </trkpt>
      <trkpt lat="54.393786" lon="9.672759">
        <ele>10.242884</ele>
        <time>2021-08-29T06:55:23.000Z</time>
      </trkpt>
      <trkpt lat="54.393799" lon="9.672749">
        <ele>10.243360</ele>
        <time>2021-08-29T06:55:24.000Z</time>
      </trkpt>
      <trkpt lat="54.393879" lon="9.672685">
        <ele>10.246312</ele>
        <time>2021-08-29T06:55:30.000Z</time>
      </trkpt>
      <trkpt lat="54.393888" lon="9.672673">
        <ele>10.246693</ele>
        <time>2021-08-29T06:55:31.000Z</time>
      </trkpt>
      <trkpt lat="54.393907" lon="9.672641">
        <ele>10.247583</ele>
        <time>2021-08-29T06:55:33.000Z</time>
      </trkpt>
      <trkpt lat="54.393940" lon="9.672577">
        <ele>10.249248</ele>
        <time>2021-08-29T06:55:38.000Z</time>
      </trkpt>
      <trkpt lat="54.393967" lon="9.672560">
        <ele>10.250210</ele>
        <time>2021-08-29T06:55:40.000Z</time>
      </trkpt>
      <trkpt lat="54.394044" lon="9.672504">
        <ele>10.247851</ele>
        <time>2021-08-29T06:55:45.000Z</time>
      </trkpt>
      <trkpt lat="54.394124" lon="9.672436">
        <ele>10.242541</ele>
        <time>2021-08-29T06:55:51.000Z</time>
      </trkpt>
      <trkpt lat="54.394229" lon="9.672395">
        <ele>10.236135</ele>
        <time>2021-08-29T06:55:58.000Z</time>
      </trkpt>
      <trkpt lat="54.394332" lon="9.672344">
        <ele>10.229758</ele>
        <time>2021-08-29T06:56:04.000Z</time>
      </trkpt>
      <trkpt lat="54.394372" lon="9.672291">
        <ele>10.226753</ele>
        <time>2021-08-29T06:56:07.000Z</time>
      </trkpt>
      <trkpt lat="54.394371" lon="9.672251">
        <ele>10.225366</ele>
        <time>2021-08-29T06:56:09.000Z</time>
      </trkpt>
      <trkpt lat="54.394377" lon="9.672244">
        <ele>10.224935</ele>
        <time>2021-08-29T06:56:10.000Z</time>
      </trkpt>
      <trkpt lat="54.394424" lon="9.672223">
        <ele>10.222046</ele>
        <time>2021-08-29T06:56:14.000Z</time>
      </trkpt>
      <trkpt lat="54.394435" lon="9.672198">
        <ele>10.220961</ele>
        <time>2021-08-29T06:56:15.000Z</time>
      </trkpt>
      <trkpt lat="54.394468" lon="9.672174">
        <ele>10.218829</ele>
        <time>2021-08-29T06:56:17.000Z</time>
      </trkpt>
      <trkpt lat="54.394496" lon="9.672158">
        <ele>10.217073</ele>
        <time>2021-08-29T06:56:19.000Z</time>
      </trkpt>
      <trkpt lat="54.394502" lon="9.672141">
        <ele>10.216385</ele>
        <time>2021-08-29T06:56:20.000Z</time>
      </trkpt>
      <trkpt lat="54.394574" lon="9.672119">
        <ele>10.212035</ele>
        <time>2021-08-29T06:56:27.000Z</time>
      </trkpt>
      <trkpt lat="54.394586" lon="9.672125">
        <ele>10.211291</ele>
        <time>2021-08-29T06:56:28.000Z</time>
      </trkpt>
      <trkpt lat="54.394639" lon="9.672127">
        <ele>10.208137</ele>
        <time>2021-08-29T06:56:33.000Z</time>
      </trkpt>
      <trkpt lat="54.394658" lon="9.672132">
        <ele>10.206994</ele>
        <time>2021-08-29T06:56:34.000Z</time>
      </trkpt>
      <trkpt lat="54.394674" lon="9.672131">
        <ele>10.206042</ele>
        <time>2021-08-29T06:56:35.000Z</time>
      </trkpt>
      <trkpt lat="54.394681" lon="9.672089">
        <ele>10.204529</ele>
        <time>2021-08-29T06:56:37.000Z</time>
      </trkpt>
      <trkpt lat="54.394688" lon="9.672084">
        <ele>10.204078</ele>
        <time>2021-08-29T06:56:38.000Z</time>
      </trkpt>
      <trkpt lat="54.394765" lon="9.672124">
        <ele>10.199292</ele>
        <time>2021-08-29T06:56:43.000Z</time>
      </trkpt>
      <trkpt lat="54.394780" lon="9.672140">
        <ele>10.198242</ele>
        <time>2021-08-29T06:56:44.000Z</time>
      </trkpt>
      <trkpt lat="54.394795" lon="9.672152">
        <ele>10.197257</ele>
        <time>2021-08-29T06:56:46.000Z</time>
      </trkpt>
      <trkpt lat="54.394814" lon="9.672152">
        <ele>10.196127</ele>
        <time>2021-08-29T06:56:48.000Z</time>
      </trkpt>
      <trkpt lat="54.394854" lon="9.672161">
        <ele>10.193727</ele>
        <time>2021-08-29T06:56:51.000Z</time>
      </trkpt>
      <trkpt lat="54.394870" lon="9.672162">
        <ele>10.192775</ele>
        <time>2021-08-29T06:56:52.000Z</time>
      </trkpt>
      <trkpt lat="54.394889" lon="9.672168">
        <ele>10.191626</ele>
        <time>2021-08-29T06:56:54.000Z</time>
      </trkpt>
      <trkpt lat="54.394959" lon="9.672156">
        <ele>10.187441</ele>
        <time>2021-08-29T06:56:59.000Z</time>
      </trkpt>
      <trkpt lat="54.395048" lon="9.672119">
        <ele>10.181993</ele>
        <time>2021-08-29T06:57:04.000Z</time>
      </trkpt>
      <trkpt lat="54.395067" lon="9.672108">
        <ele>10.180801</ele>
        <time>2021-08-29T06:57:05.000Z</time>
      </trkpt>
      <trkpt lat="54.395101" lon="9.672043">
        <ele>10.177774</ele>
        <time>2021-08-29T06:57:08.000Z</time>
      </trkpt>
      <trkpt lat="54.395130" lon="9.672025">
        <ele>10.175940</ele>
        <time>2021-08-29T06:57:10.000Z</time>
      </trkpt>
      <trkpt lat="54.395197" lon="9.671986">
        <ele>10.171732</ele>
        <time>2021-08-29T06:57:15.000Z</time>
      </trkpt>
      <trkpt lat="54.395234" lon="9.671951">
        <ele>10.169219</ele>
        <time>2021-08-29T06:57:18.000Z</time>
      </trkpt>
      <trkpt lat="54.395274" lon="9.671920">
        <ele>10.166608</ele>
        <time>2021-08-29T06:57:21.000Z</time>
      </trkpt>
      <trkpt lat="54.395320" lon="9.671920">
        <ele>10.163872</ele>
        <time>2021-08-29T06:57:23.000Z</time>
      </trkpt>
      <trkpt lat="54.395339" lon="9.671908">
        <ele>10.162668</ele>
        <time>2021-08-29T06:57:24.000Z</time>
      </trkpt>
      <trkpt lat="54.395402" lon="9.671835">
        <ele>10.158147</ele>
        <time>2021-08-29T06:57:29.000Z</time>
      </trkpt>
      <trkpt lat="54.395453" lon="9.671704">
        <ele>10.152689</ele>
        <time>2021-08-29T06:57:35.000Z</time>
      </trkpt>
      <trkpt lat="54.395490" lon="9.671534">
        <ele>10.146404</ele>
        <time>2021-08-29T06:57:42.000Z</time>
      </trkpt>
      <trkpt lat="54.395520" lon="9.671517">
        <ele>10.144524</ele>
        <time>2021-08-29T06:57:44.000Z</time>
      </trkpt>
      <trkpt lat="54.395556" lon="9.671481">
        <ele>10.121037</ele>
        <time>2021-08-29T06:57:47.000Z</time>
      </trkpt>
      <trkpt lat="54.395571" lon="9.671470">
        <ele>10.110395</ele>
        <time>2021-08-29T06:57:48.000Z</time>
      </trkpt>
      <trkpt lat="54.395606" lon="9.671460">
        <ele>10.087243</ele>
        <time>2021-08-29T06:57:50.000Z</time>
      </trkpt>
      <trkpt lat="54.395620" lon="9.671445">
        <ele>10.076476</ele>
        <time>2021-08-29T06:57:51.000Z</time>
      </trkpt>
      <trkpt lat="54.395662" lon="9.671403">
        <ele>10.044764</ele>
        <time>2021-08-29T06:57:54.000Z</time>
      </trkpt>
      <trkpt lat="54.395698" lon="9.671361">
        <ele>10.016367</ele>
        <time>2021-08-29T06:57:58.000Z</time>
      </trkpt>
      <trkpt lat="54.395709" lon="9.671367">
        <ele>10.008837</ele>
        <time>2021-08-29T06:57:59.000Z</time>
      </trkpt>
      <trkpt lat="54.395773" lon="9.671455">
        <ele>9.955343</ele>
        <time>2021-08-29T06:58:04.000Z</time>
      </trkpt>
      <trkpt lat="54.395781" lon="9.671472">
        <ele>9.947039</ele>
        <time>2021-08-29T06:58:05.000Z</time>
      </trkpt>
      <trkpt lat="54.395814" lon="9.671519">
        <ele>9.919067</ele>
        <time>2021-08-29T06:58:08.000Z</time>
      </trkpt>
      <trkpt lat="54.395837" lon="9.671545">
        <ele>9.901100</ele>
        <time>2021-08-29T06:58:10.000Z</time>
      </trkpt>
      <trkpt lat="54.395855" lon="9.671574">
        <ele>9.884997</ele>
        <time>2021-08-29T06:58:12.000Z</time>
      </trkpt>
      <trkpt lat="54.395860" lon="9.671584">
        <ele>9.879989</ele>
        <time>2021-08-29T06:58:13.000Z</time>
      </trkpt>
      <trkpt lat="54.395880" lon="9.671647">
        <ele>9.852730</ele>
        <time>2021-08-29T06:58:17.000Z</time>
      </trkpt>
      <trkpt lat="54.395893" lon="9.671683">
        <ele>9.836637</ele>
        <time>2021-08-29T06:58:19.000Z</time>
      </trkpt>
      <trkpt lat="54.395906" lon="9.671717">
        <ele>9.821184</ele>
        <time>2021-08-29T06:58:20.000Z</time>
      </trkpt>
      <trkpt lat="54.395995" lon="9.671873">
        <ele>9.738211</ele>
        <time>2021-08-29T06:58:27.000Z</time>
      </trkpt>
      <trkpt lat="54.396010" lon="9.671930">
        <ele>9.714449</ele>
        <time>2021-08-29T06:58:30.000Z</time>
      </trkpt>
      <trkpt lat="54.396029" lon="9.672013">
        <ele>9.680569</ele>
        <time>2021-08-29T06:58:33.000Z</time>
      </trkpt>
      <trkpt lat="54.396102" lon="9.672136">
        <ele>9.613843</ele>
        <time>2021-08-29T06:58:39.000Z</time>
      </trkpt>
      <trkpt lat="54.396114" lon="9.672166">
        <ele>9.600016</ele>
        <time>2021-08-29T06:58:41.000Z</time>
      </trkpt>
      <trkpt lat="54.396124" lon="9.672218">
        <ele>9.579213</ele>
        <time>2021-08-29T06:58:44.000Z</time>
      </trkpt>
      <trkpt lat="54.396131" lon="9.672271">
        <ele>9.558567</ele>
        <time>2021-08-29T06:58:47.000Z</time>
      </trkpt>
      <trkpt lat="54.396142" lon="9.672292">
        <ele>9.547836</ele>
        <time>2021-08-29T06:58:48.000Z</time>
      </trkpt>
      <trkpt lat="54.396151" lon="9.672371">
        <ele>9.517256</ele>
        <time>2021-08-29T06:58:51.000Z</time>
      </trkpt>
      <trkpt lat="54.396162" lon="9.672452">
        <ele>9.485660</ele>
        <time>2021-08-29T06:58:54.000Z</time>
      </trkpt>
      <trkpt lat="54.396162" lon="9.672563">
        <ele>9.443493</ele>
        <time>2021-08-29T06:58:58.000Z</time>
      </trkpt>
      <trkpt lat="54.396165" lon="9.672606">
        <ele>9.427041</ele>
        <time>2021-08-29T06:59:00.000Z</time>
      </trkpt>
      <trkpt lat="54.396165" lon="9.672630">
        <ele>9.417924</ele>
        <time>2021-08-29T06:59:01.000Z</time>
      </trkpt>
      <trkpt lat="54.396157" lon="9.672782">
        <ele>9.359947</ele>
        <time>2021-08-29T06:59:06.000Z</time>
      </trkpt>
      <trkpt lat="54.396157" lon="9.672822">
        <ele>9.344752</ele>
        <time>2021-08-29T06:59:08.000Z</time>
      </trkpt>
      <trkpt lat="54.396151" lon="9.672900">
        <ele>9.314864</ele>
        <time>2021-08-29T06:59:11.000Z</time>
      </trkpt>
      <trkpt lat="54.396140" lon="9.672983">
        <ele>9.282527</ele>
        <time>2021-08-29T06:59:14.000Z</time>
      </trkpt>
      <trkpt lat="54.396100" lon="9.673217">
        <ele>9.189882</ele>
        <time>2021-08-29T06:59:21.000Z</time>
      </trkpt>
      <trkpt lat="54.396100" lon="9.673244">
        <ele>9.179625</ele>
        <time>2021-08-29T06:59:22.000Z</time>
      </trkpt>
      <trkpt lat="54.396089" lon="9.673300">
        <ele>9.157174</ele>
        <time>2021-08-29T06:59:25.000Z</time>
      </trkpt>
      <trkpt lat="54.396085" lon="9.673323">
        <ele>9.148055</ele>
        <time>2021-08-29T06:59:26.000Z</time>
      </trkpt>
      <trkpt lat="54.396081" lon="9.673348">
        <ele>9.138206</ele>
        <time>2021-08-29T06:59:28.000Z</time>
      </trkpt>
      <trkpt lat="54.396078" lon="9.673406">
        <ele>9.116086</ele>
        <time>2021-08-29T06:59:31.000Z</time>
      </trkpt>
      <trkpt lat="54.396077" lon="9.673438">
        <ele>9.103912</ele>
        <time>2021-08-29T06:59:32.000Z</time>
      </trkpt>
      <trkpt lat="54.396079" lon="9.673502">
        <ele>9.079565</ele>
        <time>2021-08-29T06:59:34.000Z</time>
      </trkpt>
      <trkpt lat="54.396080" lon="9.673570">
        <ele>9.053724</ele>
        <time>2021-08-29T06:59:36.000Z</time>
      </trkpt>
      <trkpt lat="54.396118" lon="9.673685">
        <ele>9.003492</ele>
        <time>2021-08-29T06:59:42.000Z</time>
      </trkpt>
      <trkpt lat="54.396124" lon="9.673708">
        <ele>8.993917</ele>
        <time>2021-08-29T06:59:43.000Z</time>
      </trkpt>
      <trkpt lat="54.396163" lon="9.673858">
        <ele>9.005276</ele>
        <time>2021-08-29T06:59:50.000Z</time>
      </trkpt>
      <trkpt lat="54.396167" lon="9.673872">
        <ele>9.010557</ele>
        <time>2021-08-29T06:59:51.000Z</time>
      </trkpt>
      <trkpt lat="54.396172" lon="9.673902">
        <ele>9.021126</ele>
        <time>2021-08-29T06:59:53.000Z</time>
      </trkpt>
      <trkpt lat="54.396183" lon="9.673948">
        <ele>9.037967</ele>
        <time>2021-08-29T06:59:55.000Z</time>
      </trkpt>
      <trkpt lat="54.396256" lon="9.674087">
        <ele>9.101367</ele>
        <time>2021-08-29T07:00:03.000Z</time>
      </trkpt>
      <trkpt lat="54.396283" lon="9.674185">
        <ele>9.138085</ele>
        <time>2021-08-29T07:00:08.000Z</time>
      </trkpt>
      <trkpt lat="54.396304" lon="9.674249">
        <ele>9.162966</ele>
        <time>2021-08-29T07:00:11.000Z</time>
      </trkpt>
      <trkpt lat="54.396313" lon="9.674269">
        <ele>9.171527</ele>
        <time>2021-08-29T07:00:12.000Z</time>
      </trkpt>
      <trkpt lat="54.396322" lon="9.674287">
        <ele>9.179563</ele>
        <time>2021-08-29T07:00:13.000Z</time>
      </trkpt>
      <trkpt lat="54.396359" lon="9.674369">
        <ele>9.214698</ele>
        <time>2021-08-29T07:00:16.000Z</time>
      </trkpt>
      <trkpt lat="54.396383" lon="9.674426">
        <ele>9.238522</ele>
        <time>2021-08-29T07:00:19.000Z</time>
      </trkpt>
      <trkpt lat="54.396380" lon="9.674447">
        <ele>9.245845</ele>
        <time>2021-08-29T07:00:20.000Z</time>
      </trkpt>
      <trkpt lat="54.396422" lon="9.674554">
        <ele>9.289550</ele>
        <time>2021-08-29T07:00:25.000Z</time>
      </trkpt>
      <trkpt lat="54.396477" lon="9.674764">
        <ele>9.367536</ele>
        <time>2021-08-29T07:00:33.000Z</time>
      </trkpt>
      <trkpt lat="54.396490" lon="9.674779">
        <ele>9.376646</ele>
        <time>2021-08-29T07:00:34.000Z</time>
      </trkpt>
      <trkpt lat="54.396493" lon="9.674794">
        <ele>9.382018</ele>
        <time>2021-08-29T07:00:35.000Z</time>
      </trkpt>
      <trkpt lat="54.396527" lon="9.674928">
        <ele>9.431522</ele>
        <time>2021-08-29T07:00:41.000Z</time>
      </trkpt>
      <trkpt lat="54.396533" lon="9.674938">
        <ele>9.436385</ele>
        <time>2021-08-29T07:00:42.000Z</time>
      </trkpt>
      <trkpt lat="54.396552" lon="9.674993">
        <ele>9.458045</ele>
        <time>2021-08-29T07:00:45.000Z</time>
      </trkpt>
      <trkpt lat="54.396568" lon="9.675051">
        <ele>9.479781</ele>
        <time>2021-08-29T07:00:47.000Z</time>
      </trkpt>
      <trkpt lat="54.396588" lon="9.675197">
        <ele>9.530577</ele>
        <time>2021-08-29T07:00:53.000Z</time>
      </trkpt>
      <trkpt lat="54.396608" lon="9.675314">
        <ele>9.571874</ele>
        <time>2021-08-29T07:01:00.000Z</time>
      </trkpt>
      <trkpt lat="54.396653" lon="9.675377">
        <ele>9.605645</ele>
        <time>2021-08-29T07:01:03.000Z</time>
      </trkpt>
      <trkpt lat="54.396671" lon="9.675436">
        <ele>9.628204</ele>
        <time>2021-08-29T07:01:05.000Z</time>
      </trkpt>
      <trkpt lat="54.396678" lon="9.675463">
        <ele>9.638214</ele>
        <time>2021-08-29T07:01:06.000Z</time>
      </trkpt>
      <trkpt lat="54.396700" lon="9.675600">
        <ele>9.686344</ele>
        <time>2021-08-29T07:01:12.000Z</time>
      </trkpt>
      <trkpt lat="54.396724" lon="9.675657">
        <ele>9.710167</ele>
        <time>2021-08-29T07:01:16.000Z</time>
      </trkpt>
      <trkpt lat="54.396742" lon="9.675727">
        <ele>9.736084</ele>
        <time>2021-08-29T07:01:19.000Z</time>
      </trkpt>
      <trkpt lat="54.396749" lon="9.675752">
        <ele>9.745479</ele>
        <time>2021-08-29T07:01:20.000Z</time>
      </trkpt>
      <trkpt lat="54.396761" lon="9.675773">
        <ele>9.755444</ele>
        <time>2021-08-29T07:01:21.000Z</time>
      </trkpt>
      <trkpt lat="54.396796" lon="9.675850">
        <ele>9.788529</ele>
        <time>2021-08-29T07:01:25.000Z</time>
      </trkpt>
      <trkpt lat="54.396803" lon="9.675874">
        <ele>9.797620</ele>
        <time>2021-08-29T07:01:26.000Z</time>
      </trkpt>
      <trkpt lat="54.396830" lon="9.676019">
        <ele>9.849177</ele>
        <time>2021-08-29T07:01:32.000Z</time>
      </trkpt>
      <trkpt lat="54.396867" lon="9.676133">
        <ele>9.893379</ele>
        <time>2021-08-29T07:01:38.000Z</time>
      </trkpt>
      <trkpt lat="54.396889" lon="9.676186">
        <ele>9.915424</ele>
        <time>2021-08-29T07:01:41.000Z</time>
      </trkpt>
      <trkpt lat="54.396897" lon="9.676207">
        <ele>9.923923</ele>
        <time>2021-08-29T07:01:42.000Z</time>
      </trkpt>
      <trkpt lat="54.396905" lon="9.676270">
        <ele>9.945761</ele>
        <time>2021-08-29T07:01:45.000Z</time>
      </trkpt>
      <trkpt lat="54.396900" lon="9.676295">
        <ele>9.954713</ele>
        <time>2021-08-29T07:01:46.000Z</time>
      </trkpt>
      <trkpt lat="54.396978" lon="9.676448">
        <ele>10.018632</ele>
        <time>2021-08-29T07:01:53.000Z</time>
      </trkpt>
      <trkpt lat="54.397035" lon="9.676575">
        <ele>10.033081</ele>
        <time>2021-08-29T07:01:59.000Z</time>
      </trkpt>
      <trkpt lat="54.397058" lon="9.676617">
        <ele>10.038277</ele>
        <time>2021-08-29T07:02:01.000Z</time>
      </trkpt>
      <trkpt lat="54.397063" lon="9.676639">
        <ele>10.040405</ele>
        <time>2021-08-29T07:02:02.000Z</time>
      </trkpt>
      <trkpt lat="54.397075" lon="9.676702">
        <ele>10.046377</ele>
        <time>2021-08-29T07:02:05.000Z</time>
      </trkpt>
      <trkpt lat="54.397114" lon="9.676867">
        <ele>10.062423</ele>
        <time>2021-08-29T07:02:12.000Z</time>
      </trkpt>
      <trkpt lat="54.397136" lon="9.676912">
        <ele>10.067717</ele>
        <time>2021-08-29T07:02:14.000Z</time>
      </trkpt>
      <trkpt lat="54.397168" lon="9.676958">
        <ele>10.074176</ele>
        <time>2021-08-29T07:02:16.000Z</time>
      </trkpt>
      <trkpt lat="54.397175" lon="9.677006">
        <ele>10.078634</ele>
        <time>2021-08-29T07:02:18.000Z</time>
      </trkpt>
      <trkpt lat="54.397181" lon="9.677071">
        <ele>10.084564</ele>
        <time>2021-08-29T07:02:21.000Z</time>
      </trkpt>
      <trkpt lat="54.397204" lon="9.677136">
        <ele>10.091418</ele>
        <time>2021-08-29T07:02:24.000Z</time>
      </trkpt>
      <trkpt lat="54.397245" lon="9.677233">
        <ele>10.102218</ele>
        <time>2021-08-29T07:02:28.000Z</time>
      </trkpt>
      <trkpt lat="54.397298" lon="9.677329">
        <ele>10.114139</ele>
        <time>2021-08-29T07:02:33.000Z</time>
      </trkpt>
      <trkpt lat="54.397312" lon="9.677370">
        <ele>10.118422</ele>
        <time>2021-08-29T07:02:35.000Z</time>
      </trkpt>
      <trkpt lat="54.397323" lon="9.677450">
        <ele>10.125828</ele>
        <time>2021-08-29T07:02:39.000Z</time>
      </trkpt>
      <trkpt lat="54.397330" lon="9.677486">
        <ele>10.129248</ele>
        <time>2021-08-29T07:02:41.000Z</time>
      </trkpt>
      <trkpt lat="54.397332" lon="9.677520">
        <ele>10.132327</ele>
        <time>2021-08-29T07:02:42.000Z</time>
      </trkpt>
      <trkpt lat="54.397355" lon="9.677713">
        <ele>10.150078</ele>
        <time>2021-08-29T07:02:49.000Z</time>
      </trkpt>
      <trkpt lat="54.397366" lon="9.677798">
        <ele>10.157923</ele>
        <time>2021-08-29T07:02:53.000Z</time>
      </trkpt>
      <trkpt lat="54.397367" lon="9.677861">
        <ele>10.163602</ele>
        <time>2021-08-29T07:02:56.000Z</time>
      </trkpt>
      <trkpt lat="54.397384" lon="9.677892">
        <ele>10.167439</ele>
        <time>2021-08-29T07:02:58.000Z</time>
      </trkpt>
      <trkpt lat="54.397408" lon="9.677961">
        <ele>10.174681</ele>
        <time>2021-08-29T07:03:02.000Z</time>
      </trkpt>
      <trkpt lat="54.397428" lon="9.678032">
        <ele>10.181788</ele>
        <time>2021-08-29T07:03:06.000Z</time>
      </trkpt>
      <trkpt lat="54.397439" lon="9.678115">
        <ele>10.189458</ele>
        <time>2021-08-29T07:03:10.000Z</time>
      </trkpt>
      <trkpt lat="54.397475" lon="9.678181">
        <ele>10.197607</ele>
        <time>2021-08-29T07:03:14.000Z</time>
      </trkpt>
      <trkpt lat="54.397477" lon="9.678190">
        <ele>10.198475</ele>
        <time>2021-08-29T07:03:15.000Z</time>
      </trkpt>
      <trkpt lat="54.397488" lon="9.678198">
        <ele>10.200324</ele>
        <time>2021-08-29T07:03:16.000Z</time>
      </trkpt>
      <trkpt lat="54.397493" lon="9.678211">
        <ele>10.201727</ele>
        <time>2021-08-29T07:03:17.000Z</time>
      </trkpt>
      <trkpt lat="54.397546" lon="9.678283">
        <ele>10.212186</ele>
        <time>2021-08-29T07:03:22.000Z</time>
      </trkpt>
      <trkpt lat="54.397548" lon="9.678288">
        <ele>10.212732</ele>
        <time>2021-08-29T07:03:23.000Z</time>
      </trkpt>
      <trkpt lat="54.397580" lon="9.678355">
        <ele>10.220541</ele>
        <time>2021-08-29T07:03:27.000Z</time>
      </trkpt>
      <trkpt lat="54.397613" lon="9.678432">
        <ele>10.229156</ele>
        <time>2021-08-29T07:03:30.000Z</time>
      </trkpt>
      <trkpt lat="54.397645" lon="9.678493">
        <ele>10.236554</ele>
        <time>2021-08-29T07:03:33.000Z</time>
      </trkpt>
      <trkpt lat="54.397671" lon="9.678536">
        <ele>10.242140</ele>
        <time>2021-08-29T07:03:35.000Z</time>
      </trkpt>
      <trkpt lat="54.397688" lon="9.678549">
        <ele>10.245020</ele>
        <time>2021-08-29T07:03:36.000Z</time>
      </trkpt>
      <trkpt lat="54.397786" lon="9.678714">
        <ele>10.266259</ele>
        <time>2021-08-29T07:03:43.000Z</time>
      </trkpt>
      <trkpt lat="54.397830" lon="9.678813">
        <ele>10.277481</ele>
        <time>2021-08-29T07:03:48.000Z</time>
      </trkpt>
      <trkpt lat="54.397853" lon="9.678823">
        <ele>10.281153</ele>
        <time>2021-08-29T07:03:49.000Z</time>
      </trkpt>
      <trkpt lat="54.397870" lon="9.678837">
        <ele>10.284071</ele>
        <time>2021-08-29T07:03:51.000Z</time>
      </trkpt>
      <trkpt lat="54.397876" lon="9.678838">
        <ele>10.285004</ele>
        <time>2021-08-29T07:03:52.000Z</time>
      </trkpt>
      <trkpt lat="54.397909" lon="9.678831">
        <ele>10.290150</ele>
        <time>2021-08-29T07:03:55.000Z</time>
      </trkpt>
      <trkpt lat="54.397921" lon="9.678831">
        <ele>10.292008</ele>
        <time>2021-08-29T07:03:56.000Z</time>
      </trkpt>
      <trkpt lat="54.397950" lon="9.678833">
        <ele>10.291331</ele>
        <time>2021-08-29T07:03:58.000Z</time>
      </trkpt>
      <trkpt lat="54.398029" lon="9.678829">
        <ele>10.254348</ele>
        <time>2021-08-29T07:04:03.000Z</time>
      </trkpt>
      <trkpt lat="54.398077" lon="9.678810">
        <ele>10.231298</ele>
        <time>2021-08-29T07:04:07.000Z</time>
      </trkpt>
      <trkpt lat="54.398122" lon="9.678778">
        <ele>10.208508</ele>
        <time>2021-08-29T07:04:10.000Z</time>
      </trkpt>
      <trkpt lat="54.398174" lon="9.678762">
        <ele>10.183788</ele>
        <time>2021-08-29T07:04:13.000Z</time>
      </trkpt>
      <trkpt lat="54.398205" lon="9.678760">
        <ele>10.169271</ele>
        <time>2021-08-29T07:04:15.000Z</time>
      </trkpt>
      <trkpt lat="54.398217" lon="9.678763">
        <ele>10.163597</ele>
        <time>2021-08-29T07:04:16.000Z</time>
      </trkpt>
      <trkpt lat="54.398264" lon="9.678758">
        <ele>10.141562</ele>
        <time>2021-08-29T07:04:20.000Z</time>
      </trkpt>
      <trkpt lat="54.398318" lon="9.678753">
        <ele>10.116256</ele>
        <time>2021-08-29T07:04:24.000Z</time>
      </trkpt>
      <trkpt lat="54.398348" lon="9.678751">
        <ele>10.102208</ele>
        <time>2021-08-29T07:04:26.000Z</time>
      </trkpt>
      <trkpt lat="54.398391" lon="9.678750">
        <ele>10.082084</ele>
        <time>2021-08-29T07:04:30.000Z</time>
      </trkpt>
      <trkpt lat="54.398517" lon="9.678747">
        <ele>10.023118</ele>
        <time>2021-08-29T07:04:38.000Z</time>
      </trkpt>
      <trkpt lat="54.398584" lon="9.678742">
        <ele>9.991737</ele>
        <time>2021-08-29T07:04:43.000Z</time>
      </trkpt>
      <trkpt lat="54.398598" lon="9.678741">
        <ele>9.985180</ele>
        <time>2021-08-29T07:04:44.000Z</time>
      </trkpt>
      <trkpt lat="54.398670" lon="9.678721">
        <ele>9.951051</ele>
        <time>2021-08-29T07:04:49.000Z</time>
      </trkpt>
      <trkpt lat="54.398699" lon="9.678717">
        <ele>9.937437</ele>
        <time>2021-08-29T07:04:51.000Z</time>
      </trkpt>
      <trkpt lat="54.398810" lon="9.678702">
        <ele>9.885335</ele>
        <time>2021-08-29T07:04:56.000Z</time>
      </trkpt>
      <trkpt lat="54.398846" lon="9.678698">
        <ele>9.868454</ele>
        <time>2021-08-29T07:04:58.000Z</time>
      </trkpt>
      <trkpt lat="54.398971" lon="9.678665">
        <ele>9.809275</ele>
        <time>2021-08-29T07:05:06.000Z</time>
      </trkpt>
      <trkpt lat="54.398983" lon="9.678658">
        <ele>9.803345</ele>
        <time>2021-08-29T07:05:07.000Z</time>
      </trkpt>
      <trkpt lat="54.399143" lon="9.678633">
        <ele>9.728165</ele>
        <time>2021-08-29T07:05:16.000Z</time>
      </trkpt>
      <trkpt lat="54.399306" lon="9.678594">
        <ele>9.651155</ele>
        <time>2021-08-29T07:05:25.000Z</time>
      </trkpt>
      <trkpt lat="54.399404" lon="9.678576">
        <ele>9.605035</ele>
        <time>2021-08-29T07:05:32.000Z</time>
      </trkpt>
      <trkpt lat="54.399433" lon="9.678558">
        <ele>9.590607</ele>
        <time>2021-08-29T07:05:34.000Z</time>
      </trkpt>
      <trkpt lat="54.399448" lon="9.678563">
        <ele>9.583457</ele>
        <time>2021-08-29T07:05:35.000Z</time>
      </trkpt>
      <trkpt lat="54.399489" lon="9.678552">
        <ele>9.564038</ele>
        <time>2021-08-29T07:05:38.000Z</time>
      </trkpt>
      <trkpt lat="54.399503" lon="9.678543">
        <ele>9.557044</ele>
        <time>2021-08-29T07:05:39.000Z</time>
      </trkpt>
      <trkpt lat="54.399545" lon="9.678527">
        <ele>9.536913</ele>
        <time>2021-08-29T07:05:43.000Z</time>
      </trkpt>
      <trkpt lat="54.399570" lon="9.678525">
        <ele>9.525201</ele>
        <time>2021-08-29T07:05:45.000Z</time>
      </trkpt>
      <trkpt lat="54.399680" lon="9.678521">
        <ele>9.473717</ele>
        <time>2021-08-29T07:05:52.000Z</time>
      </trkpt>
      <trkpt lat="54.399798" lon="9.678522">
        <ele>9.457990</ele>
        <time>2021-08-29T07:06:01.000Z</time>
      </trkpt>
      <trkpt lat="54.399900" lon="9.678515">
        <ele>9.464027</ele>
        <time>2021-08-29T07:06:06.000Z</time>
      </trkpt>
      <trkpt lat="54.399949" lon="9.678516">
        <ele>9.466925</ele>
        <time>2021-08-29T07:06:09.000Z</time>
      </trkpt>
      <trkpt lat="54.400025" lon="9.678515">
        <ele>9.471420</ele>
        <time>2021-08-29T07:06:14.000Z</time>
      </trkpt>
      <trkpt lat="54.400041" lon="9.678516">
        <ele>9.472367</ele>
        <time>2021-08-29T07:06:15.000Z</time>
      </trkpt>
      <trkpt lat="54.400057" lon="9.678518">
        <ele>9.473316</ele>
        <time>2021-08-29T07:06:16.000Z</time>
      </trkpt>
      <trkpt lat="54.400144" lon="9.678483">
        <ele>9.478600</ele>
        <time>2021-08-29T07:06:21.000Z</time>
      </trkpt>
      <trkpt lat="54.400175" lon="9.678447">
        <ele>9.480813</ele>
        <time>2021-08-29T07:06:23.000Z</time>
      </trkpt>
      <trkpt lat="54.400220" lon="9.678393">
        <ele>9.484059</ele>
        <time>2021-08-29T07:06:26.000Z</time>
      </trkpt>
      <trkpt lat="54.400242" lon="9.678350">
        <ele>9.486030</ele>
        <time>2021-08-29T07:06:28.000Z</time>
      </trkpt>
      <trkpt lat="54.400259" lon="9.678300">
        <ele>9.488024</ele>
        <time>2021-08-29T07:06:30.000Z</time>
      </trkpt>
      <trkpt lat="54.400296" lon="9.678187">
        <ele>9.492487</ele>
        <time>2021-08-29T07:06:35.000Z</time>
      </trkpt>
      <trkpt lat="54.400313" lon="9.678134">
        <ele>9.494570</ele>
        <time>2021-08-29T07:06:37.000Z</time>
      </trkpt>
      <trkpt lat="54.400357" lon="9.677954">
        <ele>9.501291</ele>
        <time>2021-08-29T07:06:44.000Z</time>
      </trkpt>
      <trkpt lat="54.400416" lon="9.677761">
        <ele>9.508796</ele>
        <time>2021-08-29T07:06:52.000Z</time>
      </trkpt>
      <trkpt lat="54.400461" lon="9.677624">
        <ele>9.514211</ele>
        <time>2021-08-29T07:06:59.000Z</time>
      </trkpt>
      <trkpt lat="54.400505" lon="9.677437">
        <ele>9.521155</ele>
        <time>2021-08-29T07:07:07.000Z</time>
      </trkpt>
      <trkpt lat="54.400571" lon="9.677298">
        <ele>9.527330</ele>
        <time>2021-08-29T07:07:14.000Z</time>
      </trkpt>
      <trkpt lat="54.400585" lon="9.677262">
        <ele>9.528821</ele>
        <time>2021-08-29T07:07:16.000Z</time>
      </trkpt>
      <trkpt lat="54.400622" lon="9.677181">
        <ele>9.532365</ele>
        <time>2021-08-29T07:07:21.000Z</time>
      </trkpt>
      <trkpt lat="54.400639" lon="9.677141">
        <ele>9.534070</ele>
        <time>2021-08-29T07:07:23.000Z</time>
      </trkpt>
      <trkpt lat="54.400677" lon="9.676964">
        <ele>9.540565</ele>
        <time>2021-08-29T07:07:30.000Z</time>
      </trkpt>
      <trkpt lat="54.400703" lon="9.676910">
        <ele>9.542977</ele>
        <time>2021-08-29T07:07:33.000Z</time>
      </trkpt>
      <trkpt lat="54.400699" lon="9.676834">
        <ele>9.545604</ele>
        <time>2021-08-29T07:07:35.000Z</time>
      </trkpt>
      <trkpt lat="54.400716" lon="9.676801">
        <ele>9.547122</ele>
        <time>2021-08-29T07:07:37.000Z</time>
      </trkpt>
      <trkpt lat="54.400747" lon="9.676758">
        <ele>9.549478</ele>
        <time>2021-08-29T07:07:40.000Z</time>
      </trkpt>
      <trkpt lat="54.400759" lon="9.676746">
        <ele>9.550299</ele>
        <time>2021-08-29T07:07:41.000Z</time>
      </trkpt>
      <trkpt lat="54.400862" lon="9.676626">
        <ele>9.557659</ele>
        <time>2021-08-29T07:07:49.000Z</time>
      </trkpt>
      <trkpt lat="54.400929" lon="9.676562">
        <ele>9.574177</ele>
        <time>2021-08-29T07:07:54.000Z</time>
      </trkpt>
      <trkpt lat="54.400954" lon="9.676538">
        <ele>9.584843</ele>
        <time>2021-08-29T07:07:56.000Z</time>
      </trkpt>
      <trkpt lat="54.401012" lon="9.676335">
        <ele>9.633867</ele>
        <time>2021-08-29T07:08:03.000Z</time>
      </trkpt>
      <trkpt lat="54.401102" lon="9.676215">
        <ele>9.676296</ele>
        <time>2021-08-29T07:08:10.000Z</time>
      </trkpt>
      <trkpt lat="54.401175" lon="9.676071">
        <ele>9.717693</ele>
        <time>2021-08-29T07:08:17.000Z</time>
      </trkpt>
      <trkpt lat="54.401248" lon="9.675940">
        <ele>9.757008</ele>
        <time>2021-08-29T07:08:24.000Z</time>
      </trkpt>
      <trkpt lat="54.401257" lon="9.675921">
        <ele>9.762319</ele>
        <time>2021-08-29T07:08:25.000Z</time>
      </trkpt>
      <trkpt lat="54.401264" lon="9.675900">
        <ele>9.767565</ele>
        <time>2021-08-29T07:08:26.000Z</time>
      </trkpt>
      <trkpt lat="54.401336" lon="9.675795">
        <ele>9.802738</ele>
        <time>2021-08-29T07:08:32.000Z</time>
      </trkpt>
      <trkpt lat="54.401390" lon="9.675740">
        <ele>9.826118</ele>
        <time>2021-08-29T07:08:36.000Z</time>
      </trkpt>
      <trkpt lat="54.401430" lon="9.675706">
        <ele>9.842739</ele>
        <time>2021-08-29T07:08:39.000Z</time>
      </trkpt>
      <trkpt lat="54.401481" lon="9.675588">
        <ele>9.874601</ele>
        <time>2021-08-29T07:08:46.000Z</time>
      </trkpt>
      <trkpt lat="54.401511" lon="9.675469">
        <ele>9.902714</ele>
        <time>2021-08-29T07:08:51.000Z</time>
      </trkpt>
      <trkpt lat="54.401532" lon="9.675413">
        <ele>9.917155</ele>
        <time>2021-08-29T07:08:54.000Z</time>
      </trkpt>
      <trkpt lat="54.401572" lon="9.675361">
        <ele>9.935837</ele>
        <time>2021-08-29T07:08:58.000Z</time>
      </trkpt>
      <trkpt lat="54.401647" lon="9.675290">
        <ele>9.967729</ele>
        <time>2021-08-29T07:09:04.000Z</time>
      </trkpt>
      <trkpt lat="54.401671" lon="9.675282">
        <ele>9.976834</ele>
        <time>2021-08-29T07:09:05.000Z</time>
      </trkpt>
      <trkpt lat="54.401744" lon="9.675278">
        <ele>10.004035</ele>
        <time>2021-08-29T07:09:10.000Z</time>
      </trkpt>
      <trkpt lat="54.401752" lon="9.675282">
        <ele>10.007138</ele>
        <time>2021-08-29T07:09:11.000Z</time>
      </trkpt>
      <trkpt lat="54.401840" lon="9.675272">
        <ele>10.039983</ele>
        <time>2021-08-29T07:09:17.000Z</time>
      </trkpt>
      <trkpt lat="54.401934" lon="9.675240">
        <ele>10.075672</ele>
        <time>2021-08-29T07:09:24.000Z</time>
      </trkpt>
      <trkpt lat="54.401995" lon="9.675237">
        <ele>10.098399</ele>
        <time>2021-08-29T07:09:28.000Z</time>
      </trkpt>
      <trkpt lat="54.402057" lon="9.675271">
        <ele>10.122637</ele>
        <time>2021-08-29T07:09:32.000Z</time>
      </trkpt>
      <trkpt lat="54.402112" lon="9.675299">
        <ele>10.144001</ele>
        <time>2021-08-29T07:09:35.000Z</time>
      </trkpt>
      <trkpt lat="54.402141" lon="9.675323">
        <ele>10.155989</ele>
        <time>2021-08-29T07:09:37.000Z</time>
      </trkpt>
      <trkpt lat="54.402192" lon="9.675358">
        <ele>10.176442</ele>
        <time>2021-08-29T07:09:40.000Z</time>
      </trkpt>
      <trkpt lat="54.402263" lon="9.675447">
        <ele>10.209175</ele>
        <time>2021-08-29T07:09:44.000Z</time>
      </trkpt>
      <trkpt lat="54.402312" lon="9.675583">
        <ele>10.274159</ele>
        <time>2021-08-29T07:09:51.000Z</time>
      </trkpt>
      <trkpt lat="54.402379" lon="9.675725">
        <ele>10.399225</ele>
        <time>2021-08-29T07:09:58.000Z</time>
      </trkpt>
      <trkpt lat="54.402422" lon="9.675836">
        <ele>10.490452</ele>
        <time>2021-08-29T07:10:03.000Z</time>
      </trkpt>
      <trkpt lat="54.402433" lon="9.675855">
        <ele>10.508787</ele>
        <time>2021-08-29T07:10:04.000Z</time>
      </trkpt>
      <trkpt lat="54.402453" lon="9.675914">
        <ele>10.555501</ele>
        <time>2021-08-29T07:10:07.000Z</time>
      </trkpt>
      <trkpt lat="54.402474" lon="9.676000">
        <ele>10.619309</ele>
        <time>2021-08-29T07:10:10.000Z</time>
      </trkpt>
      <trkpt lat="54.402533" lon="9.676190">
        <ele>10.766648</ele>
        <time>2021-08-29T07:10:17.000Z</time>
      </trkpt>
      <trkpt lat="54.402539" lon="9.676218">
        <ele>10.787062</ele>
        <time>2021-08-29T07:10:18.000Z</time>
      </trkpt>
      <trkpt lat="54.402547" lon="9.676248">
        <ele>10.809639</ele>
        <time>2021-08-29T07:10:19.000Z</time>
      </trkpt>
      <trkpt lat="54.402620" lon="9.676463">
        <ele>10.979938</ele>
        <time>2021-08-29T07:10:28.000Z</time>
      </trkpt>
      <trkpt lat="54.402651" lon="9.676550">
        <ele>11.049730</ele>
        <time>2021-08-29T07:10:32.000Z</time>
      </trkpt>
      <trkpt lat="54.402668" lon="9.676611">
        <ele>11.096003</ele>
        <time>2021-08-29T07:10:35.000Z</time>
      </trkpt>
      <trkpt lat="54.402715" lon="9.676772">
        <ele>11.219234</ele>
        <time>2021-08-29T07:10:42.000Z</time>
      </trkpt>
      <trkpt lat="54.402756" lon="9.676958">
        <ele>11.355314</ele>
        <time>2021-08-29T07:10:49.000Z</time>
      </trkpt>
      <trkpt lat="54.402770" lon="9.677003">
        <ele>11.390224</ele>
        <time>2021-08-29T07:10:51.000Z</time>
      </trkpt>
      <trkpt lat="54.402841" lon="9.677217">
        <ele>11.558755</ele>
        <time>2021-08-29T07:10:59.000Z</time>
      </trkpt>
      <trkpt lat="54.402864" lon="9.677272">
        <ele>11.605089</ele>
        <time>2021-08-29T07:11:01.000Z</time>
      </trkpt>
      <trkpt lat="54.402872" lon="9.677323">
        <ele>11.641228</ele>
        <time>2021-08-29T07:11:03.000Z</time>
      </trkpt>
      <trkpt lat="54.402875" lon="9.677397">
        <ele>11.691981</ele>
        <time>2021-08-29T07:11:06.000Z</time>
      </trkpt>
      <trkpt lat="54.402890" lon="9.677566">
        <ele>11.808945</ele>
        <time>2021-08-29T07:11:14.000Z</time>
      </trkpt>
      <trkpt lat="54.402921" lon="9.677705">
        <ele>11.910789</ele>
        <time>2021-08-29T07:11:20.000Z</time>
      </trkpt>
      <trkpt lat="54.402941" lon="9.677743">
        <ele>11.945840</ele>
        <time>2021-08-29T07:11:22.000Z</time>
      </trkpt>
      <trkpt lat="54.402977" lon="9.677802">
        <ele>12.004322</ele>
        <time>2021-08-29T07:11:26.000Z</time>
      </trkpt>
      <trkpt lat="54.403003" lon="9.678025">
        <ele>12.159926</ele>
        <time>2021-08-29T07:11:33.000Z</time>
      </trkpt>
      <trkpt lat="54.403042" lon="9.678227">
        <ele>12.305536</ele>
        <time>2021-08-29T07:11:39.000Z</time>
      </trkpt>
      <trkpt lat="54.403049" lon="9.678264">
        <ele>12.332155</ele>
        <time>2021-08-29T07:11:40.000Z</time>
      </trkpt>
      <trkpt lat="54.403069" lon="9.678383">
        <ele>12.368501</ele>
        <time>2021-08-29T07:11:44.000Z</time>
      </trkpt>
      <trkpt lat="54.403100" lon="9.678494">
        <ele>12.396852</ele>
        <time>2021-08-29T07:11:48.000Z</time>
      </trkpt>
      <trkpt lat="54.403131" lon="9.678665">
        <ele>12.438095</ele>
        <time>2021-08-29T07:11:55.000Z</time>
      </trkpt>
      <trkpt lat="54.403139" lon="9.678687">
        <ele>12.444068</ele>
        <time>2021-08-29T07:11:56.000Z</time>
      </trkpt>
      <trkpt lat="54.403169" lon="9.678816">
        <ele>12.476057</ele>
        <time>2021-08-29T07:12:02.000Z</time>
      </trkpt>
      <trkpt lat="54.403196" lon="9.678948">
        <ele>12.508276</ele>
        <time>2021-08-29T07:12:08.000Z</time>
      </trkpt>
      <trkpt lat="54.403205" lon="9.678979">
        <ele>12.516253</ele>
        <time>2021-08-29T07:12:09.000Z</time>
      </trkpt>
      <trkpt lat="54.403225" lon="9.679110">
        <ele>12.547439</ele>
        <time>2021-08-29T07:12:14.000Z</time>
      </trkpt>
      <trkpt lat="54.403232" lon="9.679160">
        <ele>12.559282</ele>
        <time>2021-08-29T07:12:16.000Z</time>
      </trkpt>
      <trkpt lat="54.403233" lon="9.679254">
        <ele>12.580931</ele>
        <time>2021-08-29T07:12:21.000Z</time>
      </trkpt>
      <trkpt lat="54.403232" lon="9.679276">
        <ele>12.586013</ele>
        <time>2021-08-29T07:12:22.000Z</time>
      </trkpt>
      <trkpt lat="54.403247" lon="9.679362">
        <ele>12.606686</ele>
        <time>2021-08-29T07:12:26.000Z</time>
      </trkpt>
      <trkpt lat="54.403264" lon="9.679444">
        <ele>12.626731</ele>
        <time>2021-08-29T07:12:30.000Z</time>
      </trkpt>
      <trkpt lat="54.403267" lon="9.679465">
        <ele>12.631710</ele>
        <time>2021-08-29T07:12:31.000Z</time>
      </trkpt>
      <trkpt lat="54.403270" lon="9.679485">
        <ele>12.636466</ele>
        <time>2021-08-29T07:12:32.000Z</time>
      </trkpt>
      <trkpt lat="54.403340" lon="9.679637">
        <ele>12.681098</ele>
        <time>2021-08-29T07:12:38.000Z</time>
      </trkpt>
      <trkpt lat="54.403355" lon="9.679807">
        <ele>12.720692</ele>
        <time>2021-08-29T07:12:44.000Z</time>
      </trkpt>
      <trkpt lat="54.403340" lon="9.679955">
        <ele>12.755286</ele>
        <time>2021-08-29T07:12:49.000Z</time>
      </trkpt>
      <trkpt lat="54.403335" lon="9.680010">
        <ele>12.768105</ele>
        <time>2021-08-29T07:12:51.000Z</time>
      </trkpt>
      <trkpt lat="54.403312" lon="9.680141">
        <ele>12.799613</ele>
        <time>2021-08-29T07:12:56.000Z</time>
      </trkpt>
      <trkpt lat="54.403294" lon="9.680213">
        <ele>12.817657</ele>
        <time>2021-08-29T07:12:59.000Z</time>
      </trkpt>
      <trkpt lat="54.403261" lon="9.680343">
        <ele>12.850316</ele>
        <time>2021-08-29T07:13:04.000Z</time>
      </trkpt>
      <trkpt lat="54.403245" lon="9.680414">
        <ele>12.867848</ele>
        <time>2021-08-29T07:13:07.000Z</time>
      </trkpt>
      <trkpt lat="54.403258" lon="9.680513">
        <ele>12.891219</ele>
        <time>2021-08-29T07:13:11.000Z</time>
      </trkpt>
      <trkpt lat="54.403247" lon="9.680586">
        <ele>12.908583</ele>
        <time>2021-08-29T07:13:14.000Z</time>
      </trkpt>
      <trkpt lat="54.403210" lon="9.680795">
        <ele>12.958887</ele>
        <time>2021-08-29T07:13:22.000Z</time>
      </trkpt>
      <trkpt lat="54.403164" lon="9.681024">
        <ele>13.014672</ele>
        <time>2021-08-29T07:13:31.000Z</time>
      </trkpt>
      <trkpt lat="54.403102" lon="9.681261">
        <ele>13.001191</ele>
        <time>2021-08-29T07:13:40.000Z</time>
      </trkpt>
      <trkpt lat="54.403078" lon="9.681342">
        <ele>12.941337</ele>
        <time>2021-08-29T07:13:43.000Z</time>
      </trkpt>
      <trkpt lat="54.403009" lon="9.681517">
        <ele>12.802146</ele>
        <time>2021-08-29T07:13:50.000Z</time>
      </trkpt>
      <trkpt lat="54.403000" lon="9.681715">
        <ele>12.671361</ele>
        <time>2021-08-29T07:13:58.000Z</time>
      </trkpt>
      <trkpt lat="54.402989" lon="9.681736">
        <ele>12.652757</ele>
        <time>2021-08-29T07:13:59.000Z</time>
      </trkpt>
      <trkpt lat="54.402997" lon="9.681933">
        <ele>12.522712</ele>
        <time>2021-08-29T07:14:06.000Z</time>
      </trkpt>
      <trkpt lat="54.402996" lon="9.681990">
        <ele>12.485159</ele>
        <time>2021-08-29T07:14:08.000Z</time>
      </trkpt>
      <trkpt lat="54.402944" lon="9.682164">
        <ele>12.356356</ele>
        <time>2021-08-29T07:14:15.000Z</time>
      </trkpt>
      <trkpt lat="54.402965" lon="9.682360">
        <ele>12.225117</ele>
        <time>2021-08-29T07:14:23.000Z</time>
      </trkpt>
      <trkpt lat="54.402940" lon="9.682618">
        <ele>12.052879</ele>
        <time>2021-08-29T07:14:33.000Z</time>
      </trkpt>
      <trkpt lat="54.402928" lon="9.682726">
        <ele>11.980474</ele>
        <time>2021-08-29T07:14:37.000Z</time>
      </trkpt>
      <trkpt lat="54.402906" lon="9.682862">
        <ele>11.887520</ele>
        <time>2021-08-29T07:14:42.000Z</time>
      </trkpt>
      <trkpt lat="54.402890" lon="9.682996">
        <ele>11.797440</ele>
        <time>2021-08-29T07:14:47.000Z</time>
      </trkpt>
      <trkpt lat="54.402880" lon="9.683107">
        <ele>11.723473</ele>
        <time>2021-08-29T07:14:51.000Z</time>
      </trkpt>
      <trkpt lat="54.402836" lon="9.683371">
        <ele>11.542636</ele>
        <time>2021-08-29T07:15:00.000Z</time>
      </trkpt>
      <trkpt lat="54.402807" lon="9.683659">
        <ele>11.350163</ele>
        <time>2021-08-29T07:15:10.000Z</time>
      </trkpt>
      <trkpt lat="54.402784" lon="9.683906">
        <ele>11.185438</ele>
        <time>2021-08-29T07:15:20.000Z</time>
      </trkpt>
      <trkpt lat="54.402765" lon="9.684113">
        <ele>11.047438</ele>
        <time>2021-08-29T07:15:28.000Z</time>
      </trkpt>
      <trkpt lat="54.402756" lon="9.684252">
        <ele>11.014388</ele>
        <time>2021-08-29T07:15:33.000Z</time>
      </trkpt>
      <trkpt lat="54.402748" lon="9.684334">
        <ele>11.009137</ele>
        <time>2021-08-29T07:15:36.000Z</time>
      </trkpt>
      <trkpt lat="54.402734" lon="9.684418">
        <ele>11.003619</ele>
        <time>2021-08-29T07:15:39.000Z</time>
      </trkpt>
      <trkpt lat="54.402723" lon="9.684556">
        <ele>10.994822</ele>
        <time>2021-08-29T07:15:44.000Z</time>
      </trkpt>
      <trkpt lat="54.402716" lon="9.684678">
        <ele>10.987079</ele>
        <time>2021-08-29T07:15:48.000Z</time>
      </trkpt>
      <trkpt lat="54.402710" lon="9.684813">
        <ele>10.978528</ele>
        <time>2021-08-29T07:15:53.000Z</time>
      </trkpt>
      <trkpt lat="54.402699" lon="9.684981">
        <ele>10.967851</ele>
        <time>2021-08-29T07:16:00.000Z</time>
      </trkpt>
      <trkpt lat="54.402672" lon="9.685243">
        <ele>10.951047</ele>
        <time>2021-08-29T07:16:10.000Z</time>
      </trkpt>
      <trkpt lat="54.402646" lon="9.685397">
        <ele>10.940920</ele>
        <time>2021-08-29T07:16:16.000Z</time>
      </trkpt>
      <trkpt lat="54.402638" lon="9.685457">
        <ele>10.937033</ele>
        <time>2021-08-29T07:16:18.000Z</time>
      </trkpt>
      <trkpt lat="54.402633" lon="9.685511">
        <ele>10.933579</ele>
        <time>2021-08-29T07:16:20.000Z</time>
      </trkpt>
      <trkpt lat="54.402635" lon="9.685611">
        <ele>10.927260</ele>
        <time>2021-08-29T07:16:24.000Z</time>
      </trkpt>
      <trkpt lat="54.402627" lon="9.685696">
        <ele>10.921822</ele>
        <time>2021-08-29T07:16:27.000Z</time>
      </trkpt>
      <trkpt lat="54.402606" lon="9.685812">
        <ele>10.914150</ele>
        <time>2021-08-29T07:16:31.000Z</time>
      </trkpt>
      <trkpt lat="54.402575" lon="9.686023">
        <ele>10.900406</ele>
        <time>2021-08-29T07:16:39.000Z</time>
      </trkpt>
      <trkpt lat="54.402548" lon="9.686169">
        <ele>10.890731</ele>
        <time>2021-08-29T07:16:45.000Z</time>
      </trkpt>
      <trkpt lat="54.402525" lon="9.686258">
        <ele>10.884581</ele>
        <time>2021-08-29T07:16:49.000Z</time>
      </trkpt>
      <trkpt lat="54.402518" lon="9.686285">
        <ele>10.882714</ele>
        <time>2021-08-29T07:16:50.000Z</time>
      </trkpt>
      <trkpt lat="54.402501" lon="9.686370">
        <ele>10.877038</ele>
        <time>2021-08-29T07:16:53.000Z</time>
      </trkpt>
      <trkpt lat="54.402457" lon="9.686571">
        <ele>10.863475</ele>
        <time>2021-08-29T07:17:01.000Z</time>
      </trkpt>
      <trkpt lat="54.402415" lon="9.686749">
        <ele>10.851345</ele>
        <time>2021-08-29T07:17:08.000Z</time>
      </trkpt>
      <trkpt lat="54.402377" lon="9.686899">
        <ele>10.841013</ele>
        <time>2021-08-29T07:17:14.000Z</time>
      </trkpt>
      <trkpt lat="54.402320" lon="9.687133">
        <ele>10.826154</ele>
        <time>2021-08-29T07:17:22.000Z</time>
      </trkpt>
      <trkpt lat="54.402290" lon="9.687270">
        <ele>10.838099</ele>
        <time>2021-08-29T07:17:29.000Z</time>
      </trkpt>
      <trkpt lat="54.402234" lon="9.687434">
        <ele>10.853617</ele>
        <time>2021-08-29T07:17:37.000Z</time>
      </trkpt>
      <trkpt lat="54.402189" lon="9.687577">
        <ele>10.866883</ele>
        <time>2021-08-29T07:17:43.000Z</time>
      </trkpt>
      <trkpt lat="54.402156" lon="9.687726">
        <ele>10.879894</ele>
        <time>2021-08-29T07:17:50.000Z</time>
      </trkpt>
      <trkpt lat="54.402107" lon="9.687889">
        <ele>10.894866</ele>
        <time>2021-08-29T07:17:57.000Z</time>
      </trkpt>
      <trkpt lat="54.402099" lon="9.687922">
        <ele>10.897783</ele>
        <time>2021-08-29T07:17:58.000Z</time>
      </trkpt>
      <trkpt lat="54.402067" lon="9.688072">
        <ele>10.910821</ele>
        <time>2021-08-29T07:18:04.000Z</time>
      </trkpt>
      <trkpt lat="54.402052" lon="9.688127">
        <ele>10.915778</ele>
        <time>2021-08-29T07:18:06.000Z</time>
      </trkpt>
      <trkpt lat="54.401994" lon="9.688351">
        <ele>10.935786</ele>
        <time>2021-08-29T07:18:14.000Z</time>
      </trkpt>
      <trkpt lat="54.401948" lon="9.688605">
        <ele>10.957496</ele>
        <time>2021-08-29T07:18:23.000Z</time>
      </trkpt>
      <trkpt lat="54.401902" lon="9.688763">
        <ele>10.971913</ele>
        <time>2021-08-29T07:18:30.000Z</time>
      </trkpt>
      <trkpt lat="54.401873" lon="9.688921">
        <ele>10.985434</ele>
        <time>2021-08-29T07:18:36.000Z</time>
      </trkpt>
      <trkpt lat="54.401856" lon="9.689030">
        <ele>10.994644</ele>
        <time>2021-08-29T07:18:40.000Z</time>
      </trkpt>
      <trkpt lat="54.401848" lon="9.689087">
        <ele>10.999429</ele>
        <time>2021-08-29T07:18:42.000Z</time>
      </trkpt>
      <trkpt lat="54.401841" lon="9.689113">
        <ele>11.001767</ele>
        <time>2021-08-29T07:18:43.000Z</time>
      </trkpt>
      <trkpt lat="54.401828" lon="9.689173">
        <ele>11.006992</ele>
        <time>2021-08-29T07:18:45.000Z</time>
      </trkpt>
      <trkpt lat="54.401782" lon="9.689441">
        <ele>11.029795</ele>
        <time>2021-08-29T07:18:55.000Z</time>
      </trkpt>
      <trkpt lat="54.401763" lon="9.689655">
        <ele>11.047462</ele>
        <time>2021-08-29T07:19:04.000Z</time>
      </trkpt>
      <trkpt lat="54.401728" lon="9.689866">
        <ele>11.065368</ele>
        <time>2021-08-29T07:19:12.000Z</time>
      </trkpt>
      <trkpt lat="54.401717" lon="9.690117">
        <ele>11.011335</ele>
        <time>2021-08-29T07:19:21.000Z</time>
      </trkpt>
      <trkpt lat="54.401707" lon="9.690315">
        <ele>10.880655</ele>
        <time>2021-08-29T07:19:29.000Z</time>
      </trkpt>
      <trkpt lat="54.401698" lon="9.690550">
        <ele>10.725800</ele>
        <time>2021-08-29T07:19:37.000Z</time>
      </trkpt>
      <trkpt lat="54.401697" lon="9.690756">
        <ele>10.590344</ele>
        <time>2021-08-29T07:19:45.000Z</time>
      </trkpt>
      <trkpt lat="54.401692" lon="9.691022">
        <ele>10.415349</ele>
        <time>2021-08-29T07:19:55.000Z</time>
      </trkpt>
      <trkpt lat="54.401707" lon="9.691160">
        <ele>10.323041</ele>
        <time>2021-08-29T07:20:00.000Z</time>
      </trkpt>
      <trkpt lat="54.401707" lon="9.691271">
        <ele>10.250055</ele>
        <time>2021-08-29T07:20:04.000Z</time>
      </trkpt>
      <trkpt lat="54.401716" lon="9.691478">
        <ele>10.113566</ele>
        <time>2021-08-29T07:20:12.000Z</time>
      </trkpt>
      <trkpt lat="54.401737" lon="9.691731">
        <ele>9.945528</ele>
        <time>2021-08-29T07:20:22.000Z</time>
      </trkpt>
      <trkpt lat="54.401752" lon="9.691890">
        <ele>9.839616</ele>
        <time>2021-08-29T07:20:28.000Z</time>
      </trkpt>
      <trkpt lat="54.401761" lon="9.691946">
        <ele>9.801417</ele>
        <time>2021-08-29T07:20:30.000Z</time>
      </trkpt>
      <trkpt lat="54.401765" lon="9.692145">
        <ele>9.670490</ele>
        <time>2021-08-29T07:20:37.000Z</time>
      </trkpt>
      <trkpt lat="54.401769" lon="9.692250">
        <ele>9.601301</ele>
        <time>2021-08-29T07:20:41.000Z</time>
      </trkpt>
      <trkpt lat="54.401770" lon="9.692301">
        <ele>9.567748</ele>
        <time>2021-08-29T07:20:43.000Z</time>
      </trkpt>
      <trkpt lat="54.401773" lon="9.692503">
        <ele>9.434884</ele>
        <time>2021-08-29T07:20:51.000Z</time>
      </trkpt>
      <trkpt lat="54.401773" lon="9.692553">
        <ele>9.402007</ele>
        <time>2021-08-29T07:20:53.000Z</time>
      </trkpt>
      <trkpt lat="54.401771" lon="9.692579">
        <ele>9.384763</ele>
        <time>2021-08-29T07:20:54.000Z</time>
      </trkpt>
      <trkpt lat="54.401779" lon="9.692846">
        <ele>9.208969</ele>
        <time>2021-08-29T07:21:04.000Z</time>
      </trkpt>
      <trkpt lat="54.401788" lon="9.693046">
        <ele>9.077070</ele>
        <time>2021-08-29T07:21:12.000Z</time>
      </trkpt>
      <trkpt lat="54.401785" lon="9.693071">
        <ele>9.060286</ele>
        <time>2021-08-29T07:21:13.000Z</time>
      </trkpt>
      <trkpt lat="54.401762" lon="9.693229">
        <ele>8.997822</ele>
        <time>2021-08-29T07:21:19.000Z</time>
      </trkpt>
      <trkpt lat="54.401764" lon="9.693397">
        <ele>8.940492</ele>
        <time>2021-08-29T07:21:26.000Z</time>
      </trkpt>
      <trkpt lat="54.401754" lon="9.693424">
        <ele>8.929574</ele>
        <time>2021-08-29T07:21:27.000Z</time>
      </trkpt>
      <trkpt lat="54.401784" lon="9.693540">
        <ele>8.886267</ele>
        <time>2021-08-29T07:21:31.000Z</time>
      </trkpt>
      <trkpt lat="54.401790" lon="9.693569">
        <ele>8.875767</ele>
        <time>2021-08-29T07:21:32.000Z</time>
      </trkpt>
      <trkpt lat="54.401788" lon="9.693629">
        <ele>8.855263</ele>
        <time>2021-08-29T07:21:34.000Z</time>
      </trkpt>
      <trkpt lat="54.401779" lon="9.693715">
        <ele>8.825451</ele>
        <time>2021-08-29T07:21:37.000Z</time>
      </trkpt>
      <trkpt lat="54.401766" lon="9.693785">
        <ele>8.800383</ele>
        <time>2021-08-29T07:21:40.000Z</time>
      </trkpt>
      <trkpt lat="54.401748" lon="9.693934">
        <ele>8.748465</ele>
        <time>2021-08-29T07:21:46.000Z</time>
      </trkpt>
      <trkpt lat="54.401744" lon="9.693981">
        <ele>8.732259</ele>
        <time>2021-08-29T07:21:48.000Z</time>
      </trkpt>
      <trkpt lat="54.401738" lon="9.694199">
        <ele>8.657800</ele>
        <time>2021-08-29T07:21:56.000Z</time>
      </trkpt>
      <trkpt lat="54.401742" lon="9.694427">
        <ele>8.579976</ele>
        <time>2021-08-29T07:22:05.000Z</time>
      </trkpt>
      <trkpt lat="54.401708" lon="9.694671">
        <ele>8.494377</ele>
        <time>2021-08-29T07:22:14.000Z</time>
      </trkpt>
      <trkpt lat="54.401657" lon="9.694821">
        <ele>8.435111</ele>
        <time>2021-08-29T07:22:21.000Z</time>
      </trkpt>
      <trkpt lat="54.401613" lon="9.695020">
        <ele>8.362484</ele>
        <time>2021-08-29T07:22:28.000Z</time>
      </trkpt>
      <trkpt lat="54.401617" lon="9.695041">
        <ele>8.354945</ele>
        <time>2021-08-29T07:22:29.000Z</time>
      </trkpt>
      <trkpt lat="54.401578" lon="9.695193">
        <ele>8.298272</ele>
        <time>2021-08-29T07:22:35.000Z</time>
      </trkpt>
      <trkpt lat="54.401575" lon="9.695223">
        <ele>8.287887</ele>
        <time>2021-08-29T07:22:36.000Z</time>
      </trkpt>
      <trkpt lat="54.401580" lon="9.695243">
        <ele>8.280461</ele>
        <time>2021-08-29T07:22:37.000Z</time>
      </trkpt>
      <trkpt lat="54.401570" lon="9.695292">
        <ele>8.262745</ele>
        <time>2021-08-29T07:22:39.000Z</time>
      </trkpt>
      <trkpt lat="54.401562" lon="9.695324">
        <ele>8.250863</ele>
        <time>2021-08-29T07:22:40.000Z</time>
      </trkpt>
      <trkpt lat="54.401558" lon="9.695351">
        <ele>8.241358</ele>
        <time>2021-08-29T07:22:41.000Z</time>
      </trkpt>
      <trkpt lat="54.401558" lon="9.695402">
        <ele>8.223958</ele>
        <time>2021-08-29T07:22:43.000Z</time>
      </trkpt>
      <trkpt lat="54.401553" lon="9.695449">
        <ele>8.207657</ele>
        <time>2021-08-29T07:22:45.000Z</time>
      </trkpt>
      <trkpt lat="54.401531" lon="9.695617">
        <ele>8.148907</ele>
        <time>2021-08-29T07:22:52.000Z</time>
      </trkpt>
      <trkpt lat="54.401513" lon="9.695816">
        <ele>8.080197</ele>
        <time>2021-08-29T07:22:59.000Z</time>
      </trkpt>
      <trkpt lat="54.401516" lon="9.695887">
        <ele>8.055910</ele>
        <time>2021-08-29T07:23:01.000Z</time>
      </trkpt>
      <trkpt lat="54.401476" lon="9.696086">
        <ele>7.986727</ele>
        <time>2021-08-29T07:23:09.000Z</time>
      </trkpt>
      <trkpt lat="54.401462" lon="9.696159">
        <ele>7.969565</ele>
        <time>2021-08-29T07:23:12.000Z</time>
      </trkpt>
      <trkpt lat="54.401454" lon="9.696230">
        <ele>7.953416</ele>
        <time>2021-08-29T07:23:15.000Z</time>
      </trkpt>
      <trkpt lat="54.401447" lon="9.696254">
        <ele>7.947422</ele>
        <time>2021-08-29T07:23:16.000Z</time>
      </trkpt>
      <trkpt lat="54.401452" lon="9.696490">
        <ele>7.894689</ele>
        <time>2021-08-29T07:23:24.000Z</time>
      </trkpt>
      <trkpt lat="54.401414" lon="9.696748">
        <ele>7.835263</ele>
        <time>2021-08-29T07:23:33.000Z</time>
      </trkpt>
      <trkpt lat="54.401373" lon="9.697004">
        <ele>7.775975</ele>
        <time>2021-08-29T07:23:42.000Z</time>
      </trkpt>
      <trkpt lat="54.401311" lon="9.697161">
        <ele>7.733612</ele>
        <time>2021-08-29T07:23:49.000Z</time>
      </trkpt>
      <trkpt lat="54.401260" lon="9.697331">
        <ele>7.690906</ele>
        <time>2021-08-29T07:23:56.000Z</time>
      </trkpt>
      <trkpt lat="54.401246" lon="9.697385">
        <ele>7.677706</ele>
        <time>2021-08-29T07:23:58.000Z</time>
      </trkpt>
      <trkpt lat="54.401193" lon="9.697477">
        <ele>7.648804</ele>
        <time>2021-08-29T07:24:04.000Z</time>
      </trkpt>
      <trkpt lat="54.401117" lon="9.697584">
        <ele>7.611110</ele>
        <time>2021-08-29T07:24:12.000Z</time>
      </trkpt>
      <trkpt lat="54.401078" lon="9.697644">
        <ele>7.591027</ele>
        <time>2021-08-29T07:24:15.000Z</time>
      </trkpt>
      <trkpt lat="54.401028" lon="9.697718">
        <ele>7.565711</ele>
        <time>2021-08-29T07:24:19.000Z</time>
      </trkpt>
      <trkpt lat="54.400944" lon="9.697856">
        <ele>7.521125</ele>
        <time>2021-08-29T07:24:27.000Z</time>
      </trkpt>
      <trkpt lat="54.400903" lon="9.697903">
        <ele>7.502217</ele>
        <time>2021-08-29T07:24:31.000Z</time>
      </trkpt>
      <trkpt lat="54.400873" lon="9.697926">
        <ele>7.489615</ele>
        <time>2021-08-29T07:24:33.000Z</time>
      </trkpt>
      <trkpt lat="54.400857" lon="9.697938">
        <ele>7.482918</ele>
        <time>2021-08-29T07:24:34.000Z</time>
      </trkpt>
      <trkpt lat="54.400750" lon="9.698006">
        <ele>7.439154</ele>
        <time>2021-08-29T07:24:42.000Z</time>
      </trkpt>
      <trkpt lat="54.400642" lon="9.698146">
        <ele>7.387253</ele>
        <time>2021-08-29T07:24:51.000Z</time>
      </trkpt>
      <trkpt lat="54.400558" lon="9.698206">
        <ele>7.352356</ele>
        <time>2021-08-29T07:24:57.000Z</time>
      </trkpt>
      <trkpt lat="54.400424" lon="9.698257">
        <ele>7.307864</ele>
        <time>2021-08-29T07:25:05.000Z</time>
      </trkpt>
      <trkpt lat="54.400392" lon="9.698258">
        <ele>7.344045</ele>
        <time>2021-08-29T07:25:07.000Z</time>
      </trkpt>
      <trkpt lat="54.400361" lon="9.698263">
        <ele>7.379244</ele>
        <time>2021-08-29T07:25:09.000Z</time>
      </trkpt>
      <trkpt lat="54.400347" lon="9.698272">
        <ele>7.396143</ele>
        <time>2021-08-29T07:25:10.000Z</time>
      </trkpt>
      <trkpt lat="54.400297" lon="9.698298">
        <ele>7.455199</ele>
        <time>2021-08-29T07:25:13.000Z</time>
      </trkpt>
      <trkpt lat="54.400282" lon="9.698303">
        <ele>7.472473</ele>
        <time>2021-08-29T07:25:14.000Z</time>
      </trkpt>
      <trkpt lat="54.400239" lon="9.698311">
        <ele>7.521368</ele>
        <time>2021-08-29T07:25:17.000Z</time>
      </trkpt>
      <trkpt lat="54.400197" lon="9.698311">
        <ele>7.568848</ele>
        <time>2021-08-29T07:25:20.000Z</time>
      </trkpt>
      <trkpt lat="54.400155" lon="9.698293">
        <ele>7.617783</ele>
        <time>2021-08-29T07:25:23.000Z</time>
      </trkpt>
      <trkpt lat="54.400140" lon="9.698294">
        <ele>7.634753</ele>
        <time>2021-08-29T07:25:24.000Z</time>
      </trkpt>
      <trkpt lat="54.400082" lon="9.698310">
        <ele>7.701160</ele>
        <time>2021-08-29T07:25:27.000Z</time>
      </trkpt>
      <trkpt lat="54.400031" lon="9.698288">
        <ele>7.760605</ele>
        <time>2021-08-29T07:25:30.000Z</time>
      </trkpt>
      <trkpt lat="54.400004" lon="9.698280">
        <ele>7.791578</ele>
        <time>2021-08-29T07:25:32.000Z</time>
      </trkpt>
      <trkpt lat="54.399989" lon="9.698277">
        <ele>7.808650</ele>
        <time>2021-08-29T07:25:33.000Z</time>
      </trkpt>
      <trkpt lat="54.399948" lon="9.698272">
        <ele>7.855116</ele>
        <time>2021-08-29T07:25:36.000Z</time>
      </trkpt>
      <trkpt lat="54.399850" lon="9.698265">
        <ele>7.965999</ele>
        <time>2021-08-29T07:25:43.000Z</time>
      </trkpt>
      <trkpt lat="54.399739" lon="9.698265">
        <ele>8.091482</ele>
        <time>2021-08-29T07:25:50.000Z</time>
      </trkpt>
      <trkpt lat="54.399706" lon="9.698273">
        <ele>8.129157</ele>
        <time>2021-08-29T07:25:52.000Z</time>
      </trkpt>
      <trkpt lat="54.399586" lon="9.698310">
        <ele>8.266982</ele>
        <time>2021-08-29T07:25:59.000Z</time>
      </trkpt>
      <trkpt lat="54.399458" lon="9.698366">
        <ele>8.416302</ele>
        <time>2021-08-29T07:26:07.000Z</time>
      </trkpt>
      <trkpt lat="54.399374" lon="9.698396">
        <ele>8.513293</ele>
        <time>2021-08-29T07:26:13.000Z</time>
      </trkpt>
      <trkpt lat="54.399282" lon="9.698416">
        <ele>8.618126</ele>
        <time>2021-08-29T07:26:19.000Z</time>
      </trkpt>
      <trkpt lat="54.399207" lon="9.698474">
        <ele>8.711107</ele>
        <time>2021-08-29T07:26:24.000Z</time>
      </trkpt>
      <trkpt lat="54.399158" lon="9.698498">
        <ele>8.768708</ele>
        <time>2021-08-29T07:26:27.000Z</time>
      </trkpt>
      <trkpt lat="54.399140" lon="9.698507">
        <ele>8.789901</ele>
        <time>2021-08-29T07:26:28.000Z</time>
      </trkpt>
      <trkpt lat="54.399034" lon="9.698566">
        <ele>8.915865</ele>
        <time>2021-08-29T07:26:35.000Z</time>
      </trkpt>
      <trkpt lat="54.398955" lon="9.698625">
        <ele>9.013248</ele>
        <time>2021-08-29T07:26:42.000Z</time>
      </trkpt>
      <trkpt lat="54.398855" lon="9.698714">
        <ele>9.140568</ele>
        <time>2021-08-29T07:26:49.000Z</time>
      </trkpt>
      <trkpt lat="54.398779" lon="9.698810">
        <ele>9.247212</ele>
        <time>2021-08-29T07:26:55.000Z</time>
      </trkpt>
      <trkpt lat="54.398758" lon="9.698829">
        <ele>9.274043</ele>
        <time>2021-08-29T07:26:57.000Z</time>
      </trkpt>
      <trkpt lat="54.398709" lon="9.698892">
        <ele>9.330868</ele>
        <time>2021-08-29T07:27:01.000Z</time>
      </trkpt>
      <trkpt lat="54.398677" lon="9.698948">
        <ele>9.304023</ele>
        <time>2021-08-29T07:27:04.000Z</time>
      </trkpt>
      <trkpt lat="54.398625" lon="9.699103">
        <ele>9.242822</ele>
        <time>2021-08-29T07:27:10.000Z</time>
      </trkpt>
      <trkpt lat="54.398586" lon="9.699248">
        <ele>9.188179</ele>
        <time>2021-08-29T07:27:16.000Z</time>
      </trkpt>
      <trkpt lat="54.398548" lon="9.699366">
        <ele>9.142046</ele>
        <time>2021-08-29T07:27:21.000Z</time>
      </trkpt>
      <trkpt lat="54.398534" lon="9.699437">
        <ele>9.116401</ele>
        <time>2021-08-29T07:27:24.000Z</time>
      </trkpt>
      <trkpt lat="54.398513" lon="9.699621">
        <ele>9.052256</ele>
        <time>2021-08-29T07:27:31.000Z</time>
      </trkpt>
      <trkpt lat="54.398515" lon="9.699735">
        <ele>9.013238</ele>
        <time>2021-08-29T07:27:36.000Z</time>
      </trkpt>
      <trkpt lat="54.398516" lon="9.699756">
        <ele>9.006030</ele>
        <time>2021-08-29T07:27:37.000Z</time>
      </trkpt>
      <trkpt lat="54.398516" lon="9.699779">
        <ele>8.998162</ele>
        <time>2021-08-29T07:27:38.000Z</time>
      </trkpt>
      <trkpt lat="54.398518" lon="9.699799">
        <ele>8.991220</ele>
        <time>2021-08-29T07:27:39.000Z</time>
      </trkpt>
      <trkpt lat="54.398507" lon="9.699874">
        <ele>8.964760</ele>
        <time>2021-08-29T07:27:42.000Z</time>
      </trkpt>
      <trkpt lat="54.398490" lon="9.699938">
        <ele>8.940694</ele>
        <time>2021-08-29T07:27:45.000Z</time>
      </trkpt>
      <trkpt lat="54.398486" lon="9.699968">
        <ele>8.930165</ele>
        <time>2021-08-29T07:27:46.000Z</time>
      </trkpt>
      <trkpt lat="54.398472" lon="9.700026">
        <ele>8.908685</ele>
        <time>2021-08-29T07:27:48.000Z</time>
      </trkpt>
      <trkpt lat="54.398469" lon="9.700075">
        <ele>8.891830</ele>
        <time>2021-08-29T07:27:50.000Z</time>
      </trkpt>
      <trkpt lat="54.398459" lon="9.700179">
        <ele>8.855769</ele>
        <time>2021-08-29T07:27:54.000Z</time>
      </trkpt>
      <trkpt lat="54.398449" lon="9.700250">
        <ele>8.830779</ele>
        <time>2021-08-29T07:27:57.000Z</time>
      </trkpt>
      <trkpt lat="54.398437" lon="9.700297">
        <ele>8.813222</ele>
        <time>2021-08-29T07:27:59.000Z</time>
      </trkpt>
      <trkpt lat="54.398433" lon="9.700324">
        <ele>8.803691</ele>
        <time>2021-08-29T07:28:00.000Z</time>
      </trkpt>
      <trkpt lat="54.398417" lon="9.700541">
        <ele>8.728861</ele>
        <time>2021-08-29T07:28:07.000Z</time>
      </trkpt>
      <trkpt lat="54.398411" lon="9.700774">
        <ele>8.649073</ele>
        <time>2021-08-29T07:28:15.000Z</time>
      </trkpt>
      <trkpt lat="54.398403" lon="9.700925">
        <ele>8.597202</ele>
        <time>2021-08-29T07:28:20.000Z</time>
      </trkpt>
      <trkpt lat="54.398398" lon="9.701047">
        <ele>8.555362</ele>
        <time>2021-08-29T07:28:25.000Z</time>
      </trkpt>
      <trkpt lat="54.398387" lon="9.701238">
        <ele>8.489701</ele>
        <time>2021-08-29T07:28:33.000Z</time>
      </trkpt>
      <trkpt lat="54.398372" lon="9.701437">
        <ele>8.421055</ele>
        <time>2021-08-29T07:28:41.000Z</time>
      </trkpt>
      <trkpt lat="54.398363" lon="9.701461">
        <ele>8.411288</ele>
        <time>2021-08-29T07:28:42.000Z</time>
      </trkpt>
      <trkpt lat="54.398361" lon="9.701537">
        <ele>8.385262</ele>
        <time>2021-08-29T07:28:45.000Z</time>
      </trkpt>
      <trkpt lat="54.398350" lon="9.701758">
        <ele>8.309381</ele>
        <time>2021-08-29T07:28:53.000Z</time>
      </trkpt>
      <trkpt lat="54.398348" lon="9.701785">
        <ele>8.300070</ele>
        <time>2021-08-29T07:28:54.000Z</time>
      </trkpt>
      <trkpt lat="54.398348" lon="9.701846">
        <ele>8.279201</ele>
        <time>2021-08-29T07:28:56.000Z</time>
      </trkpt>
      <trkpt lat="54.398343" lon="9.701953">
        <ele>8.219994</ele>
        <time>2021-08-29T07:29:00.000Z</time>
      </trkpt>
      <trkpt lat="54.398314" lon="9.702194">
        <ele>8.082676</ele>
        <time>2021-08-29T07:29:10.000Z</time>
      </trkpt>
      <trkpt lat="54.398308" lon="9.702256">
        <ele>8.047606</ele>
        <time>2021-08-29T07:29:12.000Z</time>
      </trkpt>
      <trkpt lat="54.398307" lon="9.702340">
        <ele>8.000726</ele>
        <time>2021-08-29T07:29:15.000Z</time>
      </trkpt>
      <trkpt lat="54.398293" lon="9.702415">
        <ele>7.956778</ele>
        <time>2021-08-29T07:29:18.000Z</time>
      </trkpt>
      <trkpt lat="54.398292" lon="9.702439">
        <ele>7.943352</ele>
        <time>2021-08-29T07:29:19.000Z</time>
      </trkpt>
      <trkpt lat="54.398271" lon="9.702620">
        <ele>7.840370</ele>
        <time>2021-08-29T07:29:26.000Z</time>
      </trkpt>
      <trkpt lat="54.398220" lon="9.702778">
        <ele>7.739562</ele>
        <time>2021-08-29T07:29:32.000Z</time>
      </trkpt>
      <trkpt lat="54.398213" lon="9.702800">
        <ele>7.725572</ele>
        <time>2021-08-29T07:29:33.000Z</time>
      </trkpt>
      <trkpt lat="54.398188" lon="9.702833">
        <ele>7.695352</ele>
        <time>2021-08-29T07:29:35.000Z</time>
      </trkpt>
      <trkpt lat="54.398101" lon="9.702984">
        <ele>7.576807</ele>
        <time>2021-08-29T07:29:42.000Z</time>
      </trkpt>
      <trkpt lat="54.398057" lon="9.703102">
        <ele>7.498615</ele>
        <time>2021-08-29T07:29:48.000Z</time>
      </trkpt>
      <trkpt lat="54.397999" lon="9.703219">
        <ele>7.412867</ele>
        <time>2021-08-29T07:29:54.000Z</time>
      </trkpt>
      <trkpt lat="54.397925" lon="9.703343">
        <ele>7.313779</ele>
        <time>2021-08-29T07:30:01.000Z</time>
      </trkpt>
      <trkpt lat="54.397885" lon="9.703379">
        <ele>7.270496</ele>
        <time>2021-08-29T07:30:04.000Z</time>
      </trkpt>
      <trkpt lat="54.397857" lon="9.703392">
        <ele>7.242695</ele>
        <time>2021-08-29T07:30:06.000Z</time>
      </trkpt>
      <trkpt lat="54.397802" lon="9.703455">
        <ele>7.179331</ele>
        <time>2021-08-29T07:30:10.000Z</time>
      </trkpt>
      <trkpt lat="54.397713" lon="9.703593">
        <ele>7.064411</ele>
        <time>2021-08-29T07:30:17.000Z</time>
      </trkpt>
      <trkpt lat="54.397632" lon="9.703695">
        <ele>6.968145</ele>
        <time>2021-08-29T07:30:24.000Z</time>
      </trkpt>
      <trkpt lat="54.397580" lon="9.703740">
        <ele>6.912335</ele>
        <time>2021-08-29T07:30:29.000Z</time>
      </trkpt>
      <trkpt lat="54.397557" lon="9.703763">
        <ele>6.886826</ele>
        <time>2021-08-29T07:30:31.000Z</time>
      </trkpt>
      <trkpt lat="54.397490" lon="9.703860">
        <ele>6.802839</ele>
        <time>2021-08-29T07:30:37.000Z</time>
      </trkpt>
      <trkpt lat="54.397431" lon="9.703955">
        <ele>6.725327</ele>
        <time>2021-08-29T07:30:44.000Z</time>
      </trkpt>
      <trkpt lat="54.397408" lon="9.703974">
        <ele>6.700864</ele>
        <time>2021-08-29T07:30:46.000Z</time>
      </trkpt>
      <trkpt lat="54.397337" lon="9.704024">
        <ele>6.627314</ele>
        <time>2021-08-29T07:30:50.000Z</time>
      </trkpt>
      <trkpt lat="54.397297" lon="9.704076">
        <ele>6.579232</ele>
        <time>2021-08-29T07:30:52.000Z</time>
      </trkpt>
      <trkpt lat="54.397273" lon="9.704103">
        <ele>6.551419</ele>
        <time>2021-08-29T07:30:53.000Z</time>
      </trkpt>
      <trkpt lat="54.397147" lon="9.704235">
        <ele>6.391252</ele>
        <time>2021-08-29T07:31:00.000Z</time>
      </trkpt>
      <trkpt lat="54.397008" lon="9.704377">
        <ele>6.215739</ele>
        <time>2021-08-29T07:31:10.000Z</time>
      </trkpt>
      <trkpt lat="54.396908" lon="9.704490">
        <ele>6.085836</ele>
        <time>2021-08-29T07:31:18.000Z</time>
      </trkpt>
      <trkpt lat="54.396819" lon="9.704604">
        <ele>5.965351</ele>
        <time>2021-08-29T07:31:26.000Z</time>
      </trkpt>
      <trkpt lat="54.396720" lon="9.704684">
        <ele>5.846615</ele>
        <time>2021-08-29T07:31:33.000Z</time>
      </trkpt>
      <trkpt lat="54.396613" lon="9.704792">
        <ele>5.711929</ele>
        <time>2021-08-29T07:31:41.000Z</time>
      </trkpt>
      <trkpt lat="54.396525" lon="9.704848">
        <ele>5.610083</ele>
        <time>2021-08-29T07:31:49.000Z</time>
      </trkpt>
      <trkpt lat="54.396508" lon="9.704848">
        <ele>5.591634</ele>
        <time>2021-08-29T07:31:50.000Z</time>
      </trkpt>
      <trkpt lat="54.396445" lon="9.704902">
        <ele>5.515223</ele>
        <time>2021-08-29T07:31:55.000Z</time>
      </trkpt>
      <trkpt lat="54.396385" lon="9.704940">
        <ele>5.445823</ele>
        <time>2021-08-29T07:32:00.000Z</time>
      </trkpt>
      <trkpt lat="54.396357" lon="9.704943">
        <ele>5.415376</ele>
        <time>2021-08-29T07:32:03.000Z</time>
      </trkpt>
      <trkpt lat="54.396348" lon="9.704933">
        <ele>5.403744</ele>
        <time>2021-08-29T07:32:04.000Z</time>
      </trkpt>
      <trkpt lat="54.396255" lon="9.704948">
        <ele>5.302371</ele>
        <time>2021-08-29T07:32:10.000Z</time>
      </trkpt>
      <trkpt lat="54.396222" lon="9.704965">
        <ele>5.264982</ele>
        <time>2021-08-29T07:32:12.000Z</time>
      </trkpt>
      <trkpt lat="54.396131" lon="9.705034">
        <ele>5.157029</ele>
        <time>2021-08-29T07:32:16.000Z</time>
      </trkpt>
      <trkpt lat="54.396100" lon="9.705032">
        <ele>5.123363</ele>
        <time>2021-08-29T07:32:19.000Z</time>
      </trkpt>
      <trkpt lat="54.396088" lon="9.705023">
        <ele>5.109152</ele>
        <time>2021-08-29T07:32:22.000Z</time>
      </trkpt>
      <trkpt lat="54.396074" lon="9.705016">
        <ele>5.093328</ele>
        <time>2021-08-29T07:32:28.000Z</time>
      </trkpt>
      <trkpt lat="54.396068" lon="9.705017">
        <ele>5.086786</ele>
        <time>2021-08-29T07:32:29.000Z</time>
      </trkpt>
      <trkpt lat="54.396049" lon="9.705023">
        <ele>5.065821</ele>
        <time>2021-08-29T07:32:31.000Z</time>
      </trkpt>
      <trkpt lat="54.395949" lon="9.705046">
        <ele>4.956326</ele>
        <time>2021-08-29T07:32:38.000Z</time>
      </trkpt>
      <trkpt lat="54.395856" lon="9.705089">
        <ele>4.851805</ele>
        <time>2021-08-29T07:32:45.000Z</time>
      </trkpt>
      <trkpt lat="54.395794" lon="9.705092">
        <ele>4.784493</ele>
        <time>2021-08-29T07:32:49.000Z</time>
      </trkpt>
      <trkpt lat="54.395765" lon="9.705095">
        <ele>4.752963</ele>
        <time>2021-08-29T07:32:51.000Z</time>
      </trkpt>
      <trkpt lat="54.395752" lon="9.705095">
        <ele>4.738855</ele>
        <time>2021-08-29T07:32:52.000Z</time>
      </trkpt>
      <trkpt lat="54.395651" lon="9.705125">
        <ele>4.627617</ele>
        <time>2021-08-29T07:32:59.000Z</time>
      </trkpt>
      <trkpt lat="54.395578" lon="9.705149">
        <ele>4.606583</ele>
        <time>2021-08-29T07:33:04.000Z</time>
      </trkpt>
      <trkpt lat="54.395550" lon="9.705155">
        <ele>4.609060</ele>
        <time>2021-08-29T07:33:06.000Z</time>
      </trkpt>
      <trkpt lat="54.395517" lon="9.705160">
        <ele>4.611968</ele>
        <time>2021-08-29T07:33:09.000Z</time>
      </trkpt>
      <trkpt lat="54.395455" lon="9.705188">
        <ele>4.617596</ele>
        <time>2021-08-29T07:33:13.000Z</time>
      </trkpt>
      <trkpt lat="54.395419" lon="9.705206">
        <ele>4.620887</ele>
        <time>2021-08-29T07:33:16.000Z</time>
      </trkpt>
      <trkpt lat="54.395374" lon="9.705212">
        <ele>4.624850</ele>
        <time>2021-08-29T07:33:20.000Z</time>
      </trkpt>
      <trkpt lat="54.395259" lon="9.705236">
        <ele>4.635020</ele>
        <time>2021-08-29T07:33:29.000Z</time>
      </trkpt>
      <trkpt lat="54.395114" lon="9.705329">
        <ele>4.648607</ele>
        <time>2021-08-29T07:33:37.000Z</time>
      </trkpt>
      <trkpt lat="54.395072" lon="9.705359">
        <ele>4.652601</ele>
        <time>2021-08-29T07:33:40.000Z</time>
      </trkpt>
      <trkpt lat="54.394989" lon="9.705394">
        <ele>4.660103</ele>
        <time>2021-08-29T07:33:45.000Z</time>
      </trkpt>
      <trkpt lat="54.394933" lon="9.705417">
        <ele>4.665158</ele>
        <time>2021-08-29T07:33:48.000Z</time>
      </trkpt>
      <trkpt lat="54.394887" lon="9.705426">
        <ele>4.669222</ele>
        <time>2021-08-29T07:33:51.000Z</time>
      </trkpt>
      <trkpt lat="54.394873" lon="9.705434">
        <ele>4.670518</ele>
        <time>2021-08-29T07:33:52.000Z</time>
      </trkpt>
      <trkpt lat="54.394771" lon="9.705445">
        <ele>4.679490</ele>
        <time>2021-08-29T07:33:59.000Z</time>
      </trkpt>
      <trkpt lat="54.394705" lon="9.705450">
        <ele>4.685289</ele>
        <time>2021-08-29T07:34:03.000Z</time>
      </trkpt>
      <trkpt lat="54.394642" lon="9.705453">
        <ele>4.690822</ele>
        <time>2021-08-29T07:34:07.000Z</time>
      </trkpt>
      <trkpt lat="54.394552" lon="9.705368">
        <ele>4.699839</ele>
        <time>2021-08-29T07:34:13.000Z</time>
      </trkpt>
      <trkpt lat="54.394440" lon="9.705292">
        <ele>4.710410</ele>
        <time>2021-08-29T07:34:21.000Z</time>
      </trkpt>
      <trkpt lat="54.394378" lon="9.705229">
        <ele>4.716734</ele>
        <time>2021-08-29T07:34:26.000Z</time>
      </trkpt>
      <trkpt lat="54.394367" lon="9.705216">
        <ele>4.717907</ele>
        <time>2021-08-29T07:34:27.000Z</time>
      </trkpt>
      <trkpt lat="54.394276" lon="9.705101">
        <ele>4.727825</ele>
        <time>2021-08-29T07:34:34.000Z</time>
      </trkpt>
      <trkpt lat="54.394216" lon="9.704993">
        <ele>4.735454</ele>
        <time>2021-08-29T07:34:40.000Z</time>
      </trkpt>
      <trkpt lat="54.394190" lon="9.704983">
        <ele>4.737793</ele>
        <time>2021-08-29T07:34:42.000Z</time>
      </trkpt>
      <trkpt lat="54.394141" lon="9.704919">
        <ele>4.743197</ele>
        <time>2021-08-29T07:34:47.000Z</time>
      </trkpt>
      <trkpt lat="54.394136" lon="9.704910">
        <ele>4.743833</ele>
        <time>2021-08-29T07:34:48.000Z</time>
      </trkpt>
      <trkpt lat="54.394113" lon="9.704877">
        <ele>4.746464</ele>
        <time>2021-08-29T07:34:51.000Z</time>
      </trkpt>
      <trkpt lat="54.394094" lon="9.704857">
        <ele>4.748420</ele>
        <time>2021-08-29T07:34:53.000Z</time>
      </trkpt>
      <trkpt lat="54.394064" lon="9.704840">
        <ele>4.751194</ele>
        <time>2021-08-29T07:34:55.000Z</time>
      </trkpt>
      <trkpt lat="54.394007" lon="9.704806">
        <ele>4.756491</ele>
        <time>2021-08-29T07:34:59.000Z</time>
      </trkpt>
      <trkpt lat="54.393948" lon="9.704720">
        <ele>4.772327</ele>
        <time>2021-08-29T07:35:05.000Z</time>
      </trkpt>
      <trkpt lat="54.393860" lon="9.704622">
        <ele>4.807039</ele>
        <time>2021-08-29T07:35:12.000Z</time>
      </trkpt>
      <trkpt lat="54.393835" lon="9.704595">
        <ele>4.816813</ele>
        <time>2021-08-29T07:35:14.000Z</time>
      </trkpt>
      <trkpt lat="54.393749" lon="9.704469">
        <ele>4.854225</ele>
        <time>2021-08-29T07:35:21.000Z</time>
      </trkpt>
      <trkpt lat="54.393721" lon="9.704435">
        <ele>4.865575</ele>
        <time>2021-08-29T07:35:23.000Z</time>
      </trkpt>
      <trkpt lat="54.393644" lon="9.704344">
        <ele>4.896510</ele>
        <time>2021-08-29T07:35:27.000Z</time>
      </trkpt>
      <trkpt lat="54.393631" lon="9.704337">
        <ele>4.901019</ele>
        <time>2021-08-29T07:35:28.000Z</time>
      </trkpt>
      <trkpt lat="54.393605" lon="9.704321">
        <ele>4.910160</ele>
        <time>2021-08-29T07:35:30.000Z</time>
      </trkpt>
      <trkpt lat="54.393575" lon="9.704285">
        <ele>4.922272</ele>
        <time>2021-08-29T07:35:33.000Z</time>
      </trkpt>
      <trkpt lat="54.393505" lon="9.704163">
        <ele>4.955279</ele>
        <time>2021-08-29T07:35:40.000Z</time>
      </trkpt>
      <trkpt lat="54.393473" lon="9.704125">
        <ele>4.968155</ele>
        <time>2021-08-29T07:35:43.000Z</time>
      </trkpt>
      <trkpt lat="54.393432" lon="9.704086">
        <ele>4.983667</ele>
        <time>2021-08-29T07:35:46.000Z</time>
      </trkpt>
      <trkpt lat="54.393384" lon="9.704026">
        <ele>5.003315</ele>
        <time>2021-08-29T07:35:50.000Z</time>
      </trkpt>
      <trkpt lat="54.393356" lon="9.703984">
        <ele>5.015619</ele>
        <time>2021-08-29T07:35:52.000Z</time>
      </trkpt>
      <trkpt lat="54.393346" lon="9.703965">
        <ele>5.020555</ele>
        <time>2021-08-29T07:35:53.000Z</time>
      </trkpt>
      <trkpt lat="54.393338" lon="9.703954">
        <ele>5.023946</ele>
        <time>2021-08-29T07:35:54.000Z</time>
      </trkpt>
      <trkpt lat="54.393329" lon="9.703937">
        <ele>5.028374</ele>
        <time>2021-08-29T07:35:56.000Z</time>
      </trkpt>
      <trkpt lat="54.393303" lon="9.703910">
        <ele>5.038430</ele>
        <time>2021-08-29T07:35:59.000Z</time>
      </trkpt>
      <trkpt lat="54.393239" lon="9.703839">
        <ele>5.063646</ele>
        <time>2021-08-29T07:36:05.000Z</time>
      </trkpt>
      <trkpt lat="54.393222" lon="9.703796">
        <ele>5.073662</ele>
        <time>2021-08-29T07:36:07.000Z</time>
      </trkpt>
      <trkpt lat="54.393097" lon="9.703621">
        <ele>5.127037</ele>
        <time>2021-08-29T07:36:16.000Z</time>
      </trkpt>
      <trkpt lat="54.393080" lon="9.703606">
        <ele>5.133362</ele>
        <time>2021-08-29T07:36:18.000Z</time>
      </trkpt>
      <trkpt lat="54.393055" lon="9.703586">
        <ele>5.142490</ele>
        <time>2021-08-29T07:36:20.000Z</time>
      </trkpt>
      <trkpt lat="54.393004" lon="9.703515">
        <ele>5.164218</ele>
        <time>2021-08-29T07:36:23.000Z</time>
      </trkpt>
      <trkpt lat="54.392891" lon="9.703385">
        <ele>5.209233</ele>
        <time>2021-08-29T07:36:32.000Z</time>
      </trkpt>
      <trkpt lat="54.392850" lon="9.703258">
        <ele>5.237216</ele>
        <time>2021-08-29T07:36:38.000Z</time>
      </trkpt>
      <trkpt lat="54.392842" lon="9.703235">
        <ele>5.242379</ele>
        <time>2021-08-29T07:36:39.000Z</time>
      </trkpt>
      <trkpt lat="54.392821" lon="9.703173">
        <ele>5.256201</ele>
        <time>2021-08-29T07:36:42.000Z</time>
      </trkpt>
      <trkpt lat="54.392800" lon="9.703128">
        <ele>5.267314</ele>
        <time>2021-08-29T07:36:45.000Z</time>
      </trkpt>
      <trkpt lat="54.392788" lon="9.703088">
        <ele>5.275985</ele>
        <time>2021-08-29T07:36:47.000Z</time>
      </trkpt>
      <trkpt lat="54.392757" lon="9.703029">
        <ele>5.291300</ele>
        <time>2021-08-29T07:36:50.000Z</time>
      </trkpt>
      <trkpt lat="54.392718" lon="9.702937">
        <ele>5.313230</ele>
        <time>2021-08-29T07:36:54.000Z</time>
      </trkpt>
      <trkpt lat="54.392605" lon="9.702777">
        <ele>5.368206</ele>
        <time>2021-08-29T07:37:02.000Z</time>
      </trkpt>
      <trkpt lat="54.392593" lon="9.702761">
        <ele>5.378364</ele>
        <time>2021-08-29T07:37:03.000Z</time>
      </trkpt>
      <trkpt lat="54.392535" lon="9.702655">
        <ele>5.434991</ele>
        <time>2021-08-29T07:37:08.000Z</time>
      </trkpt>
      <trkpt lat="54.392514" lon="9.702607">
        <ele>5.458364</ele>
        <time>2021-08-29T07:37:11.000Z</time>
      </trkpt>
      <trkpt lat="54.392515" lon="9.702596">
        <ele>5.462698</ele>
        <time>2021-08-29T07:37:12.000Z</time>
      </trkpt>
      <trkpt lat="54.392520" lon="9.702572">
        <ele>5.472621</ele>
        <time>2021-08-29T07:37:14.000Z</time>
      </trkpt>
      <trkpt lat="54.392509" lon="9.702532">
        <ele>5.489842</ele>
        <time>2021-08-29T07:37:16.000Z</time>
      </trkpt>
      <trkpt lat="54.392455" lon="9.702440">
        <ele>5.540697</ele>
        <time>2021-08-29T07:37:20.000Z</time>
      </trkpt>
      <trkpt lat="54.392392" lon="9.702337">
        <ele>5.598853</ele>
        <time>2021-08-29T07:37:26.000Z</time>
      </trkpt>
      <trkpt lat="54.392352" lon="9.702266">
        <ele>5.637313</ele>
        <time>2021-08-29T07:37:31.000Z</time>
      </trkpt>
      <trkpt lat="54.392331" lon="9.702250">
        <ele>5.652674</ele>
        <time>2021-08-29T07:37:33.000Z</time>
      </trkpt>
      <trkpt lat="54.392255" lon="9.702227">
        <ele>5.704271</ele>
        <time>2021-08-29T07:37:38.000Z</time>
      </trkpt>
      <trkpt lat="54.392189" lon="9.702239">
        <ele>5.748646</ele>
        <time>2021-08-29T07:37:42.000Z</time>
      </trkpt>
      <trkpt lat="54.392137" lon="9.702251">
        <ele>5.783727</ele>
        <time>2021-08-29T07:37:45.000Z</time>
      </trkpt>
      <trkpt lat="54.392097" lon="9.702205">
        <ele>5.815913</ele>
        <time>2021-08-29T07:37:49.000Z</time>
      </trkpt>
      <trkpt lat="54.392081" lon="9.702220">
        <ele>5.828101</ele>
        <time>2021-08-29T07:37:51.000Z</time>
      </trkpt>
      <trkpt lat="54.392071" lon="9.702243">
        <ele>5.839275</ele>
        <time>2021-08-29T07:37:54.000Z</time>
      </trkpt>
      <trkpt lat="54.392074" lon="9.702230">
        <ele>5.844719</ele>
        <time>2021-08-29T07:37:56.000Z</time>
      </trkpt>
      <trkpt lat="54.392075" lon="9.702236">
        <ele>5.847149</ele>
        <time>2021-08-29T07:37:57.000Z</time>
      </trkpt>
      <trkpt lat="54.392083" lon="9.702216">
        <ele>5.856595</ele>
        <time>2021-08-29T07:37:59.000Z</time>
      </trkpt>
      <trkpt lat="54.392088" lon="9.702198">
        <ele>5.864359</ele>
        <time>2021-08-29T07:38:00.000Z</time>
      </trkpt>
      <trkpt lat="54.392098" lon="9.702163">
        <ele>5.879536</ele>
        <time>2021-08-29T07:38:02.000Z</time>
      </trkpt>
      <trkpt lat="54.392118" lon="9.702102">
        <ele>5.906789</ele>
        <time>2021-08-29T07:38:05.000Z</time>
      </trkpt>
      <trkpt lat="54.392134" lon="9.702063">
        <ele>5.925362</ele>
        <time>2021-08-29T07:38:07.000Z</time>
      </trkpt>
      <trkpt lat="54.392143" lon="9.702000">
        <ele>5.950615</ele>
        <time>2021-08-29T07:38:09.000Z</time>
      </trkpt>
      <trkpt lat="54.392176" lon="9.701909">
        <ele>5.992350</ele>
        <time>2021-08-29T07:38:14.000Z</time>
      </trkpt>
      <trkpt lat="54.392213" lon="9.701829">
        <ele>6.032123</ele>
        <time>2021-08-29T07:38:19.000Z</time>
      </trkpt>
      <trkpt lat="54.392216" lon="9.701794">
        <ele>6.045895</ele>
        <time>2021-08-29T07:38:21.000Z</time>
      </trkpt>
      <trkpt lat="54.392236" lon="9.701719">
        <ele>6.078008</ele>
        <time>2021-08-29T07:38:26.000Z</time>
      </trkpt>
      <trkpt lat="54.392254" lon="9.701678">
        <ele>6.097998</ele>
        <time>2021-08-29T07:38:28.000Z</time>
      </trkpt>
      <trkpt lat="54.392260" lon="9.701593">
        <ele>6.131330</ele>
        <time>2021-08-29T07:38:31.000Z</time>
      </trkpt>
      <trkpt lat="54.392260" lon="9.701502">
        <ele>6.166755</ele>
        <time>2021-08-29T07:38:35.000Z</time>
      </trkpt>
      <trkpt lat="54.392263" lon="9.701468">
        <ele>6.180142</ele>
        <time>2021-08-29T07:38:37.000Z</time>
      </trkpt>
      <trkpt lat="54.392262" lon="9.701445">
        <ele>6.189121</ele>
        <time>2021-08-29T07:38:38.000Z</time>
      </trkpt>
      <trkpt lat="54.392262" lon="9.701428">
        <ele>6.195739</ele>
        <time>2021-08-29T07:38:39.000Z</time>
      </trkpt>
      <trkpt lat="54.392265" lon="9.701411">
        <ele>6.202654</ele>
        <time>2021-08-29T07:38:41.000Z</time>
      </trkpt>
      <trkpt lat="54.392269" lon="9.701391">
        <ele>6.210886</ele>
        <time>2021-08-29T07:38:42.000Z</time>
      </trkpt>
      <trkpt lat="54.392282" lon="9.701304">
        <ele>6.245852</ele>
        <time>2021-08-29T07:38:46.000Z</time>
      </trkpt>
      <trkpt lat="54.392291" lon="9.701244">
        <ele>6.269972</ele>
        <time>2021-08-29T07:38:49.000Z</time>
      </trkpt>
      <trkpt lat="54.392291" lon="9.701186">
        <ele>6.292551</ele>
        <time>2021-08-29T07:38:51.000Z</time>
      </trkpt>
      <trkpt lat="54.392294" lon="9.701169">
        <ele>6.299466</ele>
        <time>2021-08-29T07:38:52.000Z</time>
      </trkpt>
      <trkpt lat="54.392301" lon="9.701120">
        <ele>6.319107</ele>
        <time>2021-08-29T07:38:54.000Z</time>
      </trkpt>
      <trkpt lat="54.392303" lon="9.701072">
        <ele>6.337841</ele>
        <time>2021-08-29T07:38:56.000Z</time>
      </trkpt>
      <trkpt lat="54.392308" lon="9.700887">
        <ele>6.409937</ele>
        <time>2021-08-29T07:39:03.000Z</time>
      </trkpt>
      <trkpt lat="54.392313" lon="9.700736">
        <ele>6.468814</ele>
        <time>2021-08-29T07:39:08.000Z</time>
      </trkpt>
      <trkpt lat="54.392316" lon="9.700707">
        <ele>6.480281</ele>
        <time>2021-08-29T07:39:09.000Z</time>
      </trkpt>
      <trkpt lat="54.392321" lon="9.700585">
        <ele>6.527891</ele>
        <time>2021-08-29T07:39:15.000Z</time>
      </trkpt>
      <trkpt lat="54.392323" lon="9.700569">
        <ele>6.534262</ele>
        <time>2021-08-29T07:39:16.000Z</time>
      </trkpt>
      <trkpt lat="54.392306" lon="9.700461">
        <ele>6.559167</ele>
        <time>2021-08-29T07:39:22.000Z</time>
      </trkpt>
      <trkpt lat="54.392292" lon="9.700452">
        <ele>6.559792</ele>
        <time>2021-08-29T07:39:23.000Z</time>
      </trkpt>
      <trkpt lat="54.392265" lon="9.700402">
        <ele>6.561453</ele>
        <time>2021-08-29T07:39:26.000Z</time>
      </trkpt>
      <trkpt lat="54.392204" lon="9.700337">
        <ele>6.564456</ele>
        <time>2021-08-29T07:39:30.000Z</time>
      </trkpt>
      <trkpt lat="54.392163" lon="9.700317">
        <ele>6.566238</ele>
        <time>2021-08-29T07:39:33.000Z</time>
      </trkpt>
      <trkpt lat="54.392124" lon="9.700303">
        <ele>6.567905</ele>
        <time>2021-08-29T07:39:35.000Z</time>
      </trkpt>
      <trkpt lat="54.392098" lon="9.700273">
        <ele>6.569215</ele>
        <time>2021-08-29T07:39:37.000Z</time>
      </trkpt>
      <trkpt lat="54.392058" lon="9.700178">
        <ele>6.572070</ele>
        <time>2021-08-29T07:39:42.000Z</time>
      </trkpt>
      <trkpt lat="54.392043" lon="9.700138">
        <ele>6.573229</ele>
        <time>2021-08-29T07:39:44.000Z</time>
      </trkpt>
      <trkpt lat="54.391981" lon="9.700033">
        <ele>6.576871</ele>
        <time>2021-08-29T07:39:50.000Z</time>
      </trkpt>
      <trkpt lat="54.391960" lon="9.699995">
        <ele>6.578147</ele>
        <time>2021-08-29T07:39:52.000Z</time>
      </trkpt>
      <trkpt lat="54.391932" lon="9.699988">
        <ele>6.579331</ele>
        <time>2021-08-29T07:39:54.000Z</time>
      </trkpt>
      <trkpt lat="54.391924" lon="9.699975">
        <ele>6.579791</ele>
        <time>2021-08-29T07:39:55.000Z</time>
      </trkpt>
      <trkpt lat="54.391896" lon="9.699902">
        <ele>6.581920</ele>
        <time>2021-08-29T07:39:59.000Z</time>
      </trkpt>
      <trkpt lat="54.391839" lon="9.699797">
        <ele>6.585417</ele>
        <time>2021-08-29T07:40:05.000Z</time>
      </trkpt>
      <trkpt lat="54.391812" lon="9.699754">
        <ele>6.586957</ele>
        <time>2021-08-29T07:40:08.000Z</time>
      </trkpt>
      <trkpt lat="54.391799" lon="9.699716">
        <ele>6.588030</ele>
        <time>2021-08-29T07:40:10.000Z</time>
      </trkpt>
      <trkpt lat="54.391788" lon="9.699699">
        <ele>6.588649</ele>
        <time>2021-08-29T07:40:11.000Z</time>
      </trkpt>
      <trkpt lat="54.391774" lon="9.699678">
        <ele>6.589427</ele>
        <time>2021-08-29T07:40:12.000Z</time>
      </trkpt>
      <trkpt lat="54.391723" lon="9.699591">
        <ele>6.592433</ele>
        <time>2021-08-29T07:40:17.000Z</time>
      </trkpt>
      <trkpt lat="54.391641" lon="9.699398">
        <ele>6.598252</ele>
        <time>2021-08-29T07:40:25.000Z</time>
      </trkpt>
      <trkpt lat="54.391574" lon="9.699261">
        <ele>6.602609</ele>
        <time>2021-08-29T07:40:31.000Z</time>
      </trkpt>
      <trkpt lat="54.391512" lon="9.699109">
        <ele>6.607129</ele>
        <time>2021-08-29T07:40:38.000Z</time>
      </trkpt>
      <trkpt lat="54.391458" lon="9.698985">
        <ele>6.610900</ele>
        <time>2021-08-29T07:40:43.000Z</time>
      </trkpt>
      <trkpt lat="54.391399" lon="9.698857">
        <ele>6.614876</ele>
        <time>2021-08-29T07:40:50.000Z</time>
      </trkpt>
      <trkpt lat="54.391393" lon="9.698847">
        <ele>6.615226</ele>
        <time>2021-08-29T07:40:51.000Z</time>
      </trkpt>
      <trkpt lat="54.391389" lon="9.698836">
        <ele>6.615542</ele>
        <time>2021-08-29T07:40:52.000Z</time>
      </trkpt>
      <trkpt lat="54.391328" lon="9.698756">
        <ele>6.618752</ele>
        <time>2021-08-29T07:40:56.000Z</time>
      </trkpt>
      <trkpt lat="54.391313" lon="9.698738">
        <ele>6.619518</ele>
        <time>2021-08-29T07:40:57.000Z</time>
      </trkpt>
      <trkpt lat="54.391224" lon="9.698598">
        <ele>6.624566</ele>
        <time>2021-08-29T07:41:04.000Z</time>
      </trkpt>
      <trkpt lat="54.391178" lon="9.698572">
        <ele>6.626591</ele>
        <time>2021-08-29T07:41:08.000Z</time>
      </trkpt>
      <trkpt lat="54.391118" lon="9.698552">
        <ele>6.629148</ele>
        <time>2021-08-29T07:41:12.000Z</time>
      </trkpt>
      <trkpt lat="54.391105" lon="9.698536">
        <ele>6.629817</ele>
        <time>2021-08-29T07:41:13.000Z</time>
      </trkpt>
      <trkpt lat="54.391026" lon="9.698505">
        <ele>6.632951</ele>
        <time>2021-08-29T07:41:18.000Z</time>
      </trkpt>
      <trkpt lat="54.391017" lon="9.698490">
        <ele>6.630783</ele>
        <time>2021-08-29T07:41:19.000Z</time>
      </trkpt>
      <trkpt lat="54.390945" lon="9.698457">
        <ele>6.617902</ele>
        <time>2021-08-29T07:41:23.000Z</time>
      </trkpt>
      <trkpt lat="54.390912" lon="9.698439">
        <ele>6.611917</ele>
        <time>2021-08-29T07:41:25.000Z</time>
      </trkpt>
      <trkpt lat="54.390802" lon="9.698363">
        <ele>6.591421</ele>
        <time>2021-08-29T07:41:32.000Z</time>
      </trkpt>
      <trkpt lat="54.390762" lon="9.698345">
        <ele>6.584274</ele>
        <time>2021-08-29T07:41:35.000Z</time>
      </trkpt>
      <trkpt lat="54.390722" lon="9.698326">
        <ele>6.577100</ele>
        <time>2021-08-29T07:41:38.000Z</time>
      </trkpt>
      <trkpt lat="54.390666" lon="9.698312">
        <ele>6.567318</ele>
        <time>2021-08-29T07:41:43.000Z</time>
      </trkpt>
      <trkpt lat="54.390644" lon="9.698318">
        <ele>6.563467</ele>
        <time>2021-08-29T07:41:45.000Z</time>
      </trkpt>
      <trkpt lat="54.390559" lon="9.698396">
        <ele>6.546808</ele>
        <time>2021-08-29T07:41:52.000Z</time>
      </trkpt>
      <trkpt lat="54.390541" lon="9.698417">
        <ele>6.543047</ele>
        <time>2021-08-29T07:41:53.000Z</time>
      </trkpt>
      <trkpt lat="54.390466" lon="9.698573">
        <ele>6.522685</ele>
        <time>2021-08-29T07:42:02.000Z</time>
      </trkpt>
      <trkpt lat="54.390438" lon="9.698598">
        <ele>6.517230</ele>
        <time>2021-08-29T07:42:04.000Z</time>
      </trkpt>
      <trkpt lat="54.390378" lon="9.698668">
        <ele>6.504692</ele>
        <time>2021-08-29T07:42:09.000Z</time>
      </trkpt>
      <trkpt lat="54.390367" lon="9.698698">
        <ele>6.501124</ele>
        <time>2021-08-29T07:42:11.000Z</time>
      </trkpt>
      <trkpt lat="54.390334" lon="9.698751">
        <ele>6.493314</ele>
        <time>2021-08-29T07:42:15.000Z</time>
      </trkpt>
      <trkpt lat="54.390309" lon="9.698782">
        <ele>6.487984</ele>
        <time>2021-08-29T07:42:18.000Z</time>
      </trkpt>
      <trkpt lat="54.390278" lon="9.698804">
        <ele>6.482186</ele>
        <time>2021-08-29T07:42:21.000Z</time>
      </trkpt>
      <trkpt lat="54.390271" lon="9.698817">
        <ele>6.480404</ele>
        <time>2021-08-29T07:42:22.000Z</time>
      </trkpt>
      <trkpt lat="54.390262" lon="9.698835">
        <ele>6.478016</ele>
        <time>2021-08-29T07:42:23.000Z</time>
      </trkpt>
      <trkpt lat="54.390173" lon="9.698944">
        <ele>6.459120</ele>
        <time>2021-08-29T07:42:29.000Z</time>
      </trkpt>
      <trkpt lat="54.390112" lon="9.699004">
        <ele>6.446969</ele>
        <time>2021-08-29T07:42:32.000Z</time>
      </trkpt>
      <trkpt lat="54.390040" lon="9.699040">
        <ele>6.434007</ele>
        <time>2021-08-29T07:42:35.000Z</time>
      </trkpt>
      <trkpt lat="54.390007" lon="9.699020">
        <ele>6.427958</ele>
        <time>2021-08-29T07:42:37.000Z</time>
      </trkpt>
      <trkpt lat="54.389966" lon="9.698973">
        <ele>6.419437</ele>
        <time>2021-08-29T07:42:40.000Z</time>
      </trkpt>
      <trkpt lat="54.389954" lon="9.698956">
        <ele>6.416748</ele>
        <time>2021-08-29T07:42:41.000Z</time>
      </trkpt>
      <trkpt lat="54.389884" lon="9.698769">
        <ele>6.394372</ele>
        <time>2021-08-29T07:42:49.000Z</time>
      </trkpt>
      <trkpt lat="54.389794" lon="9.698637">
        <ele>6.373914</ele>
        <time>2021-08-29T07:42:57.000Z</time>
      </trkpt>
      <trkpt lat="54.389748" lon="9.698573">
        <ele>6.363681</ele>
        <time>2021-08-29T07:43:01.000Z</time>
      </trkpt>
      <trkpt lat="54.389727" lon="9.698533">
        <ele>6.358260</ele>
        <time>2021-08-29T07:43:03.000Z</time>
      </trkpt>
      <trkpt lat="54.389663" lon="9.698424">
        <ele>6.342680</ele>
        <time>2021-08-29T07:43:10.000Z</time>
      </trkpt>
      <trkpt lat="54.389641" lon="9.698370">
        <ele>6.336046</ele>
        <time>2021-08-29T07:43:13.000Z</time>
      </trkpt>
      <trkpt lat="54.389622" lon="9.698325">
        <ele>6.330451</ele>
        <time>2021-08-29T07:43:15.000Z</time>
      </trkpt>
      <trkpt lat="54.389613" lon="9.698303">
        <ele>6.327745</ele>
        <time>2021-08-29T07:43:16.000Z</time>
      </trkpt>
      <trkpt lat="54.389554" lon="9.698252">
        <ele>6.338404</ele>
        <time>2021-08-29T07:43:21.000Z</time>
      </trkpt>
      <trkpt lat="54.389472" lon="9.698120">
        <ele>6.391437</ele>
        <time>2021-08-29T07:43:29.000Z</time>
      </trkpt>
      <trkpt lat="54.389401" lon="9.698052">
        <ele>6.429797</ele>
        <time>2021-08-29T07:43:34.000Z</time>
      </trkpt>
      <trkpt lat="54.389391" lon="9.698028">
        <ele>6.437905</ele>
        <time>2021-08-29T07:43:35.000Z</time>
      </trkpt>
      <trkpt lat="54.389350" lon="9.697957">
        <ele>6.465379</ele>
        <time>2021-08-29T07:43:39.000Z</time>
      </trkpt>
      <trkpt lat="54.389327" lon="9.697916">
        <ele>6.481021</ele>
        <time>2021-08-29T07:43:42.000Z</time>
      </trkpt>
      <trkpt lat="54.389269" lon="9.697782">
        <ele>6.526896</ele>
        <time>2021-08-29T07:43:48.000Z</time>
      </trkpt>
      <trkpt lat="54.389224" lon="9.697678">
        <ele>6.562497</ele>
        <time>2021-08-29T07:43:54.000Z</time>
      </trkpt>
      <trkpt lat="54.389156" lon="9.697518">
        <ele>6.616922</ele>
        <time>2021-08-29T07:44:01.000Z</time>
      </trkpt>
      <trkpt lat="54.389059" lon="9.697364">
        <ele>6.679254</ele>
        <time>2021-08-29T07:44:09.000Z</time>
      </trkpt>
      <trkpt lat="54.388962" lon="9.697224">
        <ele>6.739042</ele>
        <time>2021-08-29T07:44:17.000Z</time>
      </trkpt>
      <trkpt lat="54.388898" lon="9.697146">
        <ele>6.776073</ele>
        <time>2021-08-29T07:44:23.000Z</time>
      </trkpt>
      <trkpt lat="54.388889" lon="9.697132">
        <ele>6.781803</ele>
        <time>2021-08-29T07:44:24.000Z</time>
      </trkpt>
      <trkpt lat="54.388839" lon="9.697031">
        <ele>6.818227</ele>
        <time>2021-08-29T07:44:29.000Z</time>
      </trkpt>
      <trkpt lat="54.388778" lon="9.696888">
        <ele>6.866933</ele>
        <time>2021-08-29T07:44:35.000Z</time>
      </trkpt>
      <trkpt lat="54.388755" lon="9.696846">
        <ele>6.882774</ele>
        <time>2021-08-29T07:44:37.000Z</time>
      </trkpt>
      <trkpt lat="54.388697" lon="9.696741">
        <ele>6.922540</ele>
        <time>2021-08-29T07:44:42.000Z</time>
      </trkpt>
      <trkpt lat="54.388612" lon="9.696618">
        <ele>6.974988</ele>
        <time>2021-08-29T07:44:50.000Z</time>
      </trkpt>
      <trkpt lat="54.388559" lon="9.696542">
        <ele>7.007568</ele>
        <time>2021-08-29T07:44:55.000Z</time>
      </trkpt>
      <trkpt lat="54.388545" lon="9.696534">
        <ele>7.014530</ele>
        <time>2021-08-29T07:44:56.000Z</time>
      </trkpt>
      <trkpt lat="54.388504" lon="9.696459">
        <ele>7.042796</ele>
        <time>2021-08-29T07:45:01.000Z</time>
      </trkpt>
      <trkpt lat="54.388498" lon="9.696418">
        <ele>7.054411</ele>
        <time>2021-08-29T07:45:03.000Z</time>
      </trkpt>
      <trkpt lat="54.388446" lon="9.696281">
        <ele>7.099344</ele>
        <time>2021-08-29T07:45:10.000Z</time>
      </trkpt>
      <trkpt lat="54.388434" lon="9.696262">
        <ele>7.107046</ele>
        <time>2021-08-29T07:45:11.000Z</time>
      </trkpt>
      <trkpt lat="54.388334" lon="9.696101">
        <ele>7.172072</ele>
        <time>2021-08-29T07:45:18.000Z</time>
      </trkpt>
      <trkpt lat="54.388241" lon="9.696017">
        <ele>7.244134</ele>
        <time>2021-08-29T07:45:24.000Z</time>
      </trkpt>
      <trkpt lat="54.388171" lon="9.695956">
        <ele>7.297966</ele>
        <time>2021-08-29T07:45:30.000Z</time>
      </trkpt>
      <trkpt lat="54.388159" lon="9.695969">
        <ele>7.307696</ele>
        <time>2021-08-29T07:45:31.000Z</time>
      </trkpt>
      <trkpt lat="54.388136" lon="9.695982">
        <ele>7.324302</ele>
        <time>2021-08-29T07:45:33.000Z</time>
      </trkpt>
      <trkpt lat="54.388124" lon="9.696001">
        <ele>7.335495</ele>
        <time>2021-08-29T07:45:35.000Z</time>
      </trkpt>
      <trkpt lat="54.388113" lon="9.696013">
        <ele>7.344432</ele>
        <time>2021-08-29T07:45:36.000Z</time>
      </trkpt>
      <trkpt lat="54.388034" lon="9.696125">
        <ele>7.414686</ele>
        <time>2021-08-29T07:45:43.000Z</time>
      </trkpt>
      <trkpt lat="54.387954" lon="9.696175">
        <ele>7.473069</ele>
        <time>2021-08-29T07:45:49.000Z</time>
      </trkpt>
      <trkpt lat="54.387880" lon="9.696280">
        <ele>7.538899</ele>
        <time>2021-08-29T07:45:56.000Z</time>
      </trkpt>
      <trkpt lat="54.387851" lon="9.696332">
        <ele>7.567652</ele>
        <time>2021-08-29T07:45:59.000Z</time>
      </trkpt>
      <trkpt lat="54.387822" lon="9.696365">
        <ele>7.591510</ele>
        <time>2021-08-29T07:46:01.000Z</time>
      </trkpt>
      <trkpt lat="54.387803" lon="9.696380">
        <ele>7.605851</ele>
        <time>2021-08-29T07:46:03.000Z</time>
      </trkpt>
      <trkpt lat="54.387772" lon="9.696425">
        <ele>7.633688</ele>
        <time>2021-08-29T07:46:06.000Z</time>
      </trkpt>
      <trkpt lat="54.387758" lon="9.696441">
        <ele>7.645221</ele>
        <time>2021-08-29T07:46:07.000Z</time>
      </trkpt>
      <trkpt lat="54.387660" lon="9.696558">
        <ele>7.727073</ele>
        <time>2021-08-29T07:46:13.000Z</time>
      </trkpt>
      <trkpt lat="54.387575" lon="9.696655">
        <ele>7.797062</ele>
        <time>2021-08-29T07:46:20.000Z</time>
      </trkpt>
      <trkpt lat="54.387470" lon="9.696752">
        <ele>7.878828</ele>
        <time>2021-08-29T07:46:27.000Z</time>
      </trkpt>
      <trkpt lat="54.387365" lon="9.696855">
        <ele>7.961756</ele>
        <time>2021-08-29T07:46:35.000Z</time>
      </trkpt>
      <trkpt lat="54.387353" lon="9.696886">
        <ele>7.976621</ele>
        <time>2021-08-29T07:46:37.000Z</time>
      </trkpt>
      <trkpt lat="54.387298" lon="9.696950">
        <ele>8.022183</ele>
        <time>2021-08-29T07:46:41.000Z</time>
      </trkpt>
      <trkpt lat="54.387199" lon="9.697087">
        <ele>8.109377</ele>
        <time>2021-08-29T07:46:49.000Z</time>
      </trkpt>
      <trkpt lat="54.387115" lon="9.697158">
        <ele>8.173583</ele>
        <time>2021-08-29T07:46:56.000Z</time>
      </trkpt>
      <trkpt lat="54.387071" lon="9.697193">
        <ele>8.206838</ele>
        <time>2021-08-29T07:46:59.000Z</time>
      </trkpt>
      <trkpt lat="54.387036" lon="9.697226">
        <ele>8.234220</ele>
        <time>2021-08-29T07:47:01.000Z</time>
      </trkpt>
      <trkpt lat="54.386986" lon="9.697262">
        <ele>8.271402</ele>
        <time>2021-08-29T07:47:04.000Z</time>
      </trkpt>
      <trkpt lat="54.386948" lon="9.697290">
        <ele>8.299759</ele>
        <time>2021-08-29T07:47:07.000Z</time>
      </trkpt>
      <trkpt lat="54.386928" lon="9.697302">
        <ele>8.314288</ele>
        <time>2021-08-29T07:47:08.000Z</time>
      </trkpt>
      <trkpt lat="54.386907" lon="9.697314">
        <ele>8.329466</ele>
        <time>2021-08-29T07:47:09.000Z</time>
      </trkpt>
      <trkpt lat="54.386870" lon="9.697345">
        <ele>8.357699</ele>
        <time>2021-08-29T07:47:12.000Z</time>
      </trkpt>
      <trkpt lat="54.386826" lon="9.697393">
        <ele>8.393448</ele>
        <time>2021-08-29T07:47:17.000Z</time>
      </trkpt>
      <trkpt lat="54.386801" lon="9.697434">
        <ele>8.444922</ele>
        <time>2021-08-29T07:47:19.000Z</time>
      </trkpt>
      <trkpt lat="54.386730" lon="9.697510">
        <ele>8.627778</ele>
        <time>2021-08-29T07:47:24.000Z</time>
      </trkpt>
      <trkpt lat="54.386701" lon="9.697546">
        <ele>8.705988</ele>
        <time>2021-08-29T07:47:26.000Z</time>
      </trkpt>
      <trkpt lat="54.386592" lon="9.697655">
        <ele>8.981669</ele>
        <time>2021-08-29T07:47:33.000Z</time>
      </trkpt>
      <trkpt lat="54.386535" lon="9.697676">
        <ele>9.109084</ele>
        <time>2021-08-29T07:47:38.000Z</time>
      </trkpt>
      <trkpt lat="54.386519" lon="9.697689">
        <ele>9.147771</ele>
        <time>2021-08-29T07:47:39.000Z</time>
      </trkpt>
      <trkpt lat="54.386494" lon="9.697703">
        <ele>9.205243</ele>
        <time>2021-08-29T07:47:41.000Z</time>
      </trkpt>
      <trkpt lat="54.386446" lon="9.697705">
        <ele>9.310184</ele>
        <time>2021-08-29T07:47:45.000Z</time>
      </trkpt>
      <trkpt lat="54.386421" lon="9.697716">
        <ele>9.366590</ele>
        <time>2021-08-29T07:47:46.000Z</time>
      </trkpt>
      <trkpt lat="54.386342" lon="9.697768">
        <ele>9.551503</ele>
        <time>2021-08-29T07:47:50.000Z</time>
      </trkpt>
      <trkpt lat="54.386288" lon="9.697785">
        <ele>9.671494</ele>
        <time>2021-08-29T07:47:53.000Z</time>
      </trkpt>
      <trkpt lat="54.386236" lon="9.697800">
        <ele>9.786739</ele>
        <time>2021-08-29T07:47:56.000Z</time>
      </trkpt>
      <trkpt lat="54.386201" lon="9.697802">
        <ele>9.863278</ele>
        <time>2021-08-29T07:47:58.000Z</time>
      </trkpt>
      <trkpt lat="54.386133" lon="9.697832">
        <ele>10.016727</ele>
        <time>2021-08-29T07:48:02.000Z</time>
      </trkpt>
      <trkpt lat="54.386097" lon="9.697832">
        <ele>10.095409</ele>
        <time>2021-08-29T07:48:05.000Z</time>
      </trkpt>
      <trkpt lat="54.385982" lon="9.697883">
        <ele>10.355002</ele>
        <time>2021-08-29T07:48:12.000Z</time>
      </trkpt>
      <trkpt lat="54.385942" lon="9.697901">
        <ele>10.445379</ele>
        <time>2021-08-29T07:48:15.000Z</time>
      </trkpt>
      <trkpt lat="54.385911" lon="9.697908">
        <ele>10.513717</ele>
        <time>2021-08-29T07:48:18.000Z</time>
      </trkpt>
      <trkpt lat="54.385841" lon="9.697924">
        <ele>10.668060</ele>
        <time>2021-08-29T07:48:24.000Z</time>
      </trkpt>
      <trkpt lat="54.385805" lon="9.697942">
        <ele>10.750010</ele>
        <time>2021-08-29T07:48:27.000Z</time>
      </trkpt>
      <trkpt lat="54.385727" lon="9.697963">
        <ele>10.922571</ele>
        <time>2021-08-29T07:48:32.000Z</time>
      </trkpt>
      <trkpt lat="54.385710" lon="9.697966">
        <ele>10.959922</ele>
        <time>2021-08-29T07:48:33.000Z</time>
      </trkpt>
      <trkpt lat="54.385606" lon="9.698019">
        <ele>11.197025</ele>
        <time>2021-08-29T07:48:39.000Z</time>
      </trkpt>
      <trkpt lat="54.385574" lon="9.698023">
        <ele>11.267150</ele>
        <time>2021-08-29T07:48:41.000Z</time>
      </trkpt>
      <trkpt lat="54.385495" lon="9.698001">
        <ele>11.442070</ele>
        <time>2021-08-29T07:48:47.000Z</time>
      </trkpt>
      <trkpt lat="54.385432" lon="9.697994">
        <ele>11.580053</ele>
        <time>2021-08-29T07:48:51.000Z</time>
      </trkpt>
      <trkpt lat="54.385417" lon="9.697992">
        <ele>11.612936</ele>
        <time>2021-08-29T07:48:52.000Z</time>
      </trkpt>
      <trkpt lat="54.385372" lon="9.698006">
        <ele>11.712890</ele>
        <time>2021-08-29T07:48:55.000Z</time>
      </trkpt>
      <trkpt lat="54.385349" lon="9.698018">
        <ele>11.765428</ele>
        <time>2021-08-29T07:48:57.000Z</time>
      </trkpt>
      <trkpt lat="54.385321" lon="9.698032">
        <ele>11.829167</ele>
        <time>2021-08-29T07:48:59.000Z</time>
      </trkpt>
      <trkpt lat="54.385295" lon="9.698038">
        <ele>11.886504</ele>
        <time>2021-08-29T07:49:01.000Z</time>
      </trkpt>
      <trkpt lat="54.385226" lon="9.698043">
        <ele>12.037447</ele>
        <time>2021-08-29T07:49:06.000Z</time>
      </trkpt>
      <trkpt lat="54.385178" lon="9.698052">
        <ele>12.142980</ele>
        <time>2021-08-29T07:49:10.000Z</time>
      </trkpt>
      <trkpt lat="54.385118" lon="9.698068">
        <ele>12.275690</ele>
        <time>2021-08-29T07:49:14.000Z</time>
      </trkpt>
      <trkpt lat="54.384961" lon="9.698107">
        <ele>12.772991</ele>
        <time>2021-08-29T07:49:23.000Z</time>
      </trkpt>
      <trkpt lat="54.384829" lon="9.698186">
        <ele>13.238938</ele>
        <time>2021-08-29T07:49:31.000Z</time>
      </trkpt>
      <trkpt lat="54.384767" lon="9.698204">
        <ele>13.448533</ele>
        <time>2021-08-29T07:49:35.000Z</time>
      </trkpt>
      <trkpt lat="54.384751" lon="9.698217">
        <ele>13.507533</ele>
        <time>2021-08-29T07:49:36.000Z</time>
      </trkpt>
      <trkpt lat="54.384717" lon="9.698244">
        <ele>13.632396</ele>
        <time>2021-08-29T07:49:38.000Z</time>
      </trkpt>
      <trkpt lat="54.384626" lon="9.698306">
        <ele>13.958725</ele>
        <time>2021-08-29T07:49:44.000Z</time>
      </trkpt>
      <trkpt lat="54.384588" lon="9.698328">
        <ele>14.092394</ele>
        <time>2021-08-29T07:49:48.000Z</time>
      </trkpt>
      <trkpt lat="54.384566" lon="9.698346">
        <ele>14.173624</ele>
        <time>2021-08-29T07:49:50.000Z</time>
      </trkpt>
      <trkpt lat="54.384556" lon="9.698355">
        <ele>14.211258</ele>
        <time>2021-08-29T07:49:51.000Z</time>
      </trkpt>
      <trkpt lat="54.384520" lon="9.698383">
        <ele>14.342990</ele>
        <time>2021-08-29T07:49:54.000Z</time>
      </trkpt>
      <trkpt lat="54.384492" lon="9.698417">
        <ele>14.457298</ele>
        <time>2021-08-29T07:49:56.000Z</time>
      </trkpt>
      <trkpt lat="54.384449" lon="9.698453">
        <ele>14.616756</ele>
        <time>2021-08-29T07:49:59.000Z</time>
      </trkpt>
      <trkpt lat="54.384348" lon="9.698587">
        <ele>15.042192</ele>
        <time>2021-08-29T07:50:06.000Z</time>
      </trkpt>
      <trkpt lat="54.384268" lon="9.698761">
        <ele>15.472524</ele>
        <time>2021-08-29T07:50:13.000Z</time>
      </trkpt>
      <trkpt lat="54.384236" lon="9.698902">
        <ele>15.766271</ele>
        <time>2021-08-29T07:50:20.000Z</time>
      </trkpt>
      <trkpt lat="54.384164" lon="9.699008">
        <ele>16.082395</ele>
        <time>2021-08-29T07:50:27.000Z</time>
      </trkpt>
      <trkpt lat="54.384117" lon="9.699075">
        <ele>16.286006</ele>
        <time>2021-08-29T07:50:32.000Z</time>
      </trkpt>
      <trkpt lat="54.384095" lon="9.699106">
        <ele>16.380867</ele>
        <time>2021-08-29T07:50:34.000Z</time>
      </trkpt>
      <trkpt lat="54.384071" lon="9.699156">
        <ele>16.506643</ele>
        <time>2021-08-29T07:50:39.000Z</time>
      </trkpt>
      <trkpt lat="54.384056" lon="9.699183">
        <ele>16.579077</ele>
        <time>2021-08-29T07:50:41.000Z</time>
      </trkpt>
      <trkpt lat="54.384049" lon="9.699204">
        <ele>16.626046</ele>
        <time>2021-08-29T07:50:42.000Z</time>
      </trkpt>
      <trkpt lat="54.384039" lon="9.699232">
        <ele>16.689805</ele>
        <time>2021-08-29T07:50:43.000Z</time>
      </trkpt>
      <trkpt lat="54.383991" lon="9.699276">
        <ele>16.871171</ele>
        <time>2021-08-29T07:50:47.000Z</time>
      </trkpt>
      <trkpt lat="54.383955" lon="9.699313">
        <ele>17.011020</ele>
        <time>2021-08-29T07:50:50.000Z</time>
      </trkpt>
      <trkpt lat="54.383924" lon="9.699334">
        <ele>17.122101</ele>
        <time>2021-08-29T07:50:52.000Z</time>
      </trkpt>
      <trkpt lat="54.383864" lon="9.699388">
        <ele>17.347902</ele>
        <time>2021-08-29T07:50:57.000Z</time>
      </trkpt>
      <trkpt lat="54.383842" lon="9.699421">
        <ele>17.445271</ele>
        <time>2021-08-29T07:50:59.000Z</time>
      </trkpt>
      <trkpt lat="54.383728" lon="9.699540">
        <ele>17.889965</ele>
        <time>2021-08-29T07:51:08.000Z</time>
      </trkpt>
      <trkpt lat="54.383693" lon="9.699577">
        <ele>18.026965</ele>
        <time>2021-08-29T07:51:11.000Z</time>
      </trkpt>
      <trkpt lat="54.383631" lon="9.699638">
        <ele>18.265146</ele>
        <time>2021-08-29T07:51:15.000Z</time>
      </trkpt>
      <trkpt lat="54.383618" lon="9.699657">
        <ele>18.322049</ele>
        <time>2021-08-29T07:51:16.000Z</time>
      </trkpt>
      <trkpt lat="54.383485" lon="9.699833">
        <ele>18.356031</ele>
        <time>2021-08-29T07:51:24.000Z</time>
      </trkpt>
      <trkpt lat="54.383389" lon="9.699918">
        <ele>18.372413</ele>
        <time>2021-08-29T07:51:31.000Z</time>
      </trkpt>
      <trkpt lat="54.383305" lon="9.700003">
        <ele>18.387201</ele>
        <time>2021-08-29T07:51:38.000Z</time>
      </trkpt>
      <trkpt lat="54.383167" lon="9.700148">
        <ele>18.411739</ele>
        <time>2021-08-29T07:51:47.000Z</time>
      </trkpt>
      <trkpt lat="54.383157" lon="9.700159">
        <ele>18.413540</ele>
        <time>2021-08-29T07:51:48.000Z</time>
      </trkpt>
      <trkpt lat="54.383134" lon="9.700182">
        <ele>18.417577</ele>
        <time>2021-08-29T07:51:50.000Z</time>
      </trkpt>
      <trkpt lat="54.383072" lon="9.700204">
        <ele>18.427179</ele>
        <time>2021-08-29T07:51:54.000Z</time>
      </trkpt>
      <trkpt lat="54.382984" lon="9.700272">
        <ele>18.441815</ele>
        <time>2021-08-29T07:52:00.000Z</time>
      </trkpt>
      <trkpt lat="54.382909" lon="9.700370">
        <ele>18.456109</ele>
        <time>2021-08-29T07:52:07.000Z</time>
      </trkpt>
      <trkpt lat="54.382814" lon="9.700570">
        <ele>18.478905</ele>
        <time>2021-08-29T07:52:14.000Z</time>
      </trkpt>
      <trkpt lat="54.382754" lon="9.700759">
        <ele>18.497918</ele>
        <time>2021-08-29T07:52:21.000Z</time>
      </trkpt>
      <trkpt lat="54.382740" lon="9.700772">
        <ele>18.500332</ele>
        <time>2021-08-29T07:52:24.000Z</time>
      </trkpt>
      <trkpt lat="54.382732" lon="9.700825">
        <ele>18.505168</ele>
        <time>2021-08-29T07:52:29.000Z</time>
      </trkpt>
      <trkpt lat="54.382723" lon="9.700872">
        <ele>18.509538</ele>
        <time>2021-08-29T07:52:32.000Z</time>
      </trkpt>
      <trkpt lat="54.382705" lon="9.700993">
        <ele>18.520569</ele>
        <time>2021-08-29T07:52:38.000Z</time>
      </trkpt>
      <trkpt lat="54.382692" lon="9.701089">
        <ele>18.529274</ele>
        <time>2021-08-29T07:52:43.000Z</time>
      </trkpt>
      <trkpt lat="54.382698" lon="9.701093">
        <ele>18.530251</ele>
        <time>2021-08-29T07:52:45.000Z</time>
      </trkpt>
      <trkpt lat="54.382698" lon="9.701097">
        <ele>18.530604</ele>
        <time>2021-08-29T07:52:47.000Z</time>
      </trkpt>
      <trkpt lat="54.382686" lon="9.701142">
        <ele>18.534975</ele>
        <time>2021-08-29T07:52:53.000Z</time>
      </trkpt>
      <trkpt lat="54.382666" lon="9.701363">
        <ele>18.554730</ele>
        <time>2021-08-29T07:53:02.000Z</time>
      </trkpt>
      <trkpt lat="54.382687" lon="9.701576">
        <ele>18.573811</ele>
        <time>2021-08-29T07:53:09.000Z</time>
      </trkpt>
      <trkpt lat="54.382696" lon="9.701619">
        <ele>18.577847</ele>
        <time>2021-08-29T07:53:11.000Z</time>
      </trkpt>
      <trkpt lat="54.382690" lon="9.701654">
        <ele>18.581070</ele>
        <time>2021-08-29T07:53:13.000Z</time>
      </trkpt>
      <trkpt lat="54.382693" lon="9.701663">
        <ele>18.581986</ele>
        <time>2021-08-29T07:53:14.000Z</time>
      </trkpt>
      <trkpt lat="54.382700" lon="9.701665">
        <ele>18.583062</ele>
        <time>2021-08-29T07:53:16.000Z</time>
      </trkpt>
      <trkpt lat="54.382705" lon="9.701655">
        <ele>18.584226</ele>
        <time>2021-08-29T07:53:19.000Z</time>
      </trkpt>
      <trkpt lat="54.382709" lon="9.701660">
        <ele>18.584977</ele>
        <time>2021-08-29T07:53:25.000Z</time>
      </trkpt>
      <trkpt lat="54.382705" lon="9.701775">
        <ele>18.595152</ele>
        <time>2021-08-29T07:53:31.000Z</time>
      </trkpt>
      <trkpt lat="54.382713" lon="9.701870">
        <ele>18.603631</ele>
        <time>2021-08-29T07:53:35.000Z</time>
      </trkpt>
      <trkpt lat="54.382718" lon="9.701894">
        <ele>18.619865</ele>
        <time>2021-08-29T07:53:36.000Z</time>
      </trkpt>
      <trkpt lat="54.382751" lon="9.702038">
        <ele>18.723937</ele>
        <time>2021-08-29T07:53:42.000Z</time>
      </trkpt>
      <trkpt lat="54.382798" lon="9.702212">
        <ele>18.852932</ele>
        <time>2021-08-29T07:53:49.000Z</time>
      </trkpt>
      <trkpt lat="54.382812" lon="9.702378">
        <ele>18.965736</ele>
        <time>2021-08-29T07:53:55.000Z</time>
      </trkpt>
      <trkpt lat="54.382824" lon="9.702568">
        <ele>19.094265</ele>
        <time>2021-08-29T07:54:03.000Z</time>
      </trkpt>
      <trkpt lat="54.382845" lon="9.702801">
        <ele>19.252830</ele>
        <time>2021-08-29T07:54:12.000Z</time>
      </trkpt>
      <trkpt lat="54.382869" lon="9.703062">
        <ele>19.430534</ele>
        <time>2021-08-29T07:54:21.000Z</time>
      </trkpt>
      <trkpt lat="54.382873" lon="9.703089">
        <ele>19.449270</ele>
        <time>2021-08-29T07:54:22.000Z</time>
      </trkpt>
      <trkpt lat="54.382892" lon="9.703337">
        <ele>19.617494</ele>
        <time>2021-08-29T07:54:31.000Z</time>
      </trkpt>
      <trkpt lat="54.382898" lon="9.703483">
        <ele>19.715927</ele>
        <time>2021-08-29T07:54:37.000Z</time>
      </trkpt>
      <trkpt lat="54.382902" lon="9.703530">
        <ele>19.747872</ele>
        <time>2021-08-29T07:54:39.000Z</time>
      </trkpt>
      <trkpt lat="54.382885" lon="9.703654">
        <ele>19.833545</ele>
        <time>2021-08-29T07:54:44.000Z</time>
      </trkpt>
      <trkpt lat="54.382872" lon="9.703700">
        <ele>19.867931</ele>
        <time>2021-08-29T07:54:46.000Z</time>
      </trkpt>
      <trkpt lat="54.382825" lon="9.703825">
        <ele>19.967996</ele>
        <time>2021-08-29T07:54:51.000Z</time>
      </trkpt>
      <trkpt lat="54.382789" lon="9.703883">
        <ele>20.025004</ele>
        <time>2021-08-29T07:54:54.000Z</time>
      </trkpt>
      <trkpt lat="54.382777" lon="9.703908">
        <ele>20.046792</ele>
        <time>2021-08-29T07:54:55.000Z</time>
      </trkpt>
      <trkpt lat="54.382677" lon="9.704071">
        <ele>20.206018</ele>
        <time>2021-08-29T07:55:03.000Z</time>
      </trkpt>
      <trkpt lat="54.382589" lon="9.704203">
        <ele>20.340956</ele>
        <time>2021-08-29T07:55:10.000Z</time>
      </trkpt>
      <trkpt lat="54.382514" lon="9.704294">
        <ele>20.447008</ele>
        <time>2021-08-29T07:55:18.000Z</time>
      </trkpt>
      <trkpt lat="54.382405" lon="9.704368">
        <ele>20.582365</ele>
        <time>2021-08-29T07:55:26.000Z</time>
      </trkpt>
      <trkpt lat="54.382393" lon="9.704369">
        <ele>20.596239</ele>
        <time>2021-08-29T07:55:27.000Z</time>
      </trkpt>
      <trkpt lat="54.382284" lon="9.704421">
        <ele>20.724786</ele>
        <time>2021-08-29T07:55:35.000Z</time>
      </trkpt>
      <trkpt lat="54.382254" lon="9.704451">
        <ele>20.763051</ele>
        <time>2021-08-29T07:55:37.000Z</time>
      </trkpt>
      <trkpt lat="54.382161" lon="9.704504">
        <ele>20.871055</ele>
        <time>2021-08-29T07:55:44.000Z</time>
      </trkpt>
      <trkpt lat="54.382062" lon="9.704554">
        <ele>20.984796</ele>
        <time>2021-08-29T07:55:51.000Z</time>
      </trkpt>
      <trkpt lat="54.382012" lon="9.704684">
        <ele>21.084799</ele>
        <time>2021-08-29T07:55:57.000Z</time>
      </trkpt>
      <trkpt lat="54.381970" lon="9.704814">
        <ele>21.180227</ele>
        <time>2021-08-29T07:56:05.000Z</time>
      </trkpt>
      <trkpt lat="54.381944" lon="9.704831">
        <ele>21.210892</ele>
        <time>2021-08-29T07:56:09.000Z</time>
      </trkpt>
      <trkpt lat="54.381925" lon="9.704876">
        <ele>21.246570</ele>
        <time>2021-08-29T07:56:11.000Z</time>
      </trkpt>
      <trkpt lat="54.381900" lon="9.705012">
        <ele>21.338115</ele>
        <time>2021-08-29T07:56:15.000Z</time>
      </trkpt>
      <trkpt lat="54.381893" lon="9.705056">
        <ele>21.367393</ele>
        <time>2021-08-29T07:56:16.000Z</time>
      </trkpt>
      <trkpt lat="54.381867" lon="9.705226">
        <ele>21.480218</ele>
        <time>2021-08-29T07:56:21.000Z</time>
      </trkpt>
      <trkpt lat="54.381870" lon="9.705277">
        <ele>21.513121</ele>
        <time>2021-08-29T07:56:23.000Z</time>
      </trkpt>
      <trkpt lat="54.381875" lon="9.705352">
        <ele>21.561579</ele>
        <time>2021-08-29T07:56:26.000Z</time>
      </trkpt>
      <trkpt lat="54.381891" lon="9.705514">
        <ele>21.667052</ele>
        <time>2021-08-29T07:56:32.000Z</time>
      </trkpt>
      <trkpt lat="54.381905" lon="9.705534">
        <ele>21.687125</ele>
        <time>2021-08-29T07:56:33.000Z</time>
      </trkpt>
      <trkpt lat="54.381943" lon="9.705601">
        <ele>21.747158</ele>
        <time>2021-08-29T07:56:36.000Z</time>
      </trkpt>
      <trkpt lat="54.381947" lon="9.705625">
        <ele>21.763182</ele>
        <time>2021-08-29T07:56:37.000Z</time>
      </trkpt>
      <trkpt lat="54.381959" lon="9.705780">
        <ele>21.863553</ele>
        <time>2021-08-29T07:56:43.000Z</time>
      </trkpt>
      <trkpt lat="54.381973" lon="9.705846">
        <ele>21.908641</ele>
        <time>2021-08-29T07:56:46.000Z</time>
      </trkpt>
      <trkpt lat="54.381993" lon="9.705905">
        <ele>21.952462</ele>
        <time>2021-08-29T07:56:49.000Z</time>
      </trkpt>
      <trkpt lat="54.382054" lon="9.706045">
        <ele>22.064696</ele>
        <time>2021-08-29T07:56:56.000Z</time>
      </trkpt>
      <trkpt lat="54.382064" lon="9.706086">
        <ele>22.093229</ele>
        <time>2021-08-29T07:56:58.000Z</time>
      </trkpt>
      <trkpt lat="54.382106" lon="9.706183">
        <ele>22.170817</ele>
        <time>2021-08-29T07:57:03.000Z</time>
      </trkpt>
      <trkpt lat="54.382151" lon="9.706331">
        <ele>22.277987</ele>
        <time>2021-08-29T07:57:10.000Z</time>
      </trkpt>
      <trkpt lat="54.382206" lon="9.706477">
        <ele>22.389602</ele>
        <time>2021-08-29T07:57:17.000Z</time>
      </trkpt>
      <trkpt lat="54.382212" lon="9.706500">
        <ele>22.405779</ele>
        <time>2021-08-29T07:57:18.000Z</time>
      </trkpt>
      <trkpt lat="54.382219" lon="9.706521">
        <ele>22.421311</ele>
        <time>2021-08-29T07:57:19.000Z</time>
      </trkpt>
      <trkpt lat="54.382248" lon="9.706606">
        <ele>22.484546</ele>
        <time>2021-08-29T07:57:23.000Z</time>
      </trkpt>
      <trkpt lat="54.382274" lon="9.706722">
        <ele>22.564330</ele>
        <time>2021-08-29T07:57:27.000Z</time>
      </trkpt>
      <trkpt lat="54.382279" lon="9.706778">
        <ele>22.600697</ele>
        <time>2021-08-29T07:57:29.000Z</time>
      </trkpt>
      <trkpt lat="54.382256" lon="9.706870">
        <ele>22.660771</ele>
        <time>2021-08-29T07:57:33.000Z</time>
      </trkpt>
      <trkpt lat="54.382175" lon="9.706972">
        <ele>22.482459</ele>
        <time>2021-08-29T07:57:41.000Z</time>
      </trkpt>
      <trkpt lat="54.382093" lon="9.707099">
        <ele>22.286430</ele>
        <time>2021-08-29T07:57:50.000Z</time>
      </trkpt>
      <trkpt lat="54.382017" lon="9.707214">
        <ele>22.106606</ele>
        <time>2021-08-29T07:57:57.000Z</time>
      </trkpt>
      <trkpt lat="54.381978" lon="9.707254">
        <ele>22.025964</ele>
        <time>2021-08-29T07:58:01.000Z</time>
      </trkpt>
      <trkpt lat="54.381930" lon="9.707277">
        <ele>21.937500</ele>
        <time>2021-08-29T07:58:05.000Z</time>
      </trkpt>
      <trkpt lat="54.381844" lon="9.707325">
        <ele>21.776972</ele>
        <time>2021-08-29T07:58:12.000Z</time>
      </trkpt>
      <trkpt lat="54.381753" lon="9.707328">
        <ele>21.615401</ele>
        <time>2021-08-29T07:58:18.000Z</time>
      </trkpt>
      <trkpt lat="54.381731" lon="9.707337">
        <ele>21.575254</ele>
        <time>2021-08-29T07:58:19.000Z</time>
      </trkpt>
      <trkpt lat="54.381694" lon="9.707340">
        <ele>21.509499</ele>
        <time>2021-08-29T07:58:21.000Z</time>
      </trkpt>
      <trkpt lat="54.381678" lon="9.707339">
        <ele>21.481077</ele>
        <time>2021-08-29T07:58:22.000Z</time>
      </trkpt>
      <trkpt lat="54.381568" lon="9.707296">
        <ele>21.280811</ele>
        <time>2021-08-29T07:58:29.000Z</time>
      </trkpt>
      <trkpt lat="54.381526" lon="9.707256">
        <ele>21.195553</ele>
        <time>2021-08-29T07:58:32.000Z</time>
      </trkpt>
      <trkpt lat="54.381487" lon="9.707224">
        <ele>21.118823</ele>
        <time>2021-08-29T07:58:35.000Z</time>
      </trkpt>
      <trkpt lat="54.381409" lon="9.707175">
        <ele>20.971383</ele>
        <time>2021-08-29T07:58:41.000Z</time>
      </trkpt>
      <trkpt lat="54.381403" lon="9.707175">
        <ele>20.960732</ele>
        <time>2021-08-29T07:58:42.000Z</time>
      </trkpt>
      <trkpt lat="54.381392" lon="9.707185">
        <ele>20.938637</ele>
        <time>2021-08-29T07:58:43.000Z</time>
      </trkpt>
      <trkpt lat="54.381387" lon="9.707192">
        <ele>20.927185</ele>
        <time>2021-08-29T07:58:44.000Z</time>
      </trkpt>
      <trkpt lat="54.381383" lon="9.707198">
        <ele>20.917756</ele>
        <time>2021-08-29T07:58:49.000Z</time>
      </trkpt>
      <trkpt lat="54.381383" lon="9.707196">
        <ele>20.915689</ele>
        <time>2021-08-29T07:58:52.000Z</time>
      </trkpt>
      <trkpt lat="54.381387" lon="9.707191">
        <ele>20.906906</ele>
        <time>2021-08-29T07:59:03.000Z</time>
      </trkpt>
      <trkpt lat="54.381363" lon="9.707214">
        <ele>20.858115</ele>
        <time>2021-08-29T07:59:08.000Z</time>
      </trkpt>
      <trkpt lat="54.381326" lon="9.707232">
        <ele>20.789848</ele>
        <time>2021-08-29T07:59:12.000Z</time>
      </trkpt>
      <trkpt lat="54.381284" lon="9.707278">
        <ele>20.701415</ele>
        <time>2021-08-29T07:59:16.000Z</time>
      </trkpt>
      <trkpt lat="54.381268" lon="9.707297">
        <ele>20.666881</ele>
        <time>2021-08-29T07:59:18.000Z</time>
      </trkpt>
      <trkpt lat="54.381250" lon="9.707319">
        <ele>20.627660</ele>
        <time>2021-08-29T07:59:20.000Z</time>
      </trkpt>
      <trkpt lat="54.381220" lon="9.707359">
        <ele>20.560234</ele>
        <time>2021-08-29T07:59:24.000Z</time>
      </trkpt>
      <trkpt lat="54.381159" lon="9.707373">
        <ele>20.450985</ele>
        <time>2021-08-29T07:59:29.000Z</time>
      </trkpt>
      <trkpt lat="54.381101" lon="9.707222">
        <ele>20.263978</ele>
        <time>2021-08-29T07:59:37.000Z</time>
      </trkpt>
      <trkpt lat="54.381043" lon="9.707094">
        <ele>20.096309</ele>
        <time>2021-08-29T07:59:44.000Z</time>
      </trkpt>
      <trkpt lat="54.381011" lon="9.707054">
        <ele>20.026045</ele>
        <time>2021-08-29T07:59:48.000Z</time>
      </trkpt>
      <trkpt lat="54.380986" lon="9.707057">
        <ele>19.981557</ele>
        <time>2021-08-29T07:59:50.000Z</time>
      </trkpt>
      <trkpt lat="54.380969" lon="9.707061">
        <ele>19.951097</ele>
        <time>2021-08-29T07:59:51.000Z</time>
      </trkpt>
      <trkpt lat="54.380897" lon="9.707085">
        <ele>19.820898</ele>
        <time>2021-08-29T07:59:56.000Z</time>
      </trkpt>
      <trkpt lat="54.380846" lon="9.707125">
        <ele>19.721367</ele>
        <time>2021-08-29T07:59:59.000Z</time>
      </trkpt>
      <trkpt lat="54.380807" lon="9.707145">
        <ele>19.649113</ele>
        <time>2021-08-29T08:00:02.000Z</time>
      </trkpt>
      <trkpt lat="54.380794" lon="9.707153">
        <ele>19.624598</ele>
        <time>2021-08-29T08:00:03.000Z</time>
      </trkpt>
      <trkpt lat="54.380737" lon="9.707185">
        <ele>19.518142</ele>
        <time>2021-08-29T08:00:07.000Z</time>
      </trkpt>
      <trkpt lat="54.380723" lon="9.707185">
        <ele>19.493289</ele>
        <time>2021-08-29T08:00:08.000Z</time>
      </trkpt>
      <trkpt lat="54.380663" lon="9.707131">
        <ele>19.470444</ele>
        <time>2021-08-29T08:00:13.000Z</time>
      </trkpt>
      <trkpt lat="54.380630" lon="9.707110">
        <ele>19.470444</ele>
        <time>2021-08-29T08:00:16.000Z</time>
      </trkpt>
      <trkpt lat="54.380602" lon="9.707104">
        <ele>19.470444</ele>
        <time>2021-08-29T08:00:19.000Z</time>
      </trkpt>
      <trkpt lat="54.380593" lon="9.707103">
        <ele>19.470444</ele>
        <time>2021-08-29T08:00:20.000Z</time>
      </trkpt>
      <trkpt lat="54.380534" lon="9.707123">
        <ele>19.470444</ele>
        <time>2021-08-29T08:00:25.000Z</time>
      </trkpt>
      <trkpt lat="54.380510" lon="9.707143">
        <ele>19.470444</ele>
        <time>2021-08-29T08:00:27.000Z</time>
      </trkpt>
      <trkpt lat="54.380469" lon="9.707146">
        <ele>19.470444</ele>
        <time>2021-08-29T08:00:30.000Z</time>
      </trkpt>
      <trkpt lat="54.380453" lon="9.707142">
        <ele>19.470444</ele>
        <time>2021-08-29T08:00:31.000Z</time>
      </trkpt>
      <trkpt lat="54.380432" lon="9.707146">
        <ele>19.470444</ele>
        <time>2021-08-29T08:00:33.000Z</time>
      </trkpt>
      <trkpt lat="54.380361" lon="9.707159">
        <ele>19.470444</ele>
        <time>2021-08-29T08:00:38.000Z</time>
      </trkpt>
      <trkpt lat="54.380332" lon="9.707175">
        <ele>19.470444</ele>
        <time>2021-08-29T08:00:40.000Z</time>
      </trkpt>
      <trkpt lat="54.380276" lon="9.707208">
        <ele>19.470444</ele>
        <time>2021-08-29T08:00:44.000Z</time>
      </trkpt>
      <trkpt lat="54.380227" lon="9.707230">
        <ele>19.470444</ele>
        <time>2021-08-29T08:00:47.000Z</time>
      </trkpt>
      <trkpt lat="54.380178" lon="9.707227">
        <ele>19.470444</ele>
        <time>2021-08-29T08:00:52.000Z</time>
      </trkpt>
      <trkpt lat="54.380135" lon="9.707243">
        <ele>19.470444</ele>
        <time>2021-08-29T08:00:56.000Z</time>
      </trkpt>
      <trkpt lat="54.380086" lon="9.707259">
        <ele>19.470444</ele>
        <time>2021-08-29T08:01:00.000Z</time>
      </trkpt>
      <trkpt lat="54.380075" lon="9.707271">
        <ele>19.470444</ele>
        <time>2021-08-29T08:01:01.000Z</time>
      </trkpt>
      <trkpt lat="54.380061" lon="9.707288">
        <ele>19.470444</ele>
        <time>2021-08-29T08:01:02.000Z</time>
      </trkpt>
      <trkpt lat="54.380052" lon="9.707291">
        <ele>19.470444</ele>
        <time>2021-08-29T08:01:03.000Z</time>
      </trkpt>
      <trkpt lat="54.380032" lon="9.707292">
        <ele>19.470444</ele>
        <time>2021-08-29T08:01:05.000Z</time>
      </trkpt>
      <trkpt lat="54.379987" lon="9.707319">
        <ele>19.470444</ele>
        <time>2021-08-29T08:01:09.000Z</time>
      </trkpt>
      <trkpt lat="54.379972" lon="9.707330">
        <ele>19.470444</ele>
        <time>2021-08-29T08:01:10.000Z</time>
      </trkpt>
      <trkpt lat="54.379890" lon="9.707342">
        <ele>19.470444</ele>
        <time>2021-08-29T08:01:15.000Z</time>
      </trkpt>
      <trkpt lat="54.379788" lon="9.707286">
        <ele>19.470444</ele>
        <time>2021-08-29T08:01:21.000Z</time>
      </trkpt>
      <trkpt lat="54.379749" lon="9.707236">
        <ele>19.470444</ele>
        <time>2021-08-29T08:01:24.000Z</time>
      </trkpt>
      <trkpt lat="54.379722" lon="9.707170">
        <ele>19.470444</ele>
        <time>2021-08-29T08:01:27.000Z</time>
      </trkpt>
      <trkpt lat="54.379686" lon="9.707087">
        <ele>19.470444</ele>
        <time>2021-08-29T08:01:31.000Z</time>
      </trkpt>
      <trkpt lat="54.379662" lon="9.707070">
        <ele>19.470444</ele>
        <time>2021-08-29T08:01:33.000Z</time>
      </trkpt>
      <trkpt lat="54.379590" lon="9.707022">
        <ele>19.470444</ele>
        <time>2021-08-29T08:01:39.000Z</time>
      </trkpt>
    </trkseg>
  </trk>
</gpx>